[[{"header":{"parameterUnit":"m.s-1","parameterCategory":1,"la1":30.6,"la2":29.2853,"lo1":-89.7004,"lo2":-87.6739,"dy":0.0162,"dx":0.0183,"nx":112,"ny":82,"refTime":"2024-05-13T06:00:00:Z","depth":0,"parameterNumber":2,"parameterNumberName":"U-component_of_WINDS"},"data":[0.0,0.0,0.0,0.0,0.0,0.0,0.0,0.0,0.0,0.0,0.0,0.0,0.0,0.0,0.0,0.0,0.0,0.0,0.0,0.0,0.0,0.0,0.0,0.0,0.0,0.0,0.0,0.0,0.0,0.0,0.0,0.0,0.0,0.0,0.0,0.0,0.0,0.0,0.0,0.0,0.0,0.0,0.0,0.0,0.0,0.0,0.0,0.0,0.0,0.0,0.0,0.0,0.0,0.0,0.0,0.0,0.0,0.0,0.0,0.0,0.0,0.0,0.0,0.0,0.0,0.0,0.0,0.0,0.0,0.0,0.0,0.0,0.0,0.0,0.0,0.0,0.0,0.0,0.0,0.0,0.0,0.0,0.0,0.0,0.0,0.0,0.0,0.0,0.0,0.0,-7.5709,-7.5709,-7.5709,-7.5709,-7.5709,-7.5709,-7.5709,-7.5709,0.0,0.0,0.0,0.0,0.0,0.0,0.0,0.0,0.0,0.0,0.0,0.0,0.0,0.0,0.0,0.0,0.0,0.0,0.0,0.0,0.0,0.0,0.0,0.0,0.0,0.0,0.0,0.0,0.0,0.0,0.0,0.0,0.0,0.0,0.0,0.0,0.0,0.0,0.0,0.0,0.0,0.0,0.0,0.0,0.0,0.0,0.0,0.0,0.0,0.0,0.0,0.0,0.0,0.0,0.0,0.0,0.0,0.0,0.0,0.0,0.0,0.0,0.0,0.0,0.0,0.0,0.0,0.0,0.0,0.0,0.0,0.0,0.0,0.0,0.0,0.0,0.0,0.0,0.0,0.0,0.0,0.0,0.0,0.0,0.0,0.0,0.0,0.0,0.0,0.0,0.0,0.0,0.0,0.0,0.0,0.0,0.0,0.0,0.0,0.0,0.0,0.0,0.0,0.0,-7.5709,-7.5709,-7.5709,-7.5709,-7.5709,-7.5709,-7.5709,-7.5709,0.0,0.0,0.0,0.0,0.0,0.0,0.0,0.0,0.0,0.0,0.0,0.0,0.0,0.0,0.0,0.0,0.0,0.0,0.0,0.0,0.0,0.0,0.0,0.0,0.0,0.0,0.0,0.0,0.0,0.0,0.0,0.0,0.0,0.0,0.0,0.0,0.0,0.0,0.0,0.0,0.0,0.0,0.0,0.0,0.0,0.0,0.0,0.0,0.0,0.0,0.0,0.0,0.0,0.0,0.0,0.0,0.0,0.0,0.0,0.0,0.0,0.0,0.0,0.0,0.0,0.0,0.0,0.0,0.0,0.0,0.0,0.0,0.0,0.0,0.0,0.0,0.0,0.0,0.0,0.0,0.0,0.0,0.0,0.0,0.0,0.0,0.0,0.0,0.0,0.0,0.0,0.0,0.0,0.0,0.0,0.0,0.0,0.0,0.0,0.0,0.0,0.0,0.0,-7.5709,-7.5709,-7.5709,-7.5709,-7.5709,-7.5709,-7.5709,-7.5709,-7.5709,-7.5709,0.0,0.0,0.0,0.0,0.0,0.0,0.0,0.0,0.0,0.0,0.0,0.0,0.0,0.0,0.0,0.0,0.0,0.0,0.0,0.0,0.0,0.0,0.0,0.0,0.0,0.0,0.0,0.0,0.0,0.0,0.0,0.0,0.0,0.0,0.0,0.0,0.0,0.0,0.0,0.0,0.0,0.0,0.0,0.0,0.0,0.0,0.0,0.0,0.0,0.0,0.0,0.0,0.0,0.0,0.0,0.0,0.0,0.0,0.0,0.0,0.0,0.0,0.0,0.0,0.0,0.0,0.0,0.0,0.0,0.0,0.0,0.0,0.0,0.0,0.0,0.0,0.0,0.0,0.0,0.0,0.0,0.0,0.0,0.0,0.0,0.0,0.0,0.0,0.0,0.0,0.0,0.0,0.0,0.0,0.0,0.0,0.0,0.0,0.0,0.0,0.0,0.0,-7.5709,-7.5709,-7.5709,-7.5709,-7.5709,-7.5709,-7.5709,-7.5709,-7.5709,-7.5709,0.0,0.0,0.0,0.0,0.0,0.0,0.0,0.0,0.0,0.0,0.0,0.0,0.0,0.0,0.0,0.0,0.0,0.0,0.0,0.0,0.0,0.0,0.0,0.0,0.0,0.0,0.0,0.0,0.0,0.0,0.0,0.0,0.0,0.0,0.0,0.0,0.0,0.0,0.0,0.0,0.0,0.0,0.0,0.0,0.0,0.0,0.0,0.0,0.0,0.0,0.0,0.0,0.0,0.0,0.0,0.0,0.0,0.0,0.0,0.0,0.0,0.0,0.0,0.0,0.0,0.0,0.0,0.0,0.0,0.0,0.0,0.0,0.0,0.0,0.0,0.0,0.0,0.0,0.0,0.0,0.0,0.0,0.0,0.0,0.0,0.0,0.0,0.0,0.0,0.0,0.0,0.0,0.0,0.0,0.0,0.0,0.0,0.0,0.0,0.0,0.0,0.0,-7.5709,-7.5709,-7.5709,-7.5709,-7.5709,-7.5709,-7.5709,-7.5709,-7.5709,-7.5709,0.0,0.0,0.0,0.0,0.0,0.0,0.0,0.0,0.0,0.0,0.0,0.0,0.0,0.0,0.0,0.0,0.0,0.0,0.0,0.0,0.0,0.0,0.0,0.0,0.0,0.0,0.0,0.0,0.0,0.0,0.0,0.0,0.0,0.0,0.0,0.0,0.0,0.0,0.0,0.0,0.0,0.0,0.0,0.0,0.0,0.0,0.0,0.0,0.0,0.0,0.0,0.0,0.0,0.0,0.0,0.0,0.0,0.0,0.0,0.0,0.0,0.0,0.0,0.0,0.0,0.0,0.0,0.0,0.0,0.0,0.0,0.0,0.0,0.0,0.0,0.0,0.0,0.0,0.0,0.0,0.0,0.0,0.0,0.0,0.0,0.0,0.0,0.0,0.0,0.0,0.0,0.0,0.0,0.0,0.0,0.0,0.0,0.0,0.0,0.0,0.0,0.0,-7.5709,-7.5709,-7.5709,-7.5709,-7.5709,-7.5709,-7.5709,-7.5709,-7.5709,0.0,0.0,0.0,0.0,0.0,0.0,0.0,0.0,0.0,0.0,0.0,0.0,0.0,0.0,0.0,0.0,0.0,0.0,0.0,0.0,0.0,0.0,0.0,0.0,0.0,0.0,0.0,0.0,0.0,0.0,0.0,0.0,0.0,0.0,0.0,0.0,0.0,0.0,0.0,0.0,0.0,0.0,0.0,0.0,0.0,0.0,0.0,0.0,0.0,0.0,0.0,0.0,0.0,0.0,0.0,0.0,0.0,0.0,0.0,0.0,0.0,0.0,0.0,0.0,0.0,0.0,0.0,0.0,0.0,0.0,0.0,0.0,0.0,0.0,0.0,0.0,0.0,0.0,0.0,0.0,0.0,0.0,0.0,0.0,0.0,0.0,0.0,0.0,0.0,0.0,0.0,0.0,0.0,0.0,0.0,0.0,0.0,0.0,0.0,0.0,0.0,0.0,-7.5709,-7.5709,-7.5709,-7.5709,-7.5709,-7.5709,-7.5709,-7.5709,-7.5709,-7.5709,0.0,0.0,0.0,0.0,0.0,0.0,0.0,0.0,0.0,0.0,0.0,0.0,0.0,0.0,0.0,0.0,0.0,0.0,0.0,0.0,0.0,0.0,0.0,0.0,0.0,0.0,0.0,0.0,0.0,0.0,0.0,0.0,0.0,0.0,0.0,0.0,0.0,0.0,0.0,0.0,0.0,0.0,0.0,0.0,0.0,0.0,0.0,0.0,0.0,0.0,0.0,0.0,0.0,0.0,0.0,0.0,0.0,0.0,0.0,0.0,0.0,0.0,0.0,0.0,0.0,0.0,0.0,0.0,0.0,0.0,0.0,0.0,0.0,0.0,0.0,0.0,0.0,0.0,0.0,0.0,0.0,0.0,0.0,0.0,0.0,0.0,0.0,0.0,0.0,0.0,0.0,0.0,0.0,0.0,0.0,0.0,0.0,0.0,0.0,0.0,0.0,0.0,-7.5709,-7.5709,-7.5709,-7.5709,-7.5709,-7.5709,-7.5709,-7.5709,-7.5709,0.0,0.0,0.0,0.0,0.0,0.0,0.0,0.0,0.0,0.0,0.0,0.0,0.0,0.0,0.0,0.0,0.0,0.0,0.0,0.0,0.0,0.0,0.0,0.0,0.0,0.0,0.0,0.0,0.0,0.0,0.0,0.0,0.0,0.0,0.0,0.0,0.0,0.0,0.0,0.0,0.0,0.0,0.0,0.0,0.0,0.0,0.0,0.0,0.0,0.0,0.0,0.0,0.0,0.0,0.0,0.0,0.0,0.0,0.0,0.0,0.0,0.0,0.0,0.0,0.0,0.0,0.0,0.0,0.0,0.0,0.0,0.0,0.0,0.0,0.0,0.0,0.0,0.0,0.0,0.0,0.0,0.0,0.0,0.0,0.0,0.0,0.0,0.0,0.0,0.0,0.0,0.0,0.0,0.0,0.0,0.0,0.0,0.0,0.0,0.0,0.0,0.0,0.0,-7.5709,-7.5709,-7.5709,-7.5709,-7.5709,-7.5709,-7.5709,-7.5709,-7.5709,-7.5709,0.0,0.0,0.0,0.0,0.0,0.0,0.0,0.0,0.0,0.0,0.0,0.0,0.0,0.0,0.0,0.0,0.0,0.0,0.0,0.0,0.0,0.0,0.0,0.0,0.0,0.0,0.0,0.0,0.0,0.0,0.0,0.0,0.0,0.0,0.0,0.0,0.0,0.0,0.0,0.0,0.0,0.0,0.0,0.0,0.0,0.0,0.0,0.0,0.0,0.0,0.0,0.0,0.0,0.0,0.0,0.0,0.0,0.0,0.0,0.0,0.0,0.0,0.0,0.0,0.0,0.0,0.0,0.0,0.0,0.0,0.0,0.0,0.0,0.0,0.0,0.0,0.0,0.0,0.0,0.0,0.0,0.0,0.0,0.0,0.0,0.0,0.0,0.0,0.0,0.0,0.0,0.0,0.0,0.0,0.0,0.0,0.0,0.0,0.0,0.0,0.0,0.0,-7.5709,-7.5709,-7.5709,-7.5709,-7.5709,-7.5709,-7.5709,-7.5709,-7.5709,-7.5709,0.0,0.0,0.0,0.0,0.0,0.0,0.0,0.0,0.0,0.0,0.0,0.0,0.0,0.0,0.0,0.0,0.0,0.0,0.0,0.0,0.0,0.0,0.0,0.0,0.0,0.0,0.0,0.0,0.0,0.0,0.0,0.0,0.0,0.0,0.0,0.0,0.0,0.0,0.0,0.0,0.0,0.0,0.0,0.0,0.0,0.0,0.0,0.0,0.0,0.0,0.0,0.0,0.0,0.0,0.0,0.0,0.0,0.0,0.0,0.0,0.0,0.0,0.0,0.0,0.0,0.0,0.0,0.0,0.0,0.0,0.0,0.0,0.0,0.0,0.0,0.0,0.0,0.0,0.0,0.0,0.0,0.0,0.0,0.0,0.0,0.0,0.0,0.0,0.0,0.0,0.0,0.0,0.0,0.0,0.0,0.0,0.0,0.0,0.0,0.0,0.0,0.0,-7.5709,-7.5709,-7.5709,-7.5709,-7.5709,-7.5709,-7.5709,-7.5709,-7.5709,-7.5709,0.0,0.0,0.0,0.0,0.0,0.0,0.0,0.0,0.0,0.0,0.0,0.0,0.0,0.0,0.0,0.0,0.0,0.0,0.0,0.0,0.0,0.0,0.0,0.0,0.0,0.0,0.0,0.0,0.0,0.0,0.0,0.0,0.0,0.0,0.0,0.0,0.0,0.0,0.0,0.0,0.0,0.0,0.0,0.0,0.0,0.0,0.0,0.0,0.0,0.0,0.0,0.0,0.0,0.0,0.0,0.0,0.0,0.0,0.0,0.0,-7.5809,-7.6671,0.0,0.0,0.0,0.0,0.0,0.0,0.0,0.0,0.0,0.0,0.0,0.0,0.0,0.0,0.0,0.0,0.0,0.0,0.0,0.0,0.0,0.0,0.0,0.0,0.0,0.0,0.0,0.0,0.0,0.0,0.0,0.0,0.0,0.0,0.0,0.0,0.0,0.0,0.0,0.0,-7.5709,-7.5709,-7.5709,-7.5709,-7.5709,-7.5709,-7.5709,-7.5709,-7.5709,-7.5709,-7.5709,0.0,0.0,0.0,0.0,0.0,0.0,0.0,0.0,0.0,0.0,0.0,0.0,0.0,0.0,0.0,0.0,0.0,0.0,0.0,0.0,0.0,0.0,0.0,0.0,0.0,0.0,0.0,0.0,0.0,0.0,0.0,0.0,0.0,0.0,0.0,0.0,0.0,0.0,0.0,0.0,0.0,0.0,0.0,0.0,0.0,0.0,0.0,0.0,0.0,0.0,0.0,0.0,0.0,0.0,0.0,0.0,0.0,0.0,0.0,-7.5533,-7.6258,0.0,0.0,0.0,0.0,0.0,0.0,0.0,0.0,0.0,0.0,0.0,0.0,0.0,0.0,0.0,0.0,0.0,0.0,0.0,0.0,0.0,0.0,0.0,0.0,0.0,0.0,0.0,0.0,0.0,0.0,0.0,0.0,0.0,0.0,0.0,0.0,0.0,0.0,0.0,0.0,-7.5709,-7.5709,-7.5709,-7.5709,-7.5709,-7.5709,-7.5709,-7.5709,-7.5709,-7.5709,-7.5709,0.0,0.0,0.0,0.0,0.0,0.0,0.0,0.0,0.0,0.0,0.0,0.0,0.0,0.0,0.0,0.0,0.0,0.0,0.0,0.0,0.0,0.0,0.0,0.0,0.0,0.0,0.0,0.0,0.0,0.0,0.0,0.0,0.0,0.0,0.0,0.0,0.0,0.0,0.0,0.0,0.0,0.0,0.0,0.0,0.0,0.0,0.0,0.0,0.0,0.0,0.0,0.0,0.0,-7.2713,-7.2713,-7.2747,-7.3326,-7.3299,-7.2809,-7.4981,-7.5489,-7.5007,-7.6558,0.0,0.0,0.0,0.0,0.0,0.0,0.0,0.0,0.0,0.0,0.0,0.0,0.0,0.0,0.0,0.0,0.0,0.0,0.0,0.0,0.0,0.0,-7.5709,-7.5709,-7.5709,-7.5709,-7.5709,0.0,0.0,0.0,0.0,0.0,0.0,0.0,0.0,0.0,0.0,0.0,-7.5709,-7.5709,-7.5709,-7.5709,-7.5709,-7.5709,-7.5709,-7.5709,-7.5709,-7.5709,-7.5709,-7.5709,0.0,0.0,0.0,0.0,0.0,0.0,0.0,0.0,0.0,0.0,0.0,0.0,0.0,0.0,0.0,0.0,0.0,0.0,0.0,0.0,0.0,0.0,0.0,0.0,0.0,0.0,0.0,0.0,0.0,0.0,0.0,0.0,-6.7965,-6.8083,0.0,0.0,0.0,0.0,0.0,0.0,0.0,0.0,0.0,0.0,0.0,0.0,0.0,-7.2713,-7.2713,-7.2713,-7.2713,-7.2713,-7.2713,-7.2713,-7.2713,-7.2816,-7.2816,-7.2816,-7.4395,0.0,-7.5007,-7.6558,0.0,0.0,0.0,0.0,0.0,0.0,0.0,0.0,0.0,0.0,0.0,0.0,0.0,0.0,0.0,0.0,0.0,0.0,0.0,0.0,0.0,0.0,-7.5709,-7.5709,-7.5709,-7.5709,-7.5709,-7.5709,-7.5709,-7.5709,-7.5709,-7.5709,0.0,0.0,0.0,0.0,0.0,0.0,-7.5709,-7.5709,-7.5709,-7.5709,-7.5709,-7.5709,-7.5709,-7.5709,-7.5709,-7.5709,-7.5709,-7.5709,-7.5709,-7.5709,0.0,0.0,0.0,0.0,0.0,0.0,0.0,0.0,0.0,0.0,0.0,0.0,0.0,0.0,0.0,0.0,0.0,0.0,0.0,0.0,0.0,0.0,0.0,0.0,0.0,0.0,0.0,0.0,0.0,-6.8083,-6.8123,-6.8241,-6.828,-6.8319,0.0,0.0,0.0,0.0,0.0,0.0,0.0,0.0,0.0,-7.1015,-7.2084,-7.2713,-7.2713,-7.2713,-7.2713,-7.2713,-7.2713,-7.2713,-7.2713,-7.2713,-7.2713,-7.2774,-7.4292,-7.4903,-7.5007,-7.6558,-7.7223,-7.7223,0.0,0.0,0.0,0.0,-7.6964,-7.6907,-7.6907,-7.6907,-7.6862,-7.6691,0.0,0.0,0.0,0.0,0.0,0.0,0.0,-7.5947,-7.6088,-7.6041,-7.5899,-7.5899,-7.5805,-7.5709,-7.5709,-7.5709,-7.5709,-7.5709,-7.5709,-7.5709,-7.5709,-7.5709,0.0,0.0,0.0,-7.5709,-7.5709,-7.5709,-7.5709,-7.5709,-7.5709,-7.5709,-7.5709,-7.5709,-7.5709,-7.5709,-7.5709,-7.5709,-7.5709,-7.5709,-7.5709,0.0,0.0,0.0,0.0,0.0,0.0,0.0,0.0,0.0,0.0,0.0,0.0,0.0,0.0,0.0,0.0,0.0,0.0,0.0,0.0,0.0,0.0,0.0,0.0,0.0,0.0,0.0,0.0,-6.8123,-6.8241,-6.8397,-6.8435,-6.8513,0.0,0.0,0.0,0.0,0.0,0.0,-6.8946,-6.9877,-7.0636,-7.1187,-7.2153,-7.2713,-7.2713,-7.2713,-7.2713,-7.2713,-7.2713,-7.2713,-7.2713,-7.2713,-7.2713,-7.2774,-7.4257,-7.4912,-7.505,-7.6568,-7.7223,-7.7223,-7.7223,-7.7223,-7.7223,-7.7223,-7.7223,-7.7223,-7.7223,-7.7223,-7.7178,-7.6964,-7.6873,-7.6748,-7.6599,0.0,0.0,0.0,0.0,-7.6262,-7.6449,-7.6356,-7.6169,-7.6122,-7.5947,-7.5805,-7.5709,-7.5709,-7.5709,-7.5805,-7.5757,-7.5709,-7.5805,-7.5757,0.0,-7.5709,-7.5709,-7.5709,-7.5709,-7.5709,-7.5709,-7.5709,-7.5709,-7.5709,-7.5709,-7.5709,-7.5709,-7.5709,-7.5709,-7.5709,-7.5709,-7.5709,-7.5709,-7.5709,0.0,0.0,0.0,0.0,0.0,0.0,0.0,0.0,0.0,0.0,0.0,0.0,0.0,0.0,0.0,0.0,0.0,0.0,0.0,0.0,0.0,0.0,0.0,0.0,0.0,0.0,0.0,0.0,0.0,-6.8397,-6.859,0.0,0.0,0.0,0.0,-6.8123,-6.828,-6.8314,-6.8152,-6.9566,-7.0394,-7.0429,-7.1953,-7.2713,-7.2713,-7.2713,-7.2713,-7.2713,-7.2713,-7.2713,-7.2713,-7.2713,-7.2713,-7.2774,-7.4257,-7.4878,-7.5016,-7.6568,-7.7223,-7.7223,-7.7223,-7.7223,-7.7223,-7.7223,-7.7223,-7.7223,-7.7223,-7.7223,-7.7223,-7.7178,-7.7009,-7.6793,-7.6793,-7.6645,0.0,0.0,-7.6495,-7.6495,-7.6495,-7.6495,-7.6402,-7.6169,-7.6075,-7.6028,-7.5757,-7.5709,-7.5757,-7.6028,-7.5852,-7.5805,-7.6028,0.0,-7.5709,-7.5709,-7.5709,-7.5709,-7.5709,-7.5709,-7.5709,-7.5709,-7.5709,-7.5709,-7.5709,-7.5709,-7.5709,-7.5709,-7.5709,-7.5709,-7.5709,-7.5709,-7.5709,-7.5709,-7.5709,0.0,0.0,0.0,0.0,0.0,0.0,0.0,0.0,0.0,0.0,0.0,0.0,0.0,0.0,0.0,0.0,0.0,0.0,0.0,0.0,0.0,0.0,0.0,0.0,0.0,0.0,0.0,0.0,-6.8778,-6.8743,0.0,-6.9005,-6.8819,-6.8705,-6.874,-6.8431,-6.8241,-6.828,-6.9612,-7.0394,-7.0394,-7.1877,-7.2713,-7.2713,-7.2713,-7.2713,-7.2713,-7.2713,-7.2713,-7.2713,-7.2713,-7.2713,-7.2774,-7.4257,-7.4912,-7.505,-7.6568,-7.7223,-7.7223,-7.7223,-7.7223,-7.7223,-7.7223,-7.7223,-7.7223,-7.7223,-7.7223,-7.7223,-7.7223,-7.7133,-7.7054,-7.7054,-7.6873,-7.6736,-7.6907,-7.6828,-7.6691,-7.6691,-7.6599,-7.6449,-7.6169,-7.5981,-7.5805,-7.5709,-7.5709,-7.5805,-7.6075,-7.5899,-7.5757,-7.5805,-7.5757,-7.5709,-7.5709,-7.5709,-7.5709,-7.5709,-7.5709,-7.5709,-7.5709,-7.5709,-7.5709,-7.5709,-7.5709,-7.5709,-7.5709,-7.5709,-7.5709,-7.5709,-7.5709,-7.5709,-7.5709,-7.5709,-7.5709,0.0,0.0,0.0,0.0,0.0,0.0,0.0,0.0,0.0,0.0,0.0,0.0,0.0,0.0,0.0,0.0,0.0,0.0,0.0,0.0,0.0,0.0,0.0,0.0,0.0,-6.828,-6.8474,-6.8892,-6.8967,-6.9043,-6.9264,-6.908,-6.8967,-6.8967,-6.8551,-6.8319,-6.8397,-6.9653,-7.0394,-7.0394,-7.1877,-7.2713,-7.2713,-7.2713,-7.2713,-7.2713,-7.2713,-7.2713,-7.2713,-7.2713,-7.2713,-7.2774,-7.4292,-7.4903,-7.5007,-7.6558,-7.7223,-7.7223,-7.7223,-7.7223,-7.7223,-7.7223,-7.7223,-7.7223,-7.7223,-7.7223,-7.7223,-7.7223,-7.7223,-7.7223,-7.7223,-7.7088,-7.6964,-7.7178,-7.7009,-7.6793,-7.6918,-7.6782,-7.6507,-7.6309,-7.6122,-7.5899,-7.5757,-7.5757,-7.5852,-7.5947,-7.5805,-7.5757,-7.5805,-7.5852,-7.5805,-7.5709,-7.5805,-7.5805,-7.5709,-7.5709,-7.5709,-7.5709,-7.5709,-7.5709,-7.5709,-7.5709,-7.5709,-7.5709,-7.5709,-7.5709,-7.5709,-7.5709,-7.5709,-7.5709,-7.5709,-7.5709,-7.5709,0.0,0.0,0.0,0.0,0.0,0.0,0.0,0.0,0.0,0.0,0.0,0.0,0.0,0.0,0.0,0.0,0.0,0.0,0.0,0.0,0.0,0.0,0.0,-6.8123,-6.8435,-6.8705,-6.8705,-6.9118,-6.9302,-6.9115,-6.9264,-6.9192,-6.8743,-6.8705,-6.859,-6.847,-6.9687,-7.0394,-7.0429,-7.1877,-7.2713,-7.2713,-7.2713,-7.2713,-7.2713,-7.2713,-7.2713,-7.2713,-7.2713,-7.2713,-7.2774,-7.4292,-7.4903,-7.5007,-7.6558,-7.7223,-7.7223,-7.7223,-7.7223,-7.7223,-7.7223,-7.7223,-7.7223,-7.7223,-7.7223,-7.7223,-7.7223,-7.7223,-7.7223,-7.7223,-7.7223,-7.7223,-7.7223,-7.7009,-7.6839,-7.7133,-7.7009,-7.6782,-7.6541,-7.6495,-7.6356,-7.5805,-7.5899,-7.6028,-7.5757,-7.5709,-7.5805,-7.6028,-7.6075,-7.6028,-7.5757,-7.5899,0.0,-7.5757,-7.5709,-7.5709,-7.5709,-7.5709,-7.5709,-7.5709,-7.5709,-7.5709,-7.5709,-7.5709,-7.5709,-7.5709,-7.5709,-7.5709,-7.5709,-7.5709,-7.5709,-7.5709,0.0,0.0,0.0,0.0,0.0,0.0,0.0,0.0,0.0,0.0,0.0,0.0,0.0,0.0,0.0,0.0,0.0,0.0,0.0,0.0,0.0,-6.8201,-6.8358,-6.8513,-6.8513,-6.8667,-6.9155,-6.919,-6.9227,-6.9302,-6.9043,-6.9005,-6.9192,-6.859,-6.86,-6.9463,-7.0044,-7.0636,-7.1187,-7.2153,-7.2713,-7.2713,-7.2713,-7.2713,-7.2713,-7.2713,-7.2713,-7.2713,-7.2713,-7.2713,-7.2774,-7.4292,-7.4903,-7.5007,-7.6558,-7.7223,-7.7223,-7.7223,-7.7223,-7.7223,-7.7223,-7.7223,-7.7223,-7.7223,-7.7223,-7.7223,-7.7223,-7.7223,-7.7223,-7.7223,-7.7223,-7.7223,-7.7223,-7.7178,-7.7054,-7.6964,-7.6873,-7.6702,-7.6309,-7.6216,-7.6122,-7.5757,-7.5757,-7.5852,-7.5981,-7.5852,-7.5757,-7.5805,-7.5805,-7.5805,-7.5709,-7.5757,-7.5805,-7.5709,-7.5709,-7.5709,-7.5709,-7.5709,-7.5709,-7.5709,-7.5709,-7.5709,-7.5709,-7.5709,-7.5709,-7.5709,-7.5709,-7.5709,-7.5709,-7.5709,-7.5709,0.0,0.0,0.0,0.0,0.0,0.0,0.0,0.0,0.0,0.0,0.0,0.0,0.0,0.0,0.0,0.0,0.0,0.0,0.0,0.0,0.0,0.0,-6.8201,-6.8358,-6.8667,-6.8701,-6.8816,-6.9227,-6.9227,-6.9264,-6.9376,-6.9155,-6.9118,-6.9376,-6.8854,-6.8933,-6.9853,-7.0623,-7.1156,-7.1505,-7.2596,-7.2977,-7.2713,-7.2713,-7.2713,-7.2713,-7.2713,-7.2713,-7.2713,-7.2713,-7.2713,-7.2774,-7.4292,-7.4903,-7.5007,-7.6558,-7.7223,-7.7223,0.0,0.0,0.0,0.0,-7.7223,-7.7223,-7.7223,-7.7223,-7.7223,-7.7223,-7.7223,-7.7223,-7.7223,-7.7223,-7.7223,-7.7223,-7.7133,-7.7009,-7.6964,-7.6828,-7.6599,-7.6356,-7.6262,-7.6216,-7.5899,-7.6041,-7.6182,-7.6262,-7.6228,0.0,-7.6041,-7.5947,-7.5805,-7.5709,-7.5805,-7.5805,-7.5709,-7.5709,-7.5709,-7.5709,-7.5709,-7.5709,-7.5709,-7.5805,0.0,0.0,0.0,-7.5994,-7.5852,-7.5757,0.0,0.0,0.0,-7.5709,-7.5709,-7.5709,0.0,0.0,-7.5303,-7.5236,0.0,0.0,0.0,0.0,0.0,0.0,0.0,0.0,0.0,0.0,0.0,0.0,0.0,0.0,0.0,0.0,-6.8123,-6.828,-6.8667,-6.893,-6.9115,-6.9115,-6.9302,-6.9412,-6.9412,-6.9376,-6.9376,-6.9412,-6.919,-6.9314,-6.9958,-7.116,0.0,0.0,0.0,-7.3351,-7.2713,-7.2713,-7.2713,-7.2713,-7.2713,-7.2713,-7.2713,-7.2713,-7.2713,-7.2774,-7.4292,-7.4903,-7.5007,-7.6558,-7.7223,-7.7223,-7.7223,-7.7223,-7.7223,-7.7223,-7.7223,-7.7223,-7.7223,0.0,0.0,-7.7223,-7.7223,-7.7223,-7.7223,-7.7223,-7.7223,-7.7223,-7.7009,-7.6918,-7.7133,-7.6907,-7.6587,-7.6541,-7.6541,-7.6449,-7.6216,-7.6461,-7.6736,-7.6587,-7.6645,-7.6736,-7.6587,-7.6309,-7.6075,-7.5852,-7.5994,-7.6075,-7.5805,-7.5805,-7.5805,-7.5805,-7.5805,0.0,-7.5757,-7.5994,-7.6122,-7.6122,-7.6356,-7.6402,-7.6169,-7.5899,-7.5757,-7.5757,-7.5709,-7.5709,-7.5709,-7.5709,-7.5709,-7.5709,-7.5709,-7.5709,0.0,0.0,0.0,0.0,0.0,0.0,0.0,0.0,0.0,0.0,0.0,0.0,0.0,0.0,0.0,-6.8083,-6.8241,-6.8435,-6.8667,-6.893,-6.9153,-6.9339,-6.9376,-6.9412,-6.9412,-6.9264,-6.9227,-6.9376,-6.9005,-6.937,-7.0723,-7.0893,-7.1388,-7.2437,-7.2776,-7.2846,-7.2713,-7.2713,-7.2713,-7.2713,-7.2713,0.0,-7.2713,-7.2713,-7.2713,-7.2774,-7.4292,-7.4903,-7.5007,-7.6558,-7.7223,-7.7223,-7.7223,-7.7223,-7.7223,-7.7223,-7.7223,-7.7223,-7.7223,-7.7223,-7.7223,-7.7223,-7.7223,-7.7223,-7.7223,-7.7223,0.0,-7.7223,-7.7178,-7.7133,-7.7178,-7.7133,-7.7043,-7.6782,-7.6736,-7.6691,-7.6495,-7.6495,-7.6599,-7.6736,-7.6645,-7.6599,-7.6736,-7.6553,-7.6402,-7.6356,-7.6402,-7.6402,-7.6356,-7.6356,-7.6356,-7.6356,-7.6356,-7.6262,-7.6075,-7.6262,-7.6309,-7.6122,-7.6356,-7.6495,-7.6402,-7.6169,-7.6028,-7.6028,-7.5805,-7.5709,-7.5709,-7.5709,-7.5709,-7.5709,-7.5709,-7.5709,0.0,0.0,0.0,0.0,0.0,0.0,0.0,0.0,0.0,0.0,0.0,-6.8083,-6.8083,0.0,-6.8083,-6.8083,-6.8162,-6.8358,-6.8667,-6.8816,-6.9005,-6.9376,-6.9412,-6.9412,-6.9412,-6.9302,-6.9264,-6.9264,-6.9354,-7.0053,-7.1364,-7.1707,-7.2285,-7.3195,-7.3229,-7.306,-7.2713,-7.2713,-7.2713,-7.2713,-7.2713,-7.2713,-7.2713,-7.2713,-7.292,-7.3291,-7.443,-7.511,-7.5558,-7.674,-7.7223,-7.7223,-7.7223,-7.7223,-7.7223,-7.7223,-7.7223,-7.7223,-7.7223,-7.7223,-7.7223,-7.7223,-7.7223,-7.7223,-7.7223,-7.7223,-7.7223,-7.7223,-7.7223,-7.7223,-7.7223,-7.7099,-7.6964,-7.6839,-7.6793,-7.6748,-7.6691,-7.6771,-7.6907,-7.6964,-7.6953,-7.6907,-7.6964,-7.6953,-7.6771,-7.6541,-7.6495,-7.6495,-7.6495,-7.6495,-7.6495,-7.6495,-7.6495,-7.6449,-7.6309,-7.6541,-7.6645,-7.6679,-7.6645,-7.6645,-7.6645,-7.6449,-7.6309,-7.6309,-7.6075,-7.5899,-7.5899,-7.5757,-7.5709,-7.5709,-7.5709,-7.5709,0.0,0.0,0.0,0.0,0.0,0.0,0.0,-6.4934,-6.621,-6.6381,-6.7168,-6.7885,-6.8044,-6.8083,-6.8083,-6.8083,-6.8221,-6.8483,-6.891,-6.9014,-6.9272,-6.9795,-6.9551,-6.9412,-6.9412,-6.9412,-6.9372,-6.9325,-6.9847,-7.0696,-7.1804,-7.2437,-7.2988,-7.3562,-7.3597,-7.3311,-7.2713,-7.2713,-7.2713,-7.2713,-7.2713,-7.2713,-7.2713,-7.2713,-7.3084,-7.3843,-7.4774,-7.5558,-7.6361,-7.6937,-7.7223,-7.7223,-7.7223,-7.7223,-7.7223,-7.7223,-7.7223,-7.7223,-7.7223,-7.7223,-7.7223,-7.7223,-7.7223,-7.7223,-7.7223,-7.7223,-7.7223,-7.7223,-7.7223,-7.7223,-7.7223,-7.7054,-7.6873,-7.6873,-7.6873,-7.6873,-7.6873,-7.7054,-7.7223,-7.7223,-7.7223,-7.7223,-7.7223,-7.7223,-7.7088,-7.6679,-7.6633,-7.6633,-7.6633,-7.6633,-7.6633,-7.6633,-7.6633,-7.6633,-7.6633,-7.6736,-7.6918,-7.7178,-7.7009,-7.6839,-7.6793,-7.6599,-7.6495,-7.6402,-7.6216,-7.6075,-7.6028,-7.5852,-7.5757,-7.5709,-7.5709,-7.5709,-6.0201,-6.134,-6.2396,-6.2396,-6.2464,-6.2562,0.0,-6.342,-6.4466,-6.5293,-6.621,-6.7127,-6.7965,-6.8083,-6.8083,-6.8083,-6.8704,-6.9312,-6.971,-7.0184,-7.0719,-7.1371,-7.0218,-6.9412,-6.9412,-6.9412,-6.9582,-7.0021,-7.0161,-7.0671,-7.1746,-7.1879,-7.2214,-7.2804,-7.2804,-7.2797,-7.2713,-7.2713,-7.2713,-7.2713,-7.2713,-7.2713,-7.2713,-7.2713,-7.3084,-7.3878,-7.5361,-7.6395,-7.7075,-7.7189,-7.7223,-7.7223,-7.7223,-7.7223,-7.7223,-7.7223,-7.7223,-7.7223,-7.7223,-7.7223,-7.7223,-7.7223,-7.7223,-7.7223,-7.7223,-7.7223,-7.7223,-7.7223,-7.7223,-7.7223,-7.7223,-7.7178,-7.7178,-7.7178,-7.7178,-7.7178,-7.7178,-7.7178,-7.7223,-7.7223,-7.7223,-7.7223,-7.7223,-7.7223,-7.7178,-7.7133,-7.7133,-7.7133,-7.7133,-7.7133,-7.7133,-7.7133,-7.7133,-7.7133,-7.7133,-7.6918,-7.6918,-7.7178,-7.7178,-7.7054,-7.6793,-7.6599,-7.6402,-7.6169,-7.6122,-7.5981,-7.5757,-7.5947,-7.5899,-7.5709,-7.5709,-7.5709,-6.126,-6.1972,-6.2396,-6.2396,-6.2396,-6.2396,-6.2396,-6.3164,-6.4175,-6.5114,-6.6038,-6.7139,-6.851,-6.8773,-6.8946,-6.936,-6.9704,-7.0073,-7.0471,-7.063,-7.0958,-7.1616,-7.0982,-7.0558,-7.0745,-7.0745,-7.0775,-7.086,-7.159,-7.2158,-7.2481,-7.2818,-7.3083,-7.3351,-7.2929,-7.2713,-7.2713,-7.2713,-7.2713,-7.2713,-7.2713,-7.2713,-7.2705,-7.3119,-7.3981,-7.5188,-7.6292,-7.6947,-7.7223,-7.7223,-7.7223,-7.7223,-7.7223,-7.7223,-7.7223,-7.7223,-7.7223,-7.7223,-7.7223,-7.7223,-7.7223,-7.7223,-7.7223,-7.7223,-7.7223,-7.7223,-7.7223,-7.7223,-7.7223,-7.7223,-7.7223,-7.7223,-7.7223,-7.7223,-7.7223,-7.7223,-7.7223,-7.7223,-7.7223,-7.7223,-7.7223,-7.7223,-7.7223,-7.7223,-7.7223,-7.7223,-7.7223,-7.7223,-7.7223,-7.7223,-7.7223,-7.7223,-7.7223,-7.7223,-7.7223,-7.7099,-7.7054,-7.7178,-7.7223,-7.7178,-7.7054,-7.6782,-7.6645,-7.6507,-7.6262,-7.6075,-7.5899,-7.6075,-7.5947,-7.5709,-7.5852,-7.5852,-6.2049,-6.2396,-6.2396,-6.2396,-6.2396,-6.2396,-6.2396,-6.3164,-6.4175,-6.5114,-6.6206,-6.7479,-6.9032,-6.9463,-6.9773,-7.0291,-7.0567,-7.0827,-7.1191,-7.1244,-7.1503,-7.217,-7.2018,-7.2057,-7.2594,-7.2244,-7.1955,-7.19,-7.2738,-7.3164,-7.2949,-7.3277,-7.3477,-7.3477,-7.3012,-7.2713,-7.2713,-7.2713,-7.2713,-7.2713,-7.2713,-7.2713,-7.2747,-7.3671,-7.4843,-7.6154,-7.6913,-7.7223,-7.7223,-7.7223,-7.7223,-7.7223,-7.7223,-7.7223,-7.7223,-7.7223,-7.7223,-7.7223,-7.7223,-7.7223,-7.7223,-7.7223,-7.7223,-7.7223,-7.7223,-7.7223,-7.7223,-7.7223,-7.7223,-7.7223,-7.7223,-7.7223,-7.7223,-7.7223,-7.7223,-7.7223,-7.7223,-7.7223,-7.7223,-7.7223,-7.7223,-7.7223,-7.7223,-7.7223,-7.7223,-7.7223,-7.7223,-7.7223,-7.7223,-7.7223,-7.7223,-7.7223,-7.7223,-7.7223,-7.7223,-7.7223,-7.7223,-7.7223,-7.7223,-7.7178,-7.7054,-7.6918,-7.6748,-7.6736,-7.6368,-7.6169,-7.6122,-7.6169,-7.6041,-7.5805,-7.6028,-7.6028,-6.2225,-6.2396,-6.2396,-6.2396,-6.2396,-6.2396,-6.2396,-6.3164,-6.4175,-6.5114,-6.6651,-6.809,-6.9135,-6.9877,-7.036,-7.0394,-7.0981,-7.1546,-7.1827,-7.232,-7.2894,-7.3582,-7.3386,-7.3677,-7.4864,-7.3619,-7.2798,-7.3106,-7.3177,-7.3034,-7.2728,-7.2755,-7.2713,-7.2713,-7.2713,-7.2713,-7.2713,-7.2713,-7.2713,-7.2713,-7.2713,-7.2713,-7.2782,-7.4223,-7.5317,-7.6154,-7.6913,-7.7223,-7.7223,-7.7223,-7.7223,-7.7223,-7.7223,-7.7223,-7.7223,-7.7223,-7.7223,-7.7223,-7.7223,-7.7223,-7.7223,-7.7223,-7.7223,-7.7223,-7.7223,-7.7223,-7.7223,-7.7223,-7.7223,-7.7223,-7.7223,-7.7223,-7.7223,-7.7223,-7.7223,-7.7223,-7.7223,-7.7223,-7.7223,-7.7223,-7.7223,-7.7223,-7.7223,-7.7223,-7.7223,-7.7223,-7.7223,-7.7223,-7.7223,-7.7223,-7.7223,-7.7223,-7.7223,-7.7223,-7.7223,-7.7223,-7.7223,-7.7223,-7.7223,-7.7054,-7.6793,-7.6793,-7.6736,-7.6495,-7.6495,-7.6356,-7.6122,-7.6356,-7.6356,-7.6075,-7.6122,-7.6122,-6.2256,-6.2396,-6.2396,-6.2396,-6.2396,-6.2396,-6.2396,-6.3164,-6.4175,-6.5114,-6.6608,-6.826,-6.9714,-7.0636,-7.1291,-7.1808,-7.2119,-7.2375,-7.2583,-7.2666,-7.2922,-7.3652,-7.3456,-7.3747,-7.4972,-7.4175,-7.3739,-7.4141,-7.4582,-7.4504,-7.3747,-7.403,-7.3991,-7.3472,-7.297,-7.2713,-7.2713,-7.2713,-7.2713,-7.2713,-7.3188,-7.3671,-7.4188,-7.5257,-7.612,-7.6878,-7.712,-7.7223,-7.7223,-7.7223,-7.7223,-7.7223,-7.7223,-7.7223,-7.7223,-7.7223,-7.7223,-7.7223,-7.7223,-7.7223,-7.7223,-7.7223,-7.7223,-7.7223,-7.7223,-7.7223,-7.7223,-7.7223,-7.7223,-7.7223,-7.7223,-7.7223,-7.7223,-7.7223,-7.7223,-7.7223,-7.7223,-7.7223,-7.7223,-7.7223,-7.7223,-7.7223,-7.7223,-7.7223,-7.7223,-7.7223,-7.7223,-7.7223,-7.7223,-7.7223,-7.7223,-7.7223,-7.7223,-7.7223,-7.7223,-7.7223,-7.7223,-7.7223,-7.7223,-7.7178,-7.7054,-7.6918,-7.6748,-7.6691,-7.6587,-7.6449,-7.6356,-7.6599,-7.6507,-7.6122,-7.6262,-7.6169,-6.227,-6.2396,-6.2396,-6.2396,-6.2396,-6.2396,-6.2396,-6.342,-6.4623,-6.549,-6.7315,-6.9149,-7.0554,-7.1394,-7.2084,-7.2644,-7.2713,-7.2755,-7.288,-7.2797,-7.2922,-7.3496,-7.3662,-7.4181,-7.5335,-7.4972,-7.475,-7.501,-7.5583,-7.5512,-7.4527,-7.479,-7.479,-7.4264,-7.3512,-7.3101,-7.3101,-7.2804,-7.2713,-7.2713,-7.3429,-7.4188,-7.4903,-7.5696,-7.6533,-7.7223,-7.7223,-7.7223,-7.7223,-7.7223,-7.7223,-7.7223,-7.7223,-7.7223,-7.7223,-7.7223,-7.7223,-7.7223,-7.7223,-7.7223,-7.7223,-7.7223,-7.7223,-7.7223,-7.7223,-7.7223,-7.7223,-7.7223,-7.7223,-7.7223,-7.7223,-7.7223,-7.7223,-7.7223,-7.7223,-7.7223,-7.7223,-7.7223,-7.7223,-7.7223,-7.7223,-7.7223,-7.7223,-7.7223,-7.7223,-7.7223,-7.7223,-7.7223,-7.7223,-7.7223,-7.7223,-7.7223,-7.7223,-7.7223,-7.7223,-7.7223,-7.7223,-7.7223,-7.7223,-7.7223,-7.7223,-7.7009,-7.6964,-7.6964,-7.6736,-7.6587,-7.6495,-7.6691,-7.6599,-7.6262,-7.6461,-7.6414,-6.2396,-6.2396,-6.2396,-6.2396,-6.2396,-6.2396,-6.2396,-6.3941,-6.5525,-6.6266,-6.8565,-7.067,-7.136,-7.2153,-7.2713,-7.2713,-7.2713,-7.2713,-7.2713,-7.2713,-7.288,-7.3299,-7.3952,-7.4828,-7.5995,-7.5995,-7.5861,-7.5688,-7.6097,-7.6029,-7.5119,-7.5083,-7.5047,-7.501,-7.4226,-7.376,-7.3721,-7.306,-7.2747,-7.2782,-7.3498,-7.4257,-7.4972,-7.5809,-7.6568,-7.7223,-7.7223,-7.7223,-7.7223,-7.7223,-7.7223,-7.7223,-7.7223,-7.7223,-7.7223,-7.7223,-7.7223,-7.7223,-7.7223,-7.7223,-7.7223,-7.7223,-7.7223,-7.7223,-7.7223,-7.7223,-7.7223,-7.7223,-7.7223,-7.7223,-7.7223,-7.7223,-7.7223,-7.7223,-7.7223,-7.7223,-7.7223,-7.7223,-7.7223,-7.7223,-7.7223,-7.7223,-7.7223,-7.7223,-7.7223,-7.7223,-7.7223,-7.7223,-7.7223,-7.7223,-7.7223,-7.7223,-7.7223,-7.7223,-7.7223,-7.7223,-7.7223,-7.7223,-7.7223,-7.7223,-7.7223,-7.7223,-7.7223,-7.7223,-7.6964,-7.6736,-7.6541,-7.6736,-7.6736,-7.6541,-7.6736,-7.6793,-6.2396,-6.2396,-6.2396,-6.2396,-6.2396,-6.2396,-6.2396,-6.4297,-6.6199,-6.6365,-6.8972,-7.1256,-7.1463,-7.2153,-7.2713,-7.2713,-7.2713,-7.2713,-7.2713,-7.2713,-7.3053,-7.403,-7.4184,-7.4752,-7.5995,-7.6233,-7.637,-7.6399,-7.6469,-7.6303,-7.5895,-7.5895,-7.5618,-7.501,-7.4226,-7.3517,-7.3012,-7.2797,-7.2989,-7.3498,-7.4292,-7.505,-7.5844,-7.6602,-7.7051,-7.7223,-7.7223,-7.7223,-7.7223,-7.7223,-7.7223,-7.7223,-7.7223,-7.7223,-7.7223,-7.7223,-7.7223,-7.7223,-7.7223,-7.7223,-7.7223,-7.7223,-7.7223,-7.7223,-7.7223,-7.7223,-7.7223,-7.7223,-7.7223,-7.7223,-7.7223,-7.7223,-7.7223,-7.7223,-7.7223,-7.7223,-7.7223,-7.7223,-7.7223,-7.7223,-7.7223,-7.7223,-7.7223,-7.7223,-7.7223,-7.7223,-7.7223,-7.7223,-7.7223,-7.7223,-7.7223,-7.7223,-7.7223,-7.7223,-7.7223,-7.7223,-7.7223,-7.7223,-7.7223,-7.7223,-7.7223,-7.7223,-7.7223,-7.7223,-7.7133,-7.7088,-7.7043,-7.7088,-7.6964,-7.6736,-7.6748,-7.6736,-6.2396,-6.2396,-6.2513,-6.2922,-6.3068,-6.3228,-6.3997,-6.5646,-6.7223,-6.7859,-6.9884,-7.1601,-7.1946,-7.2395,-7.2713,-7.2713,-7.2713,-7.2713,-7.2713,-7.2713,-7.3101,-7.4264,-7.4567,-7.5156,-7.6461,-7.6824,-7.7019,-7.7175,-7.6988,-7.6797,-7.67,-7.67,-7.6469,-7.6032,-7.5263,-7.4302,-7.3189,-7.3192,-7.336,-7.3809,-7.4912,-7.5671,-7.6154,-7.6878,-7.7223,-7.7223,-7.7223,-7.7223,-7.7223,-7.7223,-7.7223,-7.7223,-7.7223,-7.7223,-7.7223,-7.7223,-7.7223,-7.7223,-7.7223,-7.7223,-7.7223,-7.7223,-7.7223,-7.7223,-7.7223,-7.7223,-7.7223,-7.7223,-7.7223,-7.7223,-7.7223,-7.7223,-7.7223,-7.7223,-7.7223,-7.7223,-7.7223,-7.7223,-7.7223,-7.7223,-7.7223,-7.7223,-7.7223,-7.7223,-7.7223,-7.7223,-7.7223,-7.7223,-7.7223,-7.7223,-7.7223,-7.7223,-7.7223,-7.7223,-7.7223,-7.7223,-7.7223,-7.7223,-7.7223,-7.7223,-7.7223,-7.7223,-7.7223,-7.7223,-7.7223,-7.7133,-7.7009,-7.7133,-7.7054,-7.6793,-7.6918,-7.6873,-6.2759,-6.2776,-6.2971,-6.3894,-6.4081,-6.4477,-6.6052,-6.7211,-6.8378,-6.9766,-7.0943,-7.1843,-7.2567,-7.2713,-7.2713,-7.2713,-7.2713,-7.2713,-7.2713,-7.2797,-7.3264,-7.4343,-7.4975,-7.5855,-7.7163,-7.7457,-7.7614,-7.7762,-7.7457,-7.7273,-7.7273,-7.7273,-7.7212,-7.6988,-7.627,-7.5155,-7.3677,-7.374,-7.3843,-7.3947,-7.543,-7.6154,-7.6292,-7.6913,-7.7223,-7.7223,-7.7223,-7.7223,-7.7223,-7.7223,-7.7223,-7.7223,-7.7223,-7.7223,-7.7223,-7.7223,-7.7223,-7.7223,-7.7223,-7.7223,-7.7223,-7.7223,-7.7223,-7.7223,-7.7223,-7.7223,-7.7223,-7.7223,-7.7223,-7.7223,-7.7223,-7.7223,-7.7223,-7.7223,-7.7223,-7.7223,-7.7223,-7.7223,-7.7223,-7.7223,-7.7223,-7.7223,-7.7223,-7.7223,-7.7223,-7.7223,-7.7223,-7.7223,-7.7223,-7.7223,-7.7223,-7.7223,-7.7223,-7.7223,-7.7223,-7.7223,-7.7223,-7.7223,-7.7223,-7.7223,-7.7223,-7.7223,-7.7223,-7.7223,-7.7223,-7.7088,-7.6839,-7.7088,-7.7054,-7.6839,-7.7054,-7.7054,-6.4604,-6.4799,-6.4844,-6.4979,-6.5024,-6.5312,-6.6187,-6.7657,-6.9021,-6.9945,-7.1354,-7.2498,-7.2636,-7.2713,-7.2713,-7.2713,-7.2713,-7.2713,-7.2713,-7.3189,-7.3994,-7.4975,-7.5616,-7.6465,-7.7607,-7.7487,-7.7433,-7.7614,-7.7433,-7.7273,-7.7273,-7.7273,-7.6696,-7.5441,-7.4606,-7.3795,-7.2887,-7.348,-7.4119,-7.474,-7.5671,-7.643,-7.7016,-7.7154,-7.7223,-7.7223,-7.7223,-7.7223,-7.7223,-7.7223,-7.7223,-7.7223,-7.7223,-7.7223,-7.7223,-7.7223,-7.7223,-7.7223,-7.7223,-7.7223,-7.7223,-7.7223,-7.7223,-7.7223,-7.7223,-7.7223,-7.7223,-7.7223,-7.7223,-7.7223,-7.7223,-7.7223,-7.7223,-7.7223,-7.7223,-7.7223,-7.7223,-7.7223,-7.7223,-7.7223,-7.7223,-7.7223,-7.7223,-7.7223,-7.7223,-7.7223,-7.7223,-7.7223,-7.7223,-7.7223,-7.7223,-7.7223,-7.7223,-7.7223,-7.7223,-7.7223,-7.7223,-7.7223,-7.7223,-7.7223,-7.7223,-7.7223,-7.7223,-7.7223,-7.7223,-7.7178,-7.7133,-7.7178,-7.7178,-7.7133,-7.7178,-7.7054,-6.5159,-6.5293,-6.5426,-6.5908,-6.6038,-6.647,-6.8132,-6.9135,-7.0088,-7.1217,-7.2141,-7.2713,-7.2713,-7.2713,-7.2713,-7.2713,-7.2713,-7.2804,-7.3189,-7.3597,-7.4305,-7.5649,-7.6065,-7.6599,-7.7695,-7.7487,-7.7402,-7.7554,-7.7433,-7.7273,-7.7273,-7.7273,-7.6797,-7.5653,-7.5263,-7.4704,-7.3897,-7.4628,-7.5177,-7.5524,-7.6326,-7.6878,-7.7223,-7.7223,-7.7223,-7.7223,-7.7223,-7.7223,-7.7223,-7.7223,-7.7223,-7.7223,-7.7223,-7.7223,-7.7223,-7.7223,-7.7223,-7.7223,-7.7223,-7.7223,-7.7223,-7.7223,-7.7223,-7.7223,-7.7223,-7.7223,-7.7223,-7.7223,-7.7223,-7.7223,-7.7223,-7.7223,-7.7223,-7.7223,-7.7223,-7.7223,-7.7223,-7.7223,-7.7223,-7.7223,-7.7223,-7.7223,-7.7223,-7.7223,-7.7223,-7.7223,-7.7223,-7.7223,-7.7223,-7.7223,-7.7223,-7.7223,-7.7223,-7.7223,-7.7223,-7.7223,-7.7223,-7.7223,-7.7223,-7.7223,-7.7223,-7.7223,-7.7223,-7.7223,-7.7223,-7.7223,-7.7223,-7.7223,-7.7223,-7.7223,-7.7223,-7.7054,-6.5865,-6.5908,-6.6081,-6.6837,-6.7139,-6.7823,-6.9927,-7.0498,-7.1015,-7.2437,-7.2713,-7.2713,-7.2713,-7.2713,-7.2713,-7.2713,-7.2713,-7.297,-7.3716,-7.3956,-7.4643,-7.6164,-7.6403,-7.6797,-7.7607,-7.7426,-7.7372,-7.7524,-7.7402,-7.7273,-7.7273,-7.7273,-7.6956,-7.6236,-7.5998,-7.5621,-7.4993,-7.5563,-7.5944,-7.612,-7.6878,-7.7223,-7.7223,-7.7223,-7.7223,-7.7223,-7.7223,-7.7223,-7.7223,-7.7223,-7.7223,-7.7223,-7.7223,-7.7223,-7.7223,-7.7411,-7.7456,-7.7456,-7.7456,-7.7456,-7.7456,-7.7268,-7.7223,-7.7223,-7.7223,-7.7223,-7.7223,-7.7223,-7.7223,-7.7223,-7.7223,-7.7223,-7.7223,-7.7223,-7.7223,-7.7223,-7.7223,-7.7223,-7.7223,-7.7223,-7.7223,-7.7223,-7.7223,-7.7223,-7.7223,-7.7223,-7.7223,-7.7223,-7.7223,-7.7223,-7.7223,-7.7223,-7.7223,-7.7223,-7.7223,-7.7223,-7.7223,-7.7223,-7.7223,-7.7223,-7.7223,-7.7223,-7.7223,-7.7223,-7.7223,-7.7223,-7.7223,-7.7223,-7.7223,-7.7223,-7.7223,-7.7054,-6.761,-6.7845,-6.7885,-6.7965,-6.8515,-6.9279,-7.0187,-7.0912,-7.1636,-7.2498,-7.2713,-7.2713,-7.2713,-7.2713,-7.2713,-7.2713,-7.2713,-7.297,-7.3716,-7.4454,-7.5227,-7.6135,-7.6797,-7.7243,-7.7372,-7.7304,-7.7341,-7.7341,-7.7341,-7.7273,-7.7273,-7.7273,-7.6956,-7.6236,-7.5477,-7.507,-7.4993,-7.5011,-7.537,-7.612,-7.6878,-7.7223,-7.7223,-7.7223,-7.7223,-7.7223,-7.7223,-7.7223,-7.7223,-7.7223,-7.7223,-7.7223,-7.7223,-7.7223,-7.7313,-7.8116,-7.8378,-7.8378,-7.8378,-7.8378,-7.8252,-7.7456,-7.7223,-7.7223,-7.7223,-7.7223,-7.7223,-7.7223,-7.7223,-7.7223,-7.7223,-7.7223,-7.7223,-7.7223,-7.7223,-7.7223,-7.7223,-7.7223,-7.7223,-7.7223,-7.7223,-7.7223,-7.7223,-7.7223,-7.7223,-7.7223,-7.7223,-7.7223,-7.7223,-7.7223,-7.7223,-7.7223,-7.7223,-7.7223,-7.7223,-7.7223,-7.7223,-7.7223,-7.7223,-7.7223,-7.7223,-7.7223,-7.7223,-7.7223,-7.7223,-7.7223,-7.7223,-7.7223,-7.7223,-7.7223,-7.7223,-7.7054,-6.8004,-6.8083,-6.8221,-6.8704,-6.9049,-6.9601,-7.0774,-7.1291,-7.1705,-7.2498,-7.2713,-7.2713,-7.2713,-7.2713,-7.288,-7.327,-7.3351,-7.3795,-7.5083,-7.5512,-7.5998,-7.6765,-7.7118,-7.7273,-7.7273,-7.7273,-7.7273,-7.7273,-7.7273,-7.7273,-7.7273,-7.7273,-7.6956,-7.6236,-7.633,-7.6155,-7.5695,-7.6133,-7.6469,-7.6775,-7.7085,-7.7223,-7.7223,-7.7223,-7.7223,-7.7223,-7.7223,-7.7223,-7.7268,-7.7772,-7.7988,-7.8031,-7.851,-7.8682,-7.8723,-7.9089,-7.921,-7.921,-7.921,-7.8922,-7.842,-7.8116,-7.7632,-7.7223,-7.7223,-7.7223,-7.7223,-7.7223,-7.7223,-7.7223,-7.7223,-7.7223,-7.7223,-7.7223,-7.7223,-7.7223,-7.7223,-7.7223,-7.7223,-7.7223,-7.7223,-7.7223,-7.7223,-7.7223,-7.7223,-7.7223,-7.7223,-7.7223,-7.7223,-7.7223,-7.7223,-7.7223,-7.7223,-7.7223,-7.7223,-7.7223,-7.7223,-7.7223,-7.7223,-7.7223,-7.7223,-7.7223,-7.7223,-7.7223,-7.7223,-7.7223,-7.7223,-7.7223,-7.7223,-7.7223,-7.7223,-7.7133,-6.8083,-6.8256,-6.8566,-6.9153,-6.9601,-7.0222,-7.1256,-7.167,-7.2015,-7.2609,-7.2713,-7.2713,-7.2713,-7.2713,-7.2929,-7.3681,-7.3799,-7.4378,-7.5963,-7.6203,-7.6469,-7.7212,-7.7273,-7.7273,-7.7273,-7.7273,-7.7273,-7.7273,-7.7273,-7.7273,-7.7273,-7.7273,-7.7087,-7.6534,-7.6791,-7.6766,-7.6477,-7.6795,-7.7007,-7.7223,-7.7223,-7.7223,-7.7223,-7.7223,-7.7223,-7.7223,-7.7456,-7.7411,-7.7313,-7.842,-7.8718,-7.8587,-7.9408,-7.9721,-7.976,-7.9954,-8.003,-8.003,-8.003,-7.9682,-7.917,-7.8922,-7.8427,-7.7867,-7.7641,-7.7411,-7.7223,-7.7223,-7.7223,-7.7223,-7.7223,-7.7223,-7.7223,-7.7223,-7.7223,-7.7223,-7.7223,-7.7223,-7.7223,-7.7223,-7.7223,-7.7223,-7.7223,-7.7223,-7.7223,-7.7223,-7.7223,-7.7223,-7.7223,-7.7223,-7.7223,-7.7223,-7.7223,-7.7223,-7.7223,-7.7223,-7.7223,-7.7223,-7.7223,-7.7223,-7.7223,-7.7223,-7.7223,-7.7223,-7.7223,-7.7223,-7.7223,-7.7223,-7.7223,-7.7223,-7.7223,-7.7223,-6.8083,-6.867,-6.9296,-6.9291,-7.0394,-7.1463,-7.1498,-7.2119,-7.2713,-7.2713,-7.2713,-7.2713,-7.2713,-7.2713,-7.2929,-7.3681,-7.3799,-7.4378,-7.5963,-7.6203,-7.6469,-7.7212,-7.7273,-7.7273,-7.7273,-7.7273,-7.7273,-7.7273,-7.7273,-7.7273,-7.7273,-7.7273,-7.731,-7.7273,-7.6513,-7.6508,-7.729,-7.6538,-7.6499,-7.7223,-7.7223,-7.7223,-7.7223,-7.7223,-7.7223,-7.7268,-7.8116,-7.7988,-7.7323,-7.9009,-7.921,-7.8587,-7.9408,-7.9721,-7.9798,-8.0587,-8.0911,-8.0911,-8.0911,-8.0875,-8.0768,-7.9952,-7.9682,-7.9526,-7.8718,-7.7858,-7.7223,-7.7223,-7.7223,-7.7223,-7.7223,-7.7223,-7.7223,-7.7223,-7.7223,-7.7223,-7.7223,-7.7223,-7.7223,-7.7223,-7.7223,-7.7223,-7.7223,-7.7223,-7.7223,-7.7223,-7.7223,-7.7223,-7.7223,-7.7223,-7.7223,-7.7223,-7.7223,-7.7223,-7.7223,-7.7223,-7.7223,-7.7223,-7.7223,-7.7223,-7.7223,-7.7223,-7.7223,-7.7223,-7.7223,-7.7223,-7.7223,-7.7223,-7.7223,-7.7223,-7.7223,-7.7223,-6.8083,-6.867,-6.9394,-6.9911,-7.0774,-7.1636,-7.2188,-7.2498,-7.2713,-7.2713,-7.2713,-7.2713,-7.2713,-7.2713,-7.2929,-7.3681,-7.4264,-7.501,-7.6068,-7.6636,-7.7056,-7.7243,-7.7273,-7.7273,-7.7273,-7.7273,-7.7273,-7.7273,-7.7273,-7.7273,-7.7273,-7.7273,-7.7273,-7.7273,-7.7053,-7.7041,-7.729,-7.6984,-7.6982,-7.7223,-7.7223,-7.7223,-7.7223,-7.7223,-7.7223,-7.7268,-7.8116,-7.8336,-7.8209,-7.9839,-8.0366,-8.0218,-8.1054,-8.1405,-8.1439,-8.1681,-8.1782,-8.1782,-8.1782,-8.1405,-8.0875,-8.0587,-8.0143,-7.9565,-7.8718,-7.8294,-7.7988,-7.7367,-7.7223,-7.7223,-7.7223,-7.7223,-7.7223,-7.7223,-7.7223,-7.7223,-7.7223,-7.7223,-7.7223,-7.7223,-7.7223,-7.7223,-7.7223,-7.7223,-7.7223,-7.7223,-7.7223,-7.7223,-7.7223,-7.7223,-7.7223,-7.7223,-7.7223,-7.7223,-7.7223,-7.7223,-7.7223,-7.7223,-7.7223,-7.7223,-7.7223,-7.7223,-7.7223,-7.7223,-7.7223,-7.7223,-7.7223,-7.7223,-7.7223,-7.7223,-7.7223,-7.7223,-6.8635,-6.9118,-6.9877,-7.0636,-7.1394,-7.205,-7.2609,-7.2713,-7.2713,-7.2713,-7.2713,-7.2713,-7.2713,-7.2713,-7.3053,-7.4072,-7.4679,-7.537,-7.6469,-7.7024,-7.7273,-7.7273,-7.7273,-7.7273,-7.7273,-7.7273,-7.7273,-7.7273,-7.7273,-7.7273,-7.7273,-7.7056,-7.6861,-7.6861,-7.7128,-7.7034,-7.6444,-7.664,-7.6592,-7.6317,-7.6671,-7.6809,-7.6809,-7.7085,-7.7223,-7.7268,-7.8427,-7.8759,0.0,-8.0586,-8.1195,-8.0982,-8.1885,-8.2186,-8.2186,-8.2186,-8.2186,-8.2186,-8.2186,-8.1815,-8.1368,-8.1368,-8.0623,-7.9604,-7.9089,-7.851,-7.7902,-7.7323,-7.7223,-7.7223,-7.7223,-7.7223,-7.7223,-7.7223,-7.7223,-7.7223,-7.7223,-7.7223,-7.7223,-7.7223,-7.7223,-7.7223,-7.7223,-7.7223,-7.7223,-7.7223,-7.7223,-7.7223,-7.7223,-7.7223,-7.7223,-7.7223,-7.7223,-7.7223,-7.7223,-7.7223,-7.7223,-7.7223,-7.7223,-7.7223,-7.7223,-7.7223,-7.7223,-7.7223,-7.7223,-7.7223,-7.7223,-7.7223,-7.7223,-7.7223,-7.7223,-7.7223,0.0,-6.9946,-7.0636,-7.1325,-7.2084,-7.2713,-7.2713,-7.2713,0.0,-7.2713,-7.2713,-7.2713,-7.2713,-7.2713,-7.3183,-7.4679,-7.4974,-7.5512,-7.6988,-7.7243,-7.7273,-7.7273,-7.7273,-7.7273,-7.7273,-7.7273,-7.7273,-7.7273,-7.7273,-7.7273,-7.7273,-7.6603,-7.6169,-7.6135,-7.6804,-7.6444,-7.5028,-7.5655,-7.5671,-7.4903,-7.5671,-7.6016,-7.6051,-7.674,-7.7051,-7.714,-7.8862,-7.9218,-7.8688,-8.116,-8.1715,-8.1053,-8.1885,-8.2186,-8.2186,-8.2186,-8.2186,-8.2186,-8.2186,-8.2186,-8.2186,-8.2186,-8.1089,-7.9762,-7.9721,-7.8552,-7.7223,-7.7223,-7.7223,-7.7223,-7.7223,-7.7223,-7.7223,-7.7223,-7.7223,-7.7223,-7.7223,-7.7223,-7.7223,-7.7223,-7.7223,-7.7223,-7.7223,-7.7223,-7.7223,-7.7223,-7.7223,-7.7223,-7.7223,-7.7223,-7.7223,-7.7223,-7.7223,-7.7223,-7.7223,-7.7223,-7.7223,-7.7223,-7.7223,-7.7223,-7.7223,-7.7223,-7.7223,-7.7223,-7.7223,-7.7223,-7.7223,-7.7223,-7.7223,-7.7223,-7.7223,-7.7223,-7.0877,0.0,-7.1256,-7.1463,-7.2084,-7.2713,0.0,-7.2713,-7.2713,-7.2713,-7.2713,-7.2713,-7.2713,-7.2713,-7.3012,-7.3917,-7.4604,-7.5335,-7.6336,-7.6925,-7.7273,-7.7273,-7.7273,-7.7273,-7.7273,-7.7273,-7.7273,-7.7273,-7.7273,-7.7273,-7.7273,-7.6603,-7.5895,-7.5299,-7.5449,-7.5367,-7.4993,-7.5134,-7.5076,-7.4903,-7.5076,-7.5179,-7.5179,-7.5352,-7.542,-7.5586,-7.7877,-7.8752,-7.8785,-8.1221,-8.2088,-8.1919,-8.2121,-8.2186,-8.2186,-8.2186,-8.2186,-8.2186,-8.2186,-8.2186,-8.2186,-8.2186,-8.1474,-8.0477,-7.9878,-7.8552,-7.7223,-7.7223,-7.7223,-7.7223,-7.7223,-7.7223,-7.7223,-7.7223,-7.7223,-7.7223,-7.7223,-7.7223,-7.7223,-7.7223,-7.7223,-7.7223,-7.7223,-7.7223,-7.7223,-7.7223,-7.7223,-7.7223,-7.7223,-7.7223,-7.7223,-7.7223,-7.7223,-7.7223,-7.7223,-7.7223,-7.7223,-7.7223,-7.7223,-7.7223,-7.7223,-7.7223,-7.7223,-7.7223,-7.7223,-7.7223,-7.7223,-7.7223,-7.7223,-7.7223,-7.7223,-7.7223,-7.1912,-7.1774,-7.1567,-7.1946,-7.236,-7.2713,-7.2713,-7.2713,-7.2713,-7.2713,-7.2713,-7.2713,-7.2713,-7.2713,-7.2929,-7.3681,-7.4492,-7.5406,-7.6534,-7.7056,-7.7273,-7.7273,-7.7273,-7.7273,-7.7273,-7.7273,-7.7273,-7.7273,-7.6993,-7.6797,-7.6797,-7.5721,-7.4901,-7.4456,-7.4137,-7.3973,-7.3973,-7.4272,-7.4223,-7.3912,-7.4223,-7.4395,-7.443,-7.4731,-7.4903,-7.499,-7.673,-7.7702,-7.8193,-8.0253,-8.1337,-8.1672,-8.2039,-8.2186,-8.2186,-8.2186,-8.2186,-8.2186,-8.2186,-8.2186,-8.2186,-8.2186,-8.161,-8.0768,-7.9916,-7.8841,-7.7685,-7.7313,-7.7223,-7.7223,-7.7223,-7.7223,-7.7223,-7.7223,-7.7223,-7.7223,-7.7223,-7.7223,-7.7223,-7.7223,-7.7223,-7.7223,-7.7223,-7.7223,-7.7223,-7.7223,-7.7223,-7.7223,-7.7223,-7.7223,-7.7223,-7.7223,-7.7223,-7.7223,-7.7223,-7.7223,-7.7223,-7.7223,-7.7223,-7.7223,-7.7223,-7.7223,-7.7223,-7.7223,-7.7223,-7.7223,-7.7223,-7.7223,-7.7223,-7.7223,-7.7223,-7.7223,-7.2713,-7.2188,-7.1843,-7.254,-7.2713,-7.2713,-7.2713,-7.2713,-7.2713,-7.2713,-7.2713,-7.2713,-7.2713,-7.2713,-7.2929,-7.3681,-7.4604,-7.5686,-7.7118,-7.7273,-7.7273,-7.7273,-7.7273,-7.7273,-7.7273,-7.7273,-7.7243,-7.715,-7.657,-7.6135,-7.5998,-7.4604,-7.3799,-7.3799,-7.306,-7.2713,-7.2713,-7.3291,-7.3291,-7.2713,-7.3326,-7.3602,-7.3636,-7.4292,-7.4524,-7.4645,-7.5609,-7.6494,-7.7334,-7.8927,-8.0165,-8.1085,-8.1746,-8.2076,-8.2186,-8.2186,-8.2186,-8.2186,-8.2186,-8.2186,-8.2186,-8.2186,-8.1715,-8.0911,-7.9954,-7.921,-7.8504,-7.75,-7.7223,-7.7223,-7.7223,-7.7223,-7.7223,-7.7223,-7.7223,-7.7223,-7.7223,-7.7223,-7.7223,-7.7223,-7.7223,-7.7223,-7.7223,-7.7223,-7.7223,-7.7223,-7.7223,-7.7223,-7.7223,-7.7223,-7.7223,-7.7223,-7.7223,-7.7223,-7.7223,-7.7223,-7.7223,-7.7223,-7.7223,-7.7223,-7.7223,-7.7223,-7.7223,-7.7223,-7.7223,-7.7223,-7.7223,-7.7223,-7.7223,-7.7223,-7.7223,-7.7223,-7.2713,-7.2644,-7.2575,-7.2678,-7.2713,-7.2713,-7.2713,-7.2713,-7.2713,-7.2713,-7.2713,-7.2713,-7.2713,-7.2713,-7.2929,-7.3681,-7.5047,-7.6303,-7.7181,-7.7273,-7.7273,-7.7273,-7.7273,-7.7273,-7.7273,-7.7273,-7.7056,-7.6403,-7.627,-7.5895,-7.5227,-7.4302,-7.3799,-7.3799,-7.306,-7.2713,-7.2713,-7.2816,-7.2816,-7.2713,-7.2816,-7.2885,-7.2885,-7.2981,-7.3015,-7.3135,-7.4636,-7.5681,-7.6513,-7.8133,-7.9655,-8.1012,-8.1158,-8.1599,-8.2186,-8.2186,-8.2186,-8.2186,-8.2186,-8.2186,-8.2186,-8.2186,-8.2121,-8.1715,-8.0179,-7.9643,-7.921,-7.7641,-7.7223,-7.7223,-7.7223,-7.7223,-7.7223,-7.7223,-7.7223,-7.7223,-7.7223,-7.7223,-7.7223,-7.7223,-7.7223,-7.7223,-7.7223,-7.7223,-7.7223,-7.7223,-7.7223,-7.7223,-7.7223,-7.7223,-7.7223,-7.7223,-7.7223,-7.7223,-7.7223,-7.7223,-7.7223,-7.7223,-7.7223,-7.7223,-7.7223,-7.7223,-7.7223,-7.7223,-7.7223,-7.7223,-7.7223,-7.7223,-7.7223,-7.7223,-7.7223,-7.7223,-7.2713,-7.2713,-7.2713,-7.2713,-7.2713,-7.2713,-7.2713,-7.2713,-7.2713,-7.2713,-7.2713,-7.2713,-7.2713,-7.2713,-7.306,-7.4264,-7.5083,-7.5963,-7.715,-7.7273,-7.7273,-7.7273,-7.7273,-7.7273,-7.7273,-7.7273,-7.6988,-7.6236,-7.5792,-7.5192,-7.4381,-7.3597,-7.3223,-7.3223,-7.2887,-7.2713,-7.2713,-7.2713,-7.2713,-7.2713,-7.2713,-7.2887,-7.327,-7.327,-7.3552,-7.3952,-7.4691,-7.5508,-7.6264,-7.7476,-7.8635,-7.98,-8.0681,-8.1232,-8.1599,-8.2039,-8.2186,-8.2186,-8.2186,-8.2186,-8.2186,-8.2186,-8.2186,-8.1885,-8.0216,-7.9721,-7.9369,-7.7685,-7.7223,-7.7223,-7.7223,-7.7223,-7.7223,-7.7223,-7.7223,-7.7223,-7.7223,-7.7223,-7.7223,-7.7223,-7.7223,-7.7223,-7.7223,-7.7223,-7.7223,-7.7223,-7.7223,-7.7223,-7.7223,-7.7223,-7.7223,-7.7223,-7.7223,-7.7223,-7.7223,-7.7223,-7.7223,-7.7223,-7.7223,-7.7223,-7.7223,-7.7223,-7.7223,-7.7223,-7.7223,-7.7223,-7.7223,-7.7223,-7.7223,-7.7223,-7.7223,-7.7223,-7.2713,-7.2713,-7.2713,-7.2713,-7.2713,-7.2713,-7.2713,-7.2713,-7.2713,-7.2713,-7.2713,-7.2713,-7.2713,-7.2846,-7.3392,-7.479,-7.5155,-7.5721,-7.7118,-7.7273,-7.7273,-7.7273,-7.7273,-7.7212,-7.7056,-7.7056,-7.6632,-7.5722,-7.5083,-7.4378,-7.3597,-7.3012,-7.2713,-7.2713,-7.2713,-7.2713,-7.2713,-7.2713,-7.2713,-7.2713,-7.2713,-7.3101,-7.3799,-7.3799,-7.4264,-7.501,-7.501,-7.5441,-7.6239,-7.6855,-7.7688,-7.8736,-7.9947,-8.0681,-8.1085,-8.1672,-8.2039,-8.2186,-8.2186,-8.2186,-8.2186,-8.2186,-8.2186,-8.1919,-8.0439,-7.9954,-7.9647,-7.8174,-7.7815,-7.7685,-7.7278,-7.7223,-7.7223,-7.7223,-7.7223,-7.7223,-7.7223,-7.7223,-7.7223,-7.7223,-7.7223,-7.7223,-7.7223,-7.7223,-7.7223,-7.7223,-7.7223,-7.7223,-7.7223,-7.7223,-7.7223,-7.7223,-7.7223,-7.7223,-7.7223,-7.7223,-7.7223,-7.7223,-7.7223,-7.7223,-7.7223,-7.7223,-7.7223,-7.7223,-7.7223,-7.7223,-7.7223,-7.7223,-7.712,-7.6947,-7.6947,-7.6878,-7.2713,-7.2713,-7.2713,-7.2713,-7.2713,-7.2713,-7.2713,-7.2713,-7.2713,-7.2713,-7.2713,-7.2713,-7.2713,-7.3229,-7.3994,-7.4864,-7.5653,-7.6403,-7.7181,-7.7273,-7.7273,-7.7273,-7.7273,-7.7056,-7.6336,-7.627,-7.5653,-7.4111,-7.3917,-7.3557,-7.2838,-7.2713,-7.2713,-7.2713,-7.2713,-7.2713,-7.2713,-7.2713,-7.2713,-7.2713,-7.2713,-7.3101,-7.3799,-7.3799,-7.4264,-7.501,-7.501,-7.5441,-7.6203,-7.6275,-7.7214,-7.8589,-7.8736,-7.969,-8.1012,-8.1085,-8.1562,-8.2186,-8.2186,-8.2186,-8.2186,-8.2186,-8.2186,-8.2018,-8.1124,-8.084,-8.0623,-7.9762,-7.9526,-7.917,-7.7597,-7.7223,-7.7223,-7.7223,-7.7223,-7.7223,-7.7223,-7.7223,-7.7223,-7.7223,-7.7223,-7.7223,-7.7223,-7.7223,-7.7223,-7.7223,-7.7223,-7.7223,-7.7223,-7.7223,-7.7223,-7.7223,-7.7223,-7.7223,-7.7223,-7.7223,-7.7223,-7.7223,-7.7223,-7.7223,-7.7223,-7.7223,-7.7223,-7.7223,-7.7223,-7.7223,-7.7223,-7.7223,-7.6878,-7.6189,-7.6189,-7.5809,-7.2713,-7.2713,-7.2713,-7.2713,-7.2713,-7.2713,-7.2713,-7.2713,-7.2713,-7.2713,-7.2713,-7.2713,-7.2713,-7.2929,-7.3552,-7.479,-7.5263,-7.5895,-7.7118,-7.7273,-7.7273,-7.7273,-7.6893,-7.67,-7.6861,-7.6032,-7.5192,-7.4604,-7.4072,-7.3477,-7.2755,-7.2713,-7.2713,-7.2713,-7.2713,-7.2713,-7.2713,-7.2713,-7.2713,-7.2713,-7.2713,-7.3386,-7.4567,-7.4567,-7.5263,-7.6436,-7.6436,-7.6599,-7.6861,-7.6861,-7.7239,-7.7855,-7.8405,-7.9286,-8.0314,-8.0828,-8.1195,-8.1525,-8.2039,-8.2186,-8.2186,-8.2186,-8.2186,-8.2018,-8.116,-8.0911,-8.0732,-7.9916,-7.9721,-7.9448,-7.8294,-7.8031,-7.7858,-7.7357,-7.7223,-7.7223,-7.7223,-7.7223,-7.7223,-7.7223,-7.7223,-7.7223,-7.7223,-7.7223,-7.7223,-7.7223,-7.7223,-7.7223,-7.7223,-7.7223,-7.7223,-7.7223,-7.7223,-7.7223,-7.7223,-7.7223,-7.7223,-7.7223,-7.7223,-7.7223,-7.7223,-7.7223,-7.7223,-7.7223,-7.6775,-7.6533,-7.6533,-7.6006,-7.5627,-7.5317,-7.5317,-7.5448,-7.2713,-7.2713,-7.2713,-7.2713,-7.2713,-7.2713,-7.2713,-7.2713,-7.2713,-7.2713,-7.2713,-7.2713,-7.2713,-7.3094,-7.3756,-7.4827,-7.5406,-7.6032,-7.6829,-7.715,-7.7212,-7.6993,-7.6501,-7.6303,-7.6567,-7.5406,-7.4529,-7.4264,-7.3756,-7.3229,-7.2713,-7.2713,-7.2713,-7.2713,-7.2713,-7.2713,-7.2713,-7.2713,-7.2713,-7.2713,-7.2929,-7.3716,-7.501,-7.501,-7.5825,-7.7273,-7.7273,-7.7273,-7.7273,-7.7273,-7.7273,-7.7347,-7.7965,-7.8699,-7.947,-8.0057,-8.0571,-8.1085,-8.1636,-8.2003,-8.2186,-8.2186,-8.2186,-8.2088,-8.1508,-8.1299,-8.1195,-8.0623,-8.0476,-8.0291,-7.9487,-7.8882,-7.8252,-7.7411,-7.7223,-7.7223,-7.7223,-7.7223,-7.7223,-7.7223,-7.7223,-7.7223,-7.7223,-7.7223,-7.7223,-7.7223,-7.7223,-7.7223,-7.7223,-7.7223,-7.7223,-7.7223,-7.7016,-7.6878,-7.6878,-7.6637,-7.6455,-7.6455,-7.6729,-7.6833,-7.6844,-7.6592,-7.6455,-7.6455,-7.6016,-7.5872,-7.6063,-7.5319,-7.5033,-7.5269,-7.5011,-7.5247,-7.2713,-7.2713,-7.2713,-7.2713,-7.2713,-7.2713,-7.2713,-7.2713,-7.2713,-7.2713,-7.2713,-7.2713,-7.2713,-7.3952,-7.4974,-7.501,-7.6267,-7.7024,-7.6303,-7.6829,-7.7024,-7.627,-7.6169,-7.5861,-7.5083,-7.4264,-7.3477,-7.2755,-7.2713,-7.2713,-7.2713,-7.2713,-7.2713,-7.2713,-7.2713,-7.2713,-7.2713,-7.2713,-7.2713,-7.2713,-7.3437,-7.4226,-7.501,-7.501,-7.5825,-7.7273,-7.7273,-7.7273,-7.7273,-7.7273,-7.7273,-7.7273,-7.7273,-7.7855,-7.8589,-7.8589,-7.9617,-8.0975,-8.1012,-8.1525,-8.2186,-8.2186,-8.2186,-8.2186,-8.2186,-8.2186,-8.2186,-8.2186,-8.2186,-8.1985,-8.1124,-7.9721,-7.8294,-7.7411,-7.7223,-7.7223,-7.7223,-7.7223,-7.7223,-7.7223,-7.7223,-7.7223,-7.7223,-7.7223,-7.7223,-7.7223,-7.7178,-7.7223,-7.7189,-7.7189,-7.7189,-7.7189,-7.6533,-7.6085,-7.6085,-7.5395,-7.4912,-7.4912,-7.5659,-7.6091,-7.6095,-7.5361,-7.4912,-7.4912,-7.4912,-7.5273,-7.6076,-7.5273,-7.5282,-7.6043,-7.5352,-7.5006,-7.2713,-7.2713,-7.2713,-7.2713,-7.2713,-7.2713,-7.2713,-7.2713,-7.2713,-7.2713,-7.2713,-7.2713,-7.2713,-7.306,-7.3751,-7.4827,-7.4902,-7.5156,-7.6102,-7.5895,-7.5582,-7.537,-7.4864,-7.4642,-7.4974,-7.3795,-7.3142,-7.3437,-7.3012,-7.2713,-7.2713,-7.2713,-7.2713,-7.2713,-7.2713,-7.2713,-7.2713,-7.2713,-7.297,-7.3477,-7.3716,-7.4226,-7.501,-7.5618,-7.637,-7.7273,-7.7273,-7.7273,-7.7273,-7.7273,-7.7273,-7.7273,-7.7273,-7.7457,-7.7781,-7.8369,-7.8883,-7.9396,-7.9947,-8.0681,-8.1379,-8.1379,-8.1746,-8.2186,-8.2186,-8.2186,-8.2186,-8.2186,-8.2186,-8.1885,-8.0439,-7.9721,-7.913,-7.8294,-7.7676,-7.7223,-7.7223,-7.7223,-7.7223,-7.7223,-7.7223,-7.7223,-7.7223,-7.7223,-7.7223,-7.7223,-7.6775,-7.6258,-7.5627,-7.5558,-7.5786,-7.6357,-7.6231,-7.6339,-7.6905,-7.6698,-7.6596,-7.6596,-7.6299,-7.6101,-7.6133,-7.6418,-7.6596,-7.6596,-7.6031,-7.5864,-7.6095,-7.5334,-7.5097,-7.5295,-7.5109,-7.5297,-7.2713,-7.2713,-7.2713,-7.2713,-7.2713,-7.2713,-7.2713,-7.2713,-7.2713,-7.2713,-7.2713,-7.2713,-7.2713,-7.2929,-7.3432,-7.4378,-7.4381,-7.4529,-7.5155,-7.5119,-7.4901,-7.4567,-7.4111,-7.3994,-7.4492,-7.3392,-7.2887,-7.3351,-7.297,-7.2713,-7.2713,-7.2713,-7.2713,-7.2713,-7.2713,-7.2713,-7.2713,-7.3012,-7.3351,-7.3799,-7.4454,-7.501,-7.5477,-7.5963,-7.6603,-7.7273,-7.7273,-7.7273,-7.7273,-7.7273,-7.7273,-7.7273,-7.7273,-7.7273,-7.7347,-7.7892,-7.8295,-7.8662,-7.914,-7.9837,-8.0534,-8.0534,-8.0828,-8.1305,-8.1636,-8.1709,-8.1782,-8.2113,-8.2186,-8.1879,-8.0549,-7.9749,-7.9056,-7.8182,-7.7588,-7.7223,-7.7223,-7.7223,-7.712,-7.6844,-7.6775,-7.6671,-7.6317,-7.6282,-7.6282,-7.6282,-7.5903,-7.5464,-7.4938,-7.518,-7.5568,-7.607,-7.6116,-7.6296,-7.6754,-7.6579,-7.6401,-7.6401,-7.623,-7.6158,-7.614,-7.6326,-7.6401,-7.6401,-7.5901,-7.5798,-7.6159,-7.537,-7.5335,-7.5893,-7.5617,-7.5895,-7.2713,-7.2713,-7.2713,-7.2713,-7.2713,-7.2713,-7.2713,-7.2713,-7.2713,-7.2713,-7.2713,-7.2713,-7.2713,-7.3311,-7.3799,-7.3799,-7.4416,-7.4642,-7.3917,-7.4378,-7.4529,-7.376,-7.3681,-7.3681,-7.3681,-7.3101,-7.2713,-7.2713,-7.2713,-7.2713,-7.2713,-7.2713,-7.2713,-7.2713,-7.2713,-7.2713,-7.2713,-7.3397,-7.3838,-7.3917,-7.5441,-7.6236,-7.6303,-7.6303,-7.6668,-7.7273,-7.7273,-7.7273,-7.7273,-7.7273,-7.7273,-7.7273,-7.7273,-7.7273,-7.7273,-7.7273,-7.7818,-7.8479,-7.8479,-7.8993,-7.969,-7.969,-7.9727,-7.991,-8.0681,-8.0901,-8.1048,-8.1782,-8.1966,-8.1787,-8.0886,-7.9609,-7.8264,-7.725,-7.7016,-7.7016,-7.7016,-7.7016,-7.6809,-7.6154,-7.6016,-7.5775,-7.5007,-7.4903,-7.4869,-7.48,-7.4852,-7.4861,-7.4792,-7.5491,-7.6027,-7.6107,-7.6098,-7.6156,-7.6192,-7.5585,-7.5227,-7.5227,-7.5895,-7.6303,-7.6303,-7.5582,-7.5227,-7.5227,-7.5227,-7.5547,-7.6303,-7.5547,-7.5927,-7.7273,-7.6636,-7.6668,-7.2713,-7.2713,-7.2713,-7.2713,-7.2713,-7.2713,-7.2713,-7.2713,-7.2713,-7.2713,-7.2713,-7.2713,-7.2713,-7.3311,-7.3799,-7.3799,-7.3956,-7.3994,-7.3838,-7.3472,-7.3101,-7.297,-7.2929,-7.2929,-7.2929,-7.2797,-7.2713,-7.2713,-7.2713,-7.2713,-7.2713,-7.2713,-7.2713,-7.2713,-7.2713,-7.2713,-7.2713,-7.3397,-7.4111,-7.4753,-7.5722,-7.6501,-7.7087,-7.7087,-7.715,-7.7273,-7.7273,-7.7273,-7.7273,-7.7273,-7.7273,-7.7273,-7.7273,-7.7273,-7.7273,-7.7273,-7.742,-7.7567,-7.7567,-7.8148,-7.8846,-7.8846,-7.9286,-7.98,-7.9984,-8.0057,-8.0094,-8.0241,-8.0314,-8.0015,-7.853,-7.795,-7.7305,-7.5759,-7.5386,-7.5386,-7.5386,-7.5386,-7.5317,-7.5179,-7.5145,-7.5076,-7.4903,-7.4903,-7.4705,-7.4119,-7.4573,-7.4746,-7.4117,-7.472,-7.5473,-7.6121,-7.6187,-7.6386,-7.6984,-7.6902,-7.6829,-7.6829,-7.6956,-7.7087,-7.7087,-7.6893,-7.6829,-7.6829,-7.6829,-7.6893,-7.7087,-7.6893,-7.6956,-7.731,-7.715,-7.715,-7.2713,-7.2713,-7.2713,-7.2713,-7.2713,-7.2713,-7.2713,-7.2713,-7.2713,-7.2713,-7.2713,-7.2713,-7.2713,-7.2977,-7.327,-7.327,-7.327,-7.327,-7.327,-7.2929,-7.2713,-7.2713,-7.2713,-7.2713,-7.2713,-7.2713,-7.2713,-7.2713,-7.2713,-7.2713,-7.2713,-7.2713,-7.2713,-7.2713,-7.2713,-7.2846,-7.3189,-7.3994,-7.479,-7.5582,-7.637,-7.6925,-7.7273,-7.7273,-7.7273,-7.7273,-7.7273,-7.7273,-7.7273,-7.7273,-7.7273,-7.7273,-7.7273,-7.7273,-7.7273,-7.7273,-7.7273,-7.7273,-7.7273,-7.7598,-7.8002,-7.8002,-7.8259,-7.8699,-7.9103,-7.9213,-7.9286,-7.969,-7.98,-7.9494,-7.8293,-7.7416,-7.65,-7.5218,-7.4921,-7.4903,-7.4903,-7.4903,-7.4766,-7.4464,-7.4361,-7.4257,-7.3912,-7.4148,-7.4232,-7.385,-7.4471,-7.4838,-7.4414,-7.5083,-7.5722,-7.6169,-7.6538,-7.6861,-7.7243,-7.7273,-7.7273,-7.7273,-7.7273,-7.7273,-7.7273,-7.7273,-7.7273,-7.7273,-7.7273,-7.7273,-7.7273,-7.7273,-7.7273,-7.7273,-7.7273,-7.7273,-7.2713,-7.2713,-7.2713,-7.2713,-7.2713,-7.2713,-7.2713,-7.2713,-7.2713,-7.2713,-7.2713,-7.2713,-7.2713,-7.2804,-7.2846,-7.2713,-7.2838,-7.288,-7.2713,-7.2713,-7.2713,-7.2713,-7.2713,-7.2713,-7.2713,-7.2713,-7.2713,-7.2713,-7.2713,-7.2713,-7.2713,-7.2713,-7.2713,-7.2713,-7.2804,-7.3183,-7.3799,-7.4753,-7.5512,-7.6203,-7.6925,-7.7273,-7.7273,-7.7273,-7.7273,-7.7273,-7.7273,-7.7273,-7.7273,-7.7273,-7.7273,-7.7273,-7.7273,-7.7273,-7.7273,-7.7273,-7.7273,-7.7273,-7.7273,-7.7273,-7.7273,-7.7273,-7.7273,-7.742,-7.8148,-7.8369,-7.8516,-7.9176,-7.936,-7.9181,-7.839,-7.7076,-7.5796,-7.497,-7.4778,-7.4671,-7.4533,-7.449,-7.4361,-7.3705,-7.3695,-7.3656,-7.3198,-7.3597,-7.3994,-7.3994,-7.4716,-7.5192,-7.5192,-7.5895,-7.637,-7.637,-7.6925,-7.7273,-7.7273,-7.7273,-7.7273,-7.7273,-7.7273,-7.7273,-7.7273,-7.7273,-7.7273,-7.7273,-7.7273,-7.7273,-7.7273,-7.7273,-7.7273,-7.7273,-7.7273,-7.7273,-7.2713,-7.2713,-7.2713,-7.2713,-7.2713,-7.2713,-7.2713,-7.2713,-7.2713,-7.2713,-7.2713,-7.2713,-7.2713,-7.3189,-7.3437,-7.2804,-7.3229,-7.3397,-7.2797,-7.2713,-7.2713,-7.2713,-7.2713,-7.2713,-7.2713,-7.2713,-7.2713,-7.2713,-7.2713,-7.2713,-7.2713,-7.2713,-7.2713,-7.2713,-7.3311,-7.3681,-7.3799,-7.5299,-7.6102,-7.6203,-7.6925,-7.7273,-7.7273,-7.7273,-7.7273,-7.7273,-7.7273,-7.7273,-7.7273,-7.7273,-7.7273,-7.7273,-7.7273,-7.7273,-7.7273,-7.7273,-7.7273,-7.7273,-7.7273,-7.7273,-7.7273,-7.7273,-7.7273,-7.731,-7.742,-7.7457,-7.7494,-7.7604,-7.7604,-7.7443,-7.6719,-7.5832,-7.4934,-7.4149,-7.3975,-7.3792,-7.3115,-7.2981,-7.2946,-7.2885,-7.3363,-7.4018,-7.4567,-7.479,-7.4864,-7.4864,-7.5512,-7.6068,-7.6068,-7.67,-7.715,-7.715,-7.7243,-7.7273,-7.7273,-7.7273,-7.7273,-7.7273,-7.7273,-7.7273,-7.7273,-7.7273,-7.7273,-7.7273,-7.7273,-7.7273,-7.7273,-7.7273,-7.7273,-7.7273,-7.7273,-7.7273,-7.2713,-7.2713,-7.2713,-7.2713,-7.2713,-7.2713,-7.2713,-7.2713,-7.2713,-7.2713,-7.2713,-7.2713,-7.2713,-7.297,-7.306,-7.2755,-7.297,-7.306,-7.2755,-7.2713,-7.2713,-7.2713,-7.2713,-7.2713,-7.2713,-7.2713,-7.2713,-7.2713,-7.2713,-7.2713,-7.2713,-7.2713,-7.2887,-7.3311,-7.3637,-7.4226,-7.5155,-7.5826,-7.6403,-7.6829,-7.715,-7.7273,-7.7273,-7.7273,-7.7273,-7.7273,-7.7273,-7.7273,-7.7273,-7.7273,-7.7273,-7.7273,-7.7273,-7.7273,-7.7273,-7.7273,-7.7273,-7.7273,-7.7273,-7.7273,-7.7273,-7.7273,-7.7273,-7.7273,-7.7273,-7.7273,-7.7273,-7.7273,-7.7273,-7.7212,-7.6893,-7.627,-7.5583,-7.5227,-7.4827,-7.4378,-7.4068,-7.3991,-7.3991,-7.3991,-7.4226,-7.4569,-7.4937,-7.537,-7.5688,-7.5688,-7.6336,-7.6829,-7.6829,-7.7118,-7.7273,-7.7273,-7.7273,-7.7273,-7.7273,-7.7273,-7.7273,-7.7273,-7.7273,-7.7273,-7.7273,-7.7273,-7.7273,-7.7273,-7.7273,-7.7273,-7.7273,-7.7273,-7.7273,-7.7273,-7.7273,-7.7273,-7.2713,-7.2713,-7.2713,-7.2713,-7.2713,-7.2713,-7.2713,-7.2713,-7.2713,-7.2713,-7.2713,-7.2713,-7.2713,-7.2713,-7.2713,-7.2713,-7.2713,-7.2713,-7.2713,-7.2713,-7.2713,-7.2713,-7.2713,-7.2713,-7.2713,-7.2713,-7.2713,-7.2713,-7.2713,-7.2713,-7.2713,-7.2713,-7.3018,-7.376,-7.3994,-7.479,-7.6203,-7.637,-7.6765,-7.7273,-7.7273,-7.7273,-7.7273,-7.7273,-7.7273,-7.7273,-7.7273,-7.742,-7.7635,-7.7635,-7.7635,-7.7635,-7.7635,-7.7494,-7.7273,-7.7273,-7.7273,-7.7273,-7.7273,-7.7273,-7.7273,-7.7273,-7.7273,-7.7273,-7.7273,-7.7273,-7.7273,-7.7273,-7.7273,-7.7273,-7.7273,-7.6765,-7.6203,-7.6203,-7.5757,-7.5263,-7.5047,-7.501,-7.5083,-7.5263,-7.5299,-7.537,-7.5547,-7.6065,-7.6469,-7.6469,-7.6925,-7.7273,-7.7273,-7.7273,-7.7273,-7.7273,-7.7273,-7.7273,-7.7273,-7.7273,-7.7273,-7.7273,-7.7273,-7.7273,-7.7273,-7.7273,-7.7273,-7.7273,-7.7273,-7.7273,-7.7273,-7.7273,-7.7273,-7.7273,-7.7273,-7.7273,-7.2713,-7.2713,-7.2713,-7.2713,-7.2713,-7.2713,-7.2713,-7.2713,-7.2713,-7.2713,-7.2713,-7.2713,-7.2713,-7.2713,-7.2713,-7.2713,-7.2713,-7.2713,-7.2713,-7.2713,-7.2713,-7.2713,-7.2713,-7.2713,-7.2713,-7.2713,-7.2713,-7.2713,-7.2713,-7.2713,-7.2713,-7.2713,-7.3018,-7.376,-7.4567,-7.5335,-7.6203,-7.6893,-7.7243,-7.7273,-7.7273,-7.7273,-7.7273,-7.7273,-7.7273,-7.7273,-7.7273,-7.7781,-7.8516,-7.8516,-7.8516,-7.8516,-7.8516,-7.8038,-7.7273,-7.7273,-7.7273,-7.7273,-7.7273,-7.7273,-7.7273,-7.7273,-7.7273,-7.7273,-7.7273,-7.7273,-7.7273,-7.7273,-7.7273,-7.7273,-7.7273,-7.6765,-7.6203,-7.6203,-7.6169,-7.5929,-7.5155,-7.501,-7.5227,-7.6,-7.6135,-7.637,-7.7087,-7.7212,-7.7243,-7.7243,-7.7273,-7.7273,-7.7273,-7.7273,-7.7273,-7.7273,-7.7273,-7.7273,-7.7273,-7.7273,-7.7273,-7.7273,-7.7273,-7.7273,-7.7273,-7.7273,-7.7273,-7.7273,-7.7273,-7.7273,-7.7273,-7.7273,-7.7273,-7.7273,-7.7273,-7.7273,-7.2713,-7.2713,-7.2713,-7.2713,-7.2713,-7.2713,-7.2713,-7.2713,-7.2713,-7.2713,-7.2713,-7.2713,-7.2713,-7.2713,-7.2713,-7.2713,-7.2713,-7.2713,-7.2713,-7.2713,-7.2713,-7.2713,-7.2713,-7.2713,-7.2713,-7.2713,-7.2713,-7.2713,-7.2713,-7.2713,-7.2713,-7.2713,-7.3264,-7.4529,-7.4864,-7.5617,-7.6893,-7.7181,-7.7273,-7.7273,-7.7273,-7.7273,-7.7273,-7.7273,-7.7273,-7.7273,-7.7273,-7.7818,-7.8589,-7.8589,-7.8883,-7.936,-7.936,-7.8846,-7.8148,-7.8148,-7.7781,-7.7273,-7.7273,-7.7273,-7.7273,-7.7273,-7.7273,-7.7273,-7.7273,-7.7273,-7.7273,-7.7273,-7.7273,-7.7273,-7.7273,-7.7118,-7.6893,-7.6893,-7.6893,-7.6829,-7.6534,-7.6099,-7.5998,-7.6765,-7.6893,-7.6956,-7.7243,-7.7273,-7.7273,-7.7273,-7.7273,-7.7273,-7.7273,-7.7273,-7.7273,-7.7273,-7.7273,-7.7273,-7.7273,-7.7273,-7.7273,-7.7273,-7.7273,-7.7273,-7.7273,-7.7273,-7.7273,-7.7273,-7.7273,-7.7273,-7.7273,-7.7273,-7.7273,-7.7273,-7.7273,-7.7273,-7.2713,-7.2713,-7.2713,-7.2713,-7.2713,-7.2713,-7.2713,-7.2713,-7.2713,-7.2713,-7.2713,-7.2713,-7.2713,-7.2713,-7.2713,-7.2713,-7.2713,-7.2713,-7.2713,-7.2713,-7.2713,-7.2713,-7.2713,-7.2713,-7.2713,-7.2713,-7.2713,-7.2713,-7.2713,-7.2713,-7.2713,-7.2929,-7.3795,-7.5335,-7.5652,-7.6267,-7.7273,-7.7273,-7.7273,-7.7273,-7.7273,-7.7273,-7.7273,-7.7273,-7.7273,-7.731,-7.7604,-7.8222,-7.8993,-7.8993,-7.947,-8.0204,-8.0204,-7.969,-7.8956,-7.8699,-7.8222,-7.7708,-7.7384,-7.7273,-7.7273,-7.7273,-7.7273,-7.7273,-7.7273,-7.7273,-7.7273,-7.7273,-7.7273,-7.7273,-7.7273,-7.7273,-7.7273,-7.7273,-7.7273,-7.7273,-7.7273,-7.6893,-7.6733,-7.7212,-7.7273,-7.7273,-7.7273,-7.7273,-7.7273,-7.7273,-7.7273,-7.7273,-7.7273,-7.7273,-7.7273,-7.7273,-7.7273,-7.7273,-7.7273,-7.7273,-7.7273,-7.7273,-7.7273,-7.7273,-7.7273,-7.7273,-7.7273,-7.7273,-7.7273,-7.7273,-7.7273,-7.7273,-7.7273,-7.7273,-7.7273,-7.7273,0.0,0.0,0.0,-7.2678,-7.2678,-7.2678,-7.2713,-7.2713,-7.2713,-7.2713,-7.2713,-7.2755,-7.2755,-7.2755,-7.2755,-7.2755,-7.2713,-7.2713,-7.2713,-7.2713,-7.2713,-7.2713,-7.2713,-7.2713,-7.2713,-7.2713,-7.2713,-7.2713,-7.2713,-7.2713,-7.2713,-7.3472,-7.4604,-7.6169,-7.6893,-7.7273,-7.7273,-7.7273,-7.7273,-7.7273,-7.7273,-7.7273,-7.7273,-7.7273,-7.7273,-7.7347,-7.8222,-7.9066,-7.98,-7.98,-8.0314,-8.1048,-8.1048,-8.0534,-7.9727,-7.8956,-7.8626,-7.8479,-7.7635,-7.731,-7.7273,-7.7273,-7.7273,-7.7273,-7.7273,-7.7273,-7.7273,-7.7273,-7.7273,-7.7273,-7.7273,-7.7273,-7.7273,-7.7273,-7.7273,-7.7273,-7.7273,-7.7273,-7.7273,-7.7273,-7.7273,-7.7273,-7.7273,-7.7273,-7.7273,-7.7273,-7.7273,-7.7273,-7.7273,-7.7273,-7.7273,-7.7273,-7.7273,-7.7273,-7.7273,-7.7273,-7.7273,-7.7273,-7.7273,-7.7273,-7.7273,-7.7273,-7.7273,-7.7273,-7.7273,-7.7273,-7.7273,-7.7273,-7.7273,-7.7273,-7.7273,-7.7273,-7.2853,0.0,0.0,0.0,0.0,0.0,-7.3252,-7.306,-7.2846,-7.3392,-7.3477,-7.3677,-7.4264,-7.434,-7.4149,-7.3597,-7.3018,-7.2713,-7.2713,-7.2713,-7.2713,-7.2713,-7.2713,-7.2713,-7.2713,-7.2713,-7.2713,-7.2713,-7.2713,-7.2929,-7.3437,-7.479,-7.5757,-7.6203,-7.6893,-7.7273,-7.7273,-7.7273,-7.7273,-7.7273,-7.7273,-7.7273,-7.7273,-7.7273,-7.7273,-7.7347,-7.8222,-7.9066,-7.9837,-8.0424,-8.1122,-8.1856,-8.1856,-8.1379,-8.0645,-8.0424,-7.9617,-7.8552,-7.8332,-7.7855,-7.7273,-7.7273,-7.7273,-7.7273,-7.7273,-7.7273,-7.7273,-7.7273,-7.7273,-7.7273,-7.7273,-7.7273,-7.7273,-7.7273,-7.7273,-7.7273,-7.7273,-7.7273,-7.7273,-7.7273,-7.7273,-7.7273,-7.7273,-7.7273,-7.7273,-7.7273,-7.7273,-7.7273,-7.7273,-7.7273,-7.7273,-7.7273,-7.7273,-7.7273,-7.7273,-7.7273,-7.7273,-7.7273,-7.7273,-7.7273,-7.7273,-7.7273,-7.7273,-7.7273,-7.7273,-7.7273,-7.7273,-7.7273,-7.7273,-7.7273,-7.7273,-7.7273,-7.3277,-7.2583,-7.2069,-7.2564,0.0,0.0,-7.3517,-7.3459,-7.3405,-7.4155,-7.4302,-7.4419,-7.4937,-7.501,-7.4864,-7.4378,-7.3637,-7.306,-7.2755,-7.2713,-7.2713,-7.2713,-7.2713,-7.2713,-7.2713,-7.2713,-7.2713,-7.2713,-7.2713,-7.3183,-7.4264,-7.5477,-7.6336,-7.6668,-7.7087,-7.7273,-7.7273,-7.7273,-7.7273,-7.7273,-7.7273,-7.7273,-7.7273,-7.7273,-7.7494,-7.7892,-7.8736,-7.9543,-8.0351,-8.1158,-8.1782,-8.2186,-8.2186,-8.1893,-8.1452,-8.1122,-8.0424,-7.9507,-7.8846,-7.8259,-7.7781,-7.742,-7.7273,-7.7273,-7.7273,-7.7273,-7.7273,-7.7273,-7.7273,-7.7273,-7.7273,-7.7273,-7.7273,-7.7273,-7.7273,-7.7273,-7.7273,-7.7273,-7.7273,-7.7273,-7.7273,-7.7273,-7.7273,-7.7273,-7.7273,-7.7273,-7.7273,-7.7273,-7.7273,-7.7273,-7.7273,-7.7273,-7.7273,-7.7273,-7.7273,-7.7273,-7.7273,-7.7273,-7.7273,-7.7273,-7.7273,-7.7273,-7.7273,-7.7273,-7.7273,-7.7273,-7.7273,-7.7273,-7.7273,-7.7273,-7.7273,-7.7273,-7.3726,-7.3083,-7.2513,-7.2583,-7.2548,0.0,-7.3619,-7.3726,-7.3868,-7.4726,-7.4869,-7.4905,-7.4941,-7.5013,-7.4977,-7.5012,-7.4388,-7.369,-7.2929,-7.2755,-7.2713,-7.2713,-7.2713,-7.2713,-7.2713,-7.2713,-7.2713,-7.2713,-7.288,-7.3592,-7.5047,-7.5895,-7.6636,-7.7273,-7.7273,-7.7273,-7.7273,-7.7273,-7.7273,-7.7273,-7.7273,-7.7273,-7.7273,-7.7273,-7.7781,-7.8626,-7.9433,-8.0241,-8.1048,-8.1856,-8.2186,-8.2186,-8.2186,-8.2186,-8.2113,-8.1415,-8.1085,-8.0791,-7.925,-7.8662,-7.8479,-7.7567,-7.7273,-7.7273,-7.7273,-7.7273,-7.7273,-7.7273,-7.7273,-7.7273,-7.7273,-7.7273,-7.7273,-7.7273,-7.7273,-7.7273,-7.7273,-7.7273,-7.7273,-7.7273,-7.7273,-7.7273,-7.7273,-7.7273,-7.7273,-7.7273,-7.7273,-7.7273,-7.7273,-7.7273,-7.7273,-7.7273,-7.7273,-7.7273,-7.7273,-7.7273,-7.7273,-7.7273,-7.7273,-7.7273,-7.7273,-7.7273,-7.7273,-7.7273,-7.7273,-7.7273,-7.7273,-7.7273,-7.7273,-7.7273,-7.7273,-7.7273,-7.3218,-7.2317,-7.1832,-7.244,-7.2139,0.0,-7.3485,-7.3289,-7.3047,-7.3846,-7.4016,-7.4218,-7.4832,-7.4926,-7.492,-7.4983,-7.4853,-7.4512,-7.369,-7.306,-7.2713,-7.2713,-7.2713,-7.2713,-7.2713,-7.2713,-7.2713,-7.2713,-7.3834,-7.4974,-7.5895,-7.67,-7.715,-7.731,-7.7273,-7.7273,-7.7273,-7.7273,-7.7273,-7.7273,-7.7273,-7.7273,-7.7273,-7.7273,-7.7781,-7.8626,-7.9433,-8.0241,-8.1048,-8.1856,-8.2186,-8.2186,-8.2186,-8.2186,-8.2186,-8.2003,-8.1562,-8.0865,-7.991,-7.914,-7.8479,-7.7567,-7.7273,-7.7273,-7.7273,-7.7273,-7.7273,-7.7273,-7.7273,-7.7273,-7.7273,-7.7273,-7.7273,-7.7273,-7.7273,-7.7273,-7.7273,-7.7273,-7.7273,-7.7273,-7.7273,-7.7273,-7.7273,-7.7273,-7.7273,-7.7273,-7.7273,-7.7273,-7.7273,-7.7273,-7.7273,-7.7273,-7.7273,-7.7273,-7.7273,-7.7273,-7.7273,-7.7273,-7.7273,-7.7273,-7.7273,-7.7273,-7.7273,-7.7273,-7.7273,-7.7273,-7.7273,-7.7273,-7.7273,-7.7273,-7.7273,-7.7273,-7.3483,-7.258,-7.2101,-7.2443,-7.2289,0.0,0.0,-7.3457,-7.337,-7.4191,-7.4327,-7.4488,-7.4859,-7.4918,-7.4909,-7.4936,-7.4982,-7.4849,-7.4476,-7.3709,-7.3229,-7.3229,-7.2929,-7.2713,-7.2713,-7.2713,-7.2846,-7.3189,-7.434,-7.5335,-7.6169,-7.6893,-7.7273,-7.7273,-7.7273,-7.7273,-7.7273,-7.7273,-7.7273,-7.7273,-7.7273,-7.7273,-7.731,-7.7781,-7.8405,-7.925,-8.0057,-8.0865,-8.1636,-8.2039,-8.2186,-8.2186,-8.2186,-8.2186,-8.2186,-8.2186,-8.1929,-8.1415,-8.0204,-7.9543,-7.8993,-7.7708,-7.7273,-7.7273,-7.7273,-7.7273,-7.7273,-7.7273,-7.7273,-7.7273,-7.7273,-7.7273,-7.7273,-7.7273,-7.7273,-7.7273,-7.7273,-7.7273,-7.7273,-7.7273,-7.7273,-7.7273,-7.7273,-7.7273,-7.7273,-7.7273,-7.7273,-7.7273,-7.7273,-7.7273,-7.7273,-7.7273,-7.7273,-7.7273,-7.7273,-7.7273,-7.7273,-7.7273,-7.7273,-7.7273,-7.7273,-7.7273,-7.7273,-7.7273,-7.7273,-7.7273,-7.7273,-7.7273,-7.7273,-7.7273,-7.7273,-7.7273,-7.3927,-7.312,-7.2496,-7.2496,-7.2496,-7.2679,0.0,0.0,0.0,-7.4294,-7.4441,-7.4441,-7.4441,-7.4441,-7.4551,-7.4845,-7.4827,-7.4841,-7.5168,-7.4548,-7.4049,-7.4037,-7.3512,-7.306,-7.2929,-7.2929,-7.3305,-7.4187,-7.4864,-7.5583,-7.637,-7.6993,-7.7273,-7.7273,-7.7273,-7.7273,-7.7273,-7.7273,-7.7273,-7.7273,-7.7273,-7.7273,-7.731,-7.8222,-7.9029,-7.9837,-8.0645,-8.1452,-8.2186,-8.2186,-8.2186,-8.2186,-8.2186,-8.2186,-8.2186,-8.2186,-8.2113,-8.1746,-8.0277,-7.969,-7.9323,-7.7818,-7.7273,-7.7273,-7.7273,-7.7273,-7.7273,-7.7273,-7.7273,-7.7273,-7.7273,-7.7273,-7.7273,-7.7273,-7.7273,-7.7273,-7.7273,-7.7273,-7.7273,-7.7273,-7.7273,-7.7273,-7.7273,-7.7273,-7.7273,-7.7273,-7.7273,-7.7273,-7.7273,-7.7273,-7.7273,-7.7273,-7.7273,-7.7273,-7.7273,-7.7273,-7.7273,-7.7273,-7.7273,-7.7273,-7.7273,-7.7273,-7.7273,-7.7273,-7.7273,-7.7273,-7.7273,-7.7273,-7.7273,-7.7273,-7.7273,-7.7273,-7.3927,-7.312,-7.2496,-7.2496,-7.2496,-7.2532,-7.2606,0.0,-7.2679,-7.2753,0.0,-7.2789,-7.2789,0.0,0.0,-7.4698,-7.4308,-7.4352,-7.5751,-7.5342,-7.486,-7.483,-7.479,-7.4454,-7.3721,-7.3677,-7.4302,-7.5826,-7.6034,-7.6403,-7.715,-7.7243,-7.7273,-7.7273,-7.7273,-7.7273,-7.7273,-7.7273,-7.7273,-7.7273,-7.7273,-7.7273,-7.731,-7.8222,-7.9029,-7.9837,-8.0645,-8.1452,-8.2186,-8.2186,-8.2186,-8.2186,-8.2186,-8.2186,-8.2186,-8.2186,-8.1746,-8.1012,-8.0094,-7.9323,-7.8589,-7.7604,-7.7273,-7.7273,-7.7273,-7.7273,-7.7273,-7.7273,-7.7273,-7.7273,-7.7273,-7.7273,-7.7273,-7.7273,-7.7273,-7.7273,-7.7273,-7.7273,-7.7273,-7.7273,-7.7273,-7.7273,-7.7273,-7.7273,-7.7273,-7.7273,-7.7273,-7.7273,-7.7273,-7.7273,-7.7273,-7.7273,-7.7273,-7.7273,-7.7273,-7.7273,-7.7273,-7.7273,-7.7273,-7.7273,-7.7273,-7.7273,-7.7273,-7.7273,-7.7273,-7.7273,-7.7273,-7.7273,-7.7273,-7.7273,-7.7273,-7.7273,-7.3927,-7.345,-7.3083,-7.2606,-7.2863,-7.3083,-7.2606,-7.2496,-7.2496,-7.2496,0.0,0.0,0.0,0.0,0.0,0.0,-7.3634,-7.3927,-7.4588,-7.4824,-7.497,-7.4999,-7.4977,-7.4864,-7.4529,-7.4529,-7.4974,-7.6135,-7.6203,-7.6501,-7.7243,-7.7273,-7.7273,-7.7273,-7.7273,-7.7273,-7.7273,-7.7273,-7.7273,-7.7273,-7.7273,-7.753,-7.8075,-7.8919,-7.9727,-8.0534,-8.1342,-8.1893,-8.2186,-8.2186,-8.2186,-8.2186,-8.2186,-8.2186,-8.2186,-8.2186,-8.1672,-8.0901,-8.0057,-7.925,-7.8479,-7.7567,-7.7273,-7.7273,-7.7273,-7.7273,-7.7273,-7.7273,-7.7273,-7.7273,-7.7273,-7.7273,-7.7273,-7.7273,-7.7273,-7.7273,-7.7273,-7.7273,-7.7273,-7.7273,-7.7273,-7.7273,-7.7273,-7.7273,-7.7273,-7.7273,-7.7273,-7.7273,-7.7273,-7.7273,-7.7273,-7.7273,-7.7273,-7.7273,-7.7273,-7.7273,-7.7273,-7.7273,-7.7273,-7.7273,-7.7273,-7.7273,-7.7273,-7.7273,-7.7273,-7.7273,-7.7273,-7.7273,-7.7273,-7.7273,-7.7273,-7.7273,-7.4258,-7.3854,-7.3487,-7.2716,-7.2936,-7.323,-7.2642,-7.2496,-7.2496,-7.2496,-7.2496,0.0,0.0,0.0,-7.2569,-7.2789,0.0,-7.345,-7.367,-7.4184,-7.4738,-7.5257,-7.5322,-7.5406,-7.5617,-7.5441,-7.5652,-7.6436,-7.6469,-7.6733,-7.7243,-7.7273,-7.7273,-7.7273,-7.7273,-7.7273,-7.7273,-7.7273,-7.7273,-7.7273,-7.7273,-7.7781,-7.8626,-7.9433,-8.0241,-8.1048,-8.1856,-8.2186,-8.2186,-8.2186,-8.2186,-8.2186,-8.2186,-8.2186,-8.2186,-8.2186,-8.1562,-8.0571,-7.9984,-7.9103,-7.8148,-7.7494,-7.7273,-7.7273,-7.7273,-7.7273,-7.7273,-7.7273,-7.7273,-7.7273,-7.7273,-7.7273,-7.7273,-7.7273,-7.7273,-7.7273,-7.7273,-7.7273,-7.7273,-7.7273,-7.7273,-7.7273,-7.7273,-7.7273,-7.7273,-7.7273,-7.7273,-7.7273,-7.7273,-7.7273,-7.7273,-7.7273,-7.7273,-7.7273,-7.7273,-7.7273,-7.7273,-7.7273,-7.7273,-7.7273,-7.7273,-7.7273,-7.7273,-7.7273,-7.7273,-7.7273,-7.7273,-7.7273,-7.7273,-7.7273,-7.7273,-7.7273,-7.5102,-7.4294,-7.3487,-7.2716,-7.2532,-7.2532,-7.2496,-7.2496,-7.2496,-7.2496,-7.2496,-7.2496,-7.2496,-7.2496,-7.2753,-7.3523,-7.3046,0.0,0.0,-7.3707,-7.4331,-7.5879,-7.6126,-7.6436,-7.715,-7.6567,-7.6469,-7.7212,-7.7243,-7.7273,-7.7273,-7.7273,-7.7273,-7.7273,-7.7273,-7.7273,-7.7273,-7.7273,-7.7273,-7.7273,-7.7273,-7.7781,-7.8626,-7.9433,-8.0241,-8.1048,-8.1856,-8.2186,-8.2186,-8.2186,-8.2186,-8.2186,-8.2186,-8.2186,-8.2186,-8.2186,-8.1195,-7.98,-7.98,-7.8736,-7.7347,-7.731,-7.7273,-7.7273,-7.7273,-7.7273,-7.7273,-7.7273,-7.7273,-7.7273,-7.7273,-7.7273,-7.7273,-7.7273,-7.7273,-7.7273,-7.7273,-7.7273,-7.7273,-7.7273,-7.7273,-7.7273,-7.7273,-7.7273,-7.7273,-7.7273,-7.7273,-7.7273,-7.7273,-7.7273,-7.7273,-7.7273,-7.7273,-7.7273,-7.7273,-7.7273,-7.7273,-7.7273,-7.7273,-7.7273,-7.7273,-7.7273,-7.7273,-7.7273,-7.7273,-7.7273,-7.7273,-7.7273,-7.7273,-7.7273,-7.7273,-7.7273,-7.5763,-7.5506,-7.4955,-7.3634,-7.3707,-7.3817,-7.2753,-7.2496,-7.2496,-7.2496,-7.2496,-7.2496,-7.2496,-7.2496,-7.2606,-7.2863,-7.2679,-7.2606,0.0,-7.334,-7.4111,-7.5175,-7.5806,-7.6434,-7.7237,-7.7087,-7.7056,-7.7273,-7.7273,-7.7273,-7.7273,-7.7273,-7.7273,-7.7273,-7.7273,-7.7273,-7.7273,-7.7273,-7.7273,-7.731,-7.7892,-7.8589,-7.9396,-8.0241,-8.1012,-8.1819,-8.2076,-8.2186,-8.2186,-8.2186,-8.2186,-8.2186,-8.2186,-8.2186,-8.215,-8.1599,-8.0718,-7.9617,-7.8516,-7.7781,-7.7273,-7.7273,-7.7273,-7.7273,-7.7273,-7.7273,-7.7273,-7.7273,-7.7273,-7.7273,-7.7273,-7.7273,-7.7273,-7.7273,-7.7273,-7.7273,-7.7273,-7.7273,-7.7273,-7.7273,-7.7273,-7.7273,-7.7273,-7.7273,-7.7273,-7.7273,-7.7273,-7.7273,-7.7273,-7.7273,-7.7273,-7.7273,-7.7273,-7.7273,-7.7273,-7.7273,-7.7273,-7.7273,-7.7273,-7.7273,-7.7273,-7.7273,-7.7273,-7.7273,-7.7273,-7.7273,-7.7273,-7.7273,-7.7273,-7.7273,-7.7273,-7.7273,-7.6166,-7.6093,-7.5763,-7.4441,-7.4515,-7.4551,-7.323,-7.2936,-7.2863,-7.2569,-7.2496,-7.2496,-7.2496,-7.2496,-7.2496,-7.2496,-7.2496,-7.2496,0.0,-7.2936,-7.356,-7.4368,-7.5432,-7.6423,-7.72,-7.7273,-7.7273,-7.7273,-7.7273,-7.7273,-7.7273,-7.7273,-7.7273,-7.7273,-7.7273,-7.7273,-7.7273,-7.7273,-7.7273,-7.731,-7.8185,-7.9029,-7.98,-8.0645,-8.1452,-8.2186,-8.2186,-8.2186,-8.2186,-8.2186,-8.2186,-8.2186,-8.2186,-8.2039,-8.1709,-8.1195,-8.0314,-7.9176,-7.7781,-7.7273,-7.7273,-7.7273,-7.7273,-7.7273,-7.7273,-7.7273,-7.7347,-7.7708,-7.7561,-7.7347,-7.7708,-7.753,-7.7273,-7.7273,-7.7273,-7.7273,-7.7273,-7.7273,-7.7273,-7.7273,-7.7273,-7.7273,-7.7273,-7.7273,-7.7273,-7.7273,-7.7273,-7.7273,-7.7273,-7.7273,-7.7273,-7.7273,-7.7273,-7.7273,-7.7273,-7.7273,-7.7273,-7.7273,-7.7273,-7.7273,-7.7273,-7.7273,-7.7273,-7.7273,-7.7273,-7.7273,-7.7273,-7.7273,-7.7273,-7.7273,-7.7273,-7.7273]},{"header":{"parameterUnit":"m.s-1","parameterCategory":1,"la1":30.6,"la2":29.2853,"lo1":-89.7004,"lo2":-87.6739,"dy":0.0162,"dx":0.0183,"nx":112,"ny":82,"refTime":"2024-05-13T06:00:00:Z","depth":0,"parameterNumber":3,"parameterNumberName":"V-component_of_WINDS"},"data":[0.0,0.0,0.0,0.0,0.0,0.0,0.0,0.0,0.0,0.0,0.0,0.0,0.0,0.0,0.0,0.0,0.0,0.0,0.0,0.0,0.0,0.0,0.0,0.0,0.0,0.0,0.0,0.0,0.0,0.0,0.0,0.0,0.0,0.0,0.0,0.0,0.0,0.0,0.0,0.0,0.0,0.0,0.0,0.0,0.0,0.0,0.0,0.0,0.0,0.0,0.0,0.0,0.0,0.0,0.0,0.0,0.0,0.0,0.0,0.0,0.0,0.0,0.0,0.0,0.0,0.0,0.0,0.0,0.0,0.0,0.0,0.0,0.0,0.0,0.0,0.0,0.0,0.0,0.0,0.0,0.0,0.0,0.0,0.0,0.0,0.0,0.0,0.0,0.0,0.0,-4.3711,-4.3711,-4.3711,-4.3711,-4.3711,-4.3711,-4.3711,-4.3711,0.0,0.0,0.0,0.0,0.0,0.0,0.0,0.0,0.0,0.0,0.0,0.0,0.0,0.0,0.0,0.0,0.0,0.0,0.0,0.0,0.0,0.0,0.0,0.0,0.0,0.0,0.0,0.0,0.0,0.0,0.0,0.0,0.0,0.0,0.0,0.0,0.0,0.0,0.0,0.0,0.0,0.0,0.0,0.0,0.0,0.0,0.0,0.0,0.0,0.0,0.0,0.0,0.0,0.0,0.0,0.0,0.0,0.0,0.0,0.0,0.0,0.0,0.0,0.0,0.0,0.0,0.0,0.0,0.0,0.0,0.0,0.0,0.0,0.0,0.0,0.0,0.0,0.0,0.0,0.0,0.0,0.0,0.0,0.0,0.0,0.0,0.0,0.0,0.0,0.0,0.0,0.0,0.0,0.0,0.0,0.0,0.0,0.0,0.0,0.0,0.0,0.0,0.0,0.0,-4.3711,-4.3711,-4.3711,-4.3711,-4.3711,-4.3711,-4.3711,-4.3711,0.0,0.0,0.0,0.0,0.0,0.0,0.0,0.0,0.0,0.0,0.0,0.0,0.0,0.0,0.0,0.0,0.0,0.0,0.0,0.0,0.0,0.0,0.0,0.0,0.0,0.0,0.0,0.0,0.0,0.0,0.0,0.0,0.0,0.0,0.0,0.0,0.0,0.0,0.0,0.0,0.0,0.0,0.0,0.0,0.0,0.0,0.0,0.0,0.0,0.0,0.0,0.0,0.0,0.0,0.0,0.0,0.0,0.0,0.0,0.0,0.0,0.0,0.0,0.0,0.0,0.0,0.0,0.0,0.0,0.0,0.0,0.0,0.0,0.0,0.0,0.0,0.0,0.0,0.0,0.0,0.0,0.0,0.0,0.0,0.0,0.0,0.0,0.0,0.0,0.0,0.0,0.0,0.0,0.0,0.0,0.0,0.0,0.0,0.0,0.0,0.0,0.0,0.0,-4.3711,-4.3711,-4.3711,-4.3711,-4.3711,-4.3711,-4.3711,-4.3711,-4.3711,-4.3711,0.0,0.0,0.0,0.0,0.0,0.0,0.0,0.0,0.0,0.0,0.0,0.0,0.0,0.0,0.0,0.0,0.0,0.0,0.0,0.0,0.0,0.0,0.0,0.0,0.0,0.0,0.0,0.0,0.0,0.0,0.0,0.0,0.0,0.0,0.0,0.0,0.0,0.0,0.0,0.0,0.0,0.0,0.0,0.0,0.0,0.0,0.0,0.0,0.0,0.0,0.0,0.0,0.0,0.0,0.0,0.0,0.0,0.0,0.0,0.0,0.0,0.0,0.0,0.0,0.0,0.0,0.0,0.0,0.0,0.0,0.0,0.0,0.0,0.0,0.0,0.0,0.0,0.0,0.0,0.0,0.0,0.0,0.0,0.0,0.0,0.0,0.0,0.0,0.0,0.0,0.0,0.0,0.0,0.0,0.0,0.0,0.0,0.0,0.0,0.0,0.0,0.0,-4.3711,-4.3711,-4.3711,-4.3711,-4.3711,-4.3711,-4.3711,-4.3711,-4.3711,-4.3711,0.0,0.0,0.0,0.0,0.0,0.0,0.0,0.0,0.0,0.0,0.0,0.0,0.0,0.0,0.0,0.0,0.0,0.0,0.0,0.0,0.0,0.0,0.0,0.0,0.0,0.0,0.0,0.0,0.0,0.0,0.0,0.0,0.0,0.0,0.0,0.0,0.0,0.0,0.0,0.0,0.0,0.0,0.0,0.0,0.0,0.0,0.0,0.0,0.0,0.0,0.0,0.0,0.0,0.0,0.0,0.0,0.0,0.0,0.0,0.0,0.0,0.0,0.0,0.0,0.0,0.0,0.0,0.0,0.0,0.0,0.0,0.0,0.0,0.0,0.0,0.0,0.0,0.0,0.0,0.0,0.0,0.0,0.0,0.0,0.0,0.0,0.0,0.0,0.0,0.0,0.0,0.0,0.0,0.0,0.0,0.0,0.0,0.0,0.0,0.0,0.0,0.0,-4.3711,-4.3711,-4.3711,-4.3711,-4.3711,-4.3711,-4.3711,-4.3711,-4.3711,-4.3711,0.0,0.0,0.0,0.0,0.0,0.0,0.0,0.0,0.0,0.0,0.0,0.0,0.0,0.0,0.0,0.0,0.0,0.0,0.0,0.0,0.0,0.0,0.0,0.0,0.0,0.0,0.0,0.0,0.0,0.0,0.0,0.0,0.0,0.0,0.0,0.0,0.0,0.0,0.0,0.0,0.0,0.0,0.0,0.0,0.0,0.0,0.0,0.0,0.0,0.0,0.0,0.0,0.0,0.0,0.0,0.0,0.0,0.0,0.0,0.0,0.0,0.0,0.0,0.0,0.0,0.0,0.0,0.0,0.0,0.0,0.0,0.0,0.0,0.0,0.0,0.0,0.0,0.0,0.0,0.0,0.0,0.0,0.0,0.0,0.0,0.0,0.0,0.0,0.0,0.0,0.0,0.0,0.0,0.0,0.0,0.0,0.0,0.0,0.0,0.0,0.0,0.0,-4.3711,-4.3711,-4.3711,-4.3711,-4.3711,-4.3711,-4.3711,-4.3711,-4.3711,0.0,0.0,0.0,0.0,0.0,0.0,0.0,0.0,0.0,0.0,0.0,0.0,0.0,0.0,0.0,0.0,0.0,0.0,0.0,0.0,0.0,0.0,0.0,0.0,0.0,0.0,0.0,0.0,0.0,0.0,0.0,0.0,0.0,0.0,0.0,0.0,0.0,0.0,0.0,0.0,0.0,0.0,0.0,0.0,0.0,0.0,0.0,0.0,0.0,0.0,0.0,0.0,0.0,0.0,0.0,0.0,0.0,0.0,0.0,0.0,0.0,0.0,0.0,0.0,0.0,0.0,0.0,0.0,0.0,0.0,0.0,0.0,0.0,0.0,0.0,0.0,0.0,0.0,0.0,0.0,0.0,0.0,0.0,0.0,0.0,0.0,0.0,0.0,0.0,0.0,0.0,0.0,0.0,0.0,0.0,0.0,0.0,0.0,0.0,0.0,0.0,0.0,-4.3711,-4.3711,-4.3711,-4.3711,-4.3711,-4.3711,-4.3711,-4.3711,-4.3711,-4.3711,0.0,0.0,0.0,0.0,0.0,0.0,0.0,0.0,0.0,0.0,0.0,0.0,0.0,0.0,0.0,0.0,0.0,0.0,0.0,0.0,0.0,0.0,0.0,0.0,0.0,0.0,0.0,0.0,0.0,0.0,0.0,0.0,0.0,0.0,0.0,0.0,0.0,0.0,0.0,0.0,0.0,0.0,0.0,0.0,0.0,0.0,0.0,0.0,0.0,0.0,0.0,0.0,0.0,0.0,0.0,0.0,0.0,0.0,0.0,0.0,0.0,0.0,0.0,0.0,0.0,0.0,0.0,0.0,0.0,0.0,0.0,0.0,0.0,0.0,0.0,0.0,0.0,0.0,0.0,0.0,0.0,0.0,0.0,0.0,0.0,0.0,0.0,0.0,0.0,0.0,0.0,0.0,0.0,0.0,0.0,0.0,0.0,0.0,0.0,0.0,0.0,0.0,-4.3711,-4.3711,-4.3711,-4.3711,-4.3711,-4.3711,-4.3711,-4.3711,-4.3711,0.0,0.0,0.0,0.0,0.0,0.0,0.0,0.0,0.0,0.0,0.0,0.0,0.0,0.0,0.0,0.0,0.0,0.0,0.0,0.0,0.0,0.0,0.0,0.0,0.0,0.0,0.0,0.0,0.0,0.0,0.0,0.0,0.0,0.0,0.0,0.0,0.0,0.0,0.0,0.0,0.0,0.0,0.0,0.0,0.0,0.0,0.0,0.0,0.0,0.0,0.0,0.0,0.0,0.0,0.0,0.0,0.0,0.0,0.0,0.0,0.0,0.0,0.0,0.0,0.0,0.0,0.0,0.0,0.0,0.0,0.0,0.0,0.0,0.0,0.0,0.0,0.0,0.0,0.0,0.0,0.0,0.0,0.0,0.0,0.0,0.0,0.0,0.0,0.0,0.0,0.0,0.0,0.0,0.0,0.0,0.0,0.0,0.0,0.0,0.0,0.0,0.0,0.0,-4.3711,-4.3711,-4.3711,-4.3711,-4.3711,-4.3711,-4.3711,-4.3711,-4.3711,-4.3711,0.0,0.0,0.0,0.0,0.0,0.0,0.0,0.0,0.0,0.0,0.0,0.0,0.0,0.0,0.0,0.0,0.0,0.0,0.0,0.0,0.0,0.0,0.0,0.0,0.0,0.0,0.0,0.0,0.0,0.0,0.0,0.0,0.0,0.0,0.0,0.0,0.0,0.0,0.0,0.0,0.0,0.0,0.0,0.0,0.0,0.0,0.0,0.0,0.0,0.0,0.0,0.0,0.0,0.0,0.0,0.0,0.0,0.0,0.0,0.0,0.0,0.0,0.0,0.0,0.0,0.0,0.0,0.0,0.0,0.0,0.0,0.0,0.0,0.0,0.0,0.0,0.0,0.0,0.0,0.0,0.0,0.0,0.0,0.0,0.0,0.0,0.0,0.0,0.0,0.0,0.0,0.0,0.0,0.0,0.0,0.0,0.0,0.0,0.0,0.0,0.0,0.0,-4.3711,-4.3711,-4.3711,-4.3711,-4.3711,-4.3711,-4.3711,-4.3711,-4.3711,-4.3711,0.0,0.0,0.0,0.0,0.0,0.0,0.0,0.0,0.0,0.0,0.0,0.0,0.0,0.0,0.0,0.0,0.0,0.0,0.0,0.0,0.0,0.0,0.0,0.0,0.0,0.0,0.0,0.0,0.0,0.0,0.0,0.0,0.0,0.0,0.0,0.0,0.0,0.0,0.0,0.0,0.0,0.0,0.0,0.0,0.0,0.0,0.0,0.0,0.0,0.0,0.0,0.0,0.0,0.0,0.0,0.0,0.0,0.0,0.0,0.0,0.0,0.0,0.0,0.0,0.0,0.0,0.0,0.0,0.0,0.0,0.0,0.0,0.0,0.0,0.0,0.0,0.0,0.0,0.0,0.0,0.0,0.0,0.0,0.0,0.0,0.0,0.0,0.0,0.0,0.0,0.0,0.0,0.0,0.0,0.0,0.0,0.0,0.0,0.0,0.0,0.0,0.0,-4.3711,-4.3711,-4.3711,-4.3711,-4.3711,-4.3711,-4.3711,-4.3711,-4.3711,-4.3711,0.0,0.0,0.0,0.0,0.0,0.0,0.0,0.0,0.0,0.0,0.0,0.0,0.0,0.0,0.0,0.0,0.0,0.0,0.0,0.0,0.0,0.0,0.0,0.0,0.0,0.0,0.0,0.0,0.0,0.0,0.0,0.0,0.0,0.0,0.0,0.0,0.0,0.0,0.0,0.0,0.0,0.0,0.0,0.0,0.0,0.0,0.0,0.0,0.0,0.0,0.0,0.0,0.0,0.0,0.0,0.0,0.0,0.0,0.0,0.0,-4.0308,-4.0767,0.0,0.0,0.0,0.0,0.0,0.0,0.0,0.0,0.0,0.0,0.0,0.0,0.0,0.0,0.0,0.0,0.0,0.0,0.0,0.0,0.0,0.0,0.0,0.0,0.0,0.0,0.0,0.0,0.0,0.0,0.0,0.0,0.0,0.0,0.0,0.0,0.0,0.0,0.0,0.0,-4.3711,-4.3711,-4.3711,-4.3711,-4.3711,-4.3711,-4.3711,-4.3711,-4.3711,-4.3711,-4.3711,0.0,0.0,0.0,0.0,0.0,0.0,0.0,0.0,0.0,0.0,0.0,0.0,0.0,0.0,0.0,0.0,0.0,0.0,0.0,0.0,0.0,0.0,0.0,0.0,0.0,0.0,0.0,0.0,0.0,0.0,0.0,0.0,0.0,0.0,0.0,0.0,0.0,0.0,0.0,0.0,0.0,0.0,0.0,0.0,0.0,0.0,0.0,0.0,0.0,0.0,0.0,0.0,0.0,0.0,0.0,0.0,0.0,0.0,0.0,-4.0162,-4.0547,0.0,0.0,0.0,0.0,0.0,0.0,0.0,0.0,0.0,0.0,0.0,0.0,0.0,0.0,0.0,0.0,0.0,0.0,0.0,0.0,0.0,0.0,0.0,0.0,0.0,0.0,0.0,0.0,0.0,0.0,0.0,0.0,0.0,0.0,0.0,0.0,0.0,0.0,0.0,0.0,-4.3711,-4.3711,-4.3711,-4.3711,-4.3711,-4.3711,-4.3711,-4.3711,-4.3711,-4.3711,-4.3711,0.0,0.0,0.0,0.0,0.0,0.0,0.0,0.0,0.0,0.0,0.0,0.0,0.0,0.0,0.0,0.0,0.0,0.0,0.0,0.0,0.0,0.0,0.0,0.0,0.0,0.0,0.0,0.0,0.0,0.0,0.0,0.0,0.0,0.0,0.0,0.0,0.0,0.0,0.0,0.0,0.0,0.0,0.0,0.0,0.0,0.0,0.0,0.0,0.0,0.0,0.0,0.0,0.0,-3.856,-3.856,-3.8579,-3.8988,-3.8871,-3.8713,-3.9868,-4.0244,-3.9987,-4.0814,0.0,0.0,0.0,0.0,0.0,0.0,0.0,0.0,0.0,0.0,0.0,0.0,0.0,0.0,0.0,0.0,0.0,0.0,0.0,0.0,0.0,0.0,-4.3711,-4.3711,-4.3711,-4.3711,-4.3711,0.0,0.0,0.0,0.0,0.0,0.0,0.0,0.0,0.0,0.0,0.0,-4.3711,-4.3711,-4.3711,-4.3711,-4.3711,-4.3711,-4.3711,-4.3711,-4.3711,-4.3711,-4.3711,-4.3711,0.0,0.0,0.0,0.0,0.0,0.0,0.0,0.0,0.0,0.0,0.0,0.0,0.0,0.0,0.0,0.0,0.0,0.0,0.0,0.0,0.0,0.0,0.0,0.0,0.0,0.0,0.0,0.0,0.0,0.0,0.0,0.0,-3.6423,-3.6201,0.0,0.0,0.0,0.0,0.0,0.0,0.0,0.0,0.0,0.0,0.0,0.0,0.0,-3.856,-3.856,-3.856,-3.856,-3.856,-3.856,-3.856,-3.856,-3.8615,-3.8615,-3.8615,-3.9557,0.0,-3.9987,-4.0814,0.0,0.0,0.0,0.0,0.0,0.0,0.0,0.0,0.0,0.0,0.0,0.0,0.0,0.0,0.0,0.0,0.0,0.0,0.0,0.0,0.0,0.0,-4.3711,-4.3711,-4.3711,-4.3711,-4.3711,-4.3711,-4.3711,-4.3711,-4.3711,-4.3711,0.0,0.0,0.0,0.0,0.0,0.0,-4.3711,-4.3711,-4.3711,-4.3711,-4.3711,-4.3711,-4.3711,-4.3711,-4.3711,-4.3711,-4.3711,-4.3711,-4.3711,-4.3711,0.0,0.0,0.0,0.0,0.0,0.0,0.0,0.0,0.0,0.0,0.0,0.0,0.0,0.0,0.0,0.0,0.0,0.0,0.0,0.0,0.0,0.0,0.0,0.0,0.0,0.0,0.0,0.0,0.0,-3.6201,-3.6126,-3.5903,-3.5829,-3.5754,0.0,0.0,0.0,0.0,0.0,0.0,0.0,0.0,0.0,-3.7759,-3.8328,-3.856,-3.856,-3.856,-3.856,-3.856,-3.856,-3.856,-3.856,-3.856,-3.856,-3.8695,-3.9502,-3.9932,-3.9987,-4.0814,-4.106,-4.106,0.0,0.0,0.0,0.0,-4.1462,-4.1649,-4.1649,-4.1649,-4.1733,-4.1965,0.0,0.0,0.0,0.0,0.0,0.0,0.0,-4.3297,-4.3048,-4.3131,-4.338,-4.338,-4.3546,-4.3711,-4.3711,-4.3711,-4.3711,-4.3711,-4.3711,-4.3711,-4.3711,-4.3711,0.0,0.0,0.0,-4.3711,-4.3711,-4.3711,-4.3711,-4.3711,-4.3711,-4.3711,-4.3711,-4.3711,-4.3711,-4.3711,-4.3711,-4.3711,-4.3711,-4.3711,-4.3711,0.0,0.0,0.0,0.0,0.0,0.0,0.0,0.0,0.0,0.0,0.0,0.0,0.0,0.0,0.0,0.0,0.0,0.0,0.0,0.0,0.0,0.0,0.0,0.0,0.0,0.0,0.0,0.0,-3.6126,-3.5903,-3.5605,-3.553,-3.5381,0.0,0.0,0.0,0.0,0.0,0.0,-3.6659,-3.7154,-3.7558,-3.7851,-3.8365,-3.856,-3.856,-3.856,-3.856,-3.856,-3.856,-3.856,-3.856,-3.856,-3.856,-3.8695,-3.9483,-3.9832,-3.9905,-4.0712,-4.106,-4.106,-4.106,-4.106,-4.106,-4.106,-4.106,-4.106,-4.106,-4.106,-4.1145,-4.1462,-4.163,-4.1779,-4.2132,0.0,0.0,0.0,0.0,-4.2818,-4.2485,-4.2652,-4.2985,-4.3068,-4.3297,-4.3546,-4.3711,-4.3711,-4.3711,-4.3546,-4.3628,-4.3711,-4.3546,-4.3628,0.0,-4.3711,-4.3711,-4.3711,-4.3711,-4.3711,-4.3711,-4.3711,-4.3711,-4.3711,-4.3711,-4.3711,-4.3711,-4.3711,-4.3711,-4.3711,-4.3711,-4.3711,-4.3711,-4.3711,0.0,0.0,0.0,0.0,0.0,0.0,0.0,0.0,0.0,0.0,0.0,0.0,0.0,0.0,0.0,0.0,0.0,0.0,0.0,0.0,0.0,0.0,0.0,0.0,0.0,0.0,0.0,0.0,0.0,-3.5605,-3.5231,0.0,0.0,0.0,0.0,-3.6126,-3.5829,-3.5847,-3.6237,-3.6989,-3.7429,-3.7448,-3.8158,-3.856,-3.856,-3.856,-3.856,-3.856,-3.856,-3.856,-3.856,-3.856,-3.856,-3.8695,-3.9483,-3.9813,-3.9887,-4.0712,-4.106,-4.106,-4.106,-4.106,-4.106,-4.106,-4.106,-4.106,-4.106,-4.106,-4.106,-4.1145,-4.1378,-4.1695,-4.1695,-4.2049,0.0,0.0,-4.2402,-4.2402,-4.2402,-4.2402,-4.2569,-4.2985,-4.3151,-4.3234,-4.3628,-4.3711,-4.3628,-4.3234,-4.3463,-4.3546,-4.3234,0.0,-4.3711,-4.3711,-4.3711,-4.3711,-4.3711,-4.3711,-4.3711,-4.3711,-4.3711,-4.3711,-4.3711,-4.3711,-4.3711,-4.3711,-4.3711,-4.3711,-4.3711,-4.3711,-4.3711,-4.3711,-4.3711,0.0,0.0,0.0,0.0,0.0,0.0,0.0,0.0,0.0,0.0,0.0,0.0,0.0,0.0,0.0,0.0,0.0,0.0,0.0,0.0,0.0,0.0,0.0,0.0,0.0,0.0,0.0,0.0,-3.495,-3.4932,0.0,-3.4499,-3.4782,-3.5007,-3.5025,-3.5623,-3.5903,-3.5829,-3.6819,-3.7429,-3.7429,-3.8218,-3.856,-3.856,-3.856,-3.856,-3.856,-3.856,-3.856,-3.856,-3.856,-3.856,-3.8695,-3.9483,-3.9832,-3.9905,-4.0712,-4.106,-4.106,-4.106,-4.106,-4.106,-4.106,-4.106,-4.106,-4.106,-4.106,-4.106,-4.106,-4.1229,-4.1294,-4.1294,-4.163,-4.1882,-4.1649,-4.1714,-4.1965,-4.1965,-4.2132,-4.2485,-4.2985,-4.3317,-4.3546,-4.3711,-4.3711,-4.3546,-4.3151,-4.338,-4.3628,-4.3546,-4.3628,-4.3711,-4.3711,-4.3711,-4.3711,-4.3711,-4.3711,-4.3711,-4.3711,-4.3711,-4.3711,-4.3711,-4.3711,-4.3711,-4.3711,-4.3711,-4.3711,-4.3711,-4.3711,-4.3711,-4.3711,-4.3711,-4.3711,0.0,0.0,0.0,0.0,0.0,0.0,0.0,0.0,0.0,0.0,0.0,0.0,0.0,0.0,0.0,0.0,0.0,0.0,0.0,0.0,0.0,0.0,0.0,0.0,0.0,-3.5829,-3.5456,-3.4724,-3.4574,-3.4423,-3.4064,-3.4348,-3.4574,-3.4574,-3.5306,-3.5754,-3.5605,-3.6743,-3.7429,-3.7429,-3.8218,-3.856,-3.856,-3.856,-3.856,-3.856,-3.856,-3.856,-3.856,-3.856,-3.856,-3.8695,-3.9502,-3.9932,-3.9987,-4.0814,-4.106,-4.106,-4.106,-4.106,-4.106,-4.106,-4.106,-4.106,-4.106,-4.106,-4.106,-4.106,-4.106,-4.106,-4.106,-4.1313,-4.1462,-4.1145,-4.1378,-4.1695,-4.1546,-4.1798,-4.2299,-4.2735,-4.3068,-4.338,-4.3628,-4.3628,-4.3463,-4.3297,-4.3546,-4.3628,-4.3546,-4.3463,-4.3546,-4.3711,-4.3546,-4.3546,-4.3711,-4.3711,-4.3711,-4.3711,-4.3711,-4.3711,-4.3711,-4.3711,-4.3711,-4.3711,-4.3711,-4.3711,-4.3711,-4.3711,-4.3711,-4.3711,-4.3711,-4.3711,-4.3711,0.0,0.0,0.0,0.0,0.0,0.0,0.0,0.0,0.0,0.0,0.0,0.0,0.0,0.0,0.0,0.0,0.0,0.0,0.0,0.0,0.0,0.0,0.0,-3.6126,-3.553,-3.5007,-3.5007,-3.4273,-3.3988,-3.4365,-3.4064,-3.4122,-3.4932,-3.5007,-3.5231,-3.5548,-3.6761,-3.7429,-3.7448,-3.8218,-3.856,-3.856,-3.856,-3.856,-3.856,-3.856,-3.856,-3.856,-3.856,-3.856,-3.8695,-3.9502,-3.9932,-3.9987,-4.0814,-4.106,-4.106,-4.106,-4.106,-4.106,-4.106,-4.106,-4.106,-4.106,-4.106,-4.106,-4.106,-4.106,-4.106,-4.106,-4.106,-4.106,-4.106,-4.1378,-4.1612,-4.1229,-4.1378,-4.1798,-4.2318,-4.2402,-4.2652,-4.3546,-4.338,-4.3234,-4.3628,-4.3711,-4.3546,-4.3234,-4.3151,-4.3234,-4.3628,-4.338,0.0,-4.3628,-4.3711,-4.3711,-4.3711,-4.3711,-4.3711,-4.3711,-4.3711,-4.3711,-4.3711,-4.3711,-4.3711,-4.3711,-4.3711,-4.3711,-4.3711,-4.3711,-4.3711,-4.3711,0.0,0.0,0.0,0.0,0.0,0.0,0.0,0.0,0.0,0.0,0.0,0.0,0.0,0.0,0.0,0.0,0.0,0.0,0.0,0.0,0.0,-3.5978,-3.568,-3.5381,-3.5381,-3.5082,-3.4197,-3.4215,-3.4139,-3.3988,-3.4423,-3.4499,-3.4122,-3.5231,-3.5806,-3.5584,-3.6754,-3.7558,-3.7851,-3.8365,-3.856,-3.856,-3.856,-3.856,-3.856,-3.856,-3.856,-3.856,-3.856,-3.856,-3.8695,-3.9502,-3.9932,-3.9987,-4.0814,-4.106,-4.106,-4.106,-4.106,-4.106,-4.106,-4.106,-4.106,-4.106,-4.106,-4.106,-4.106,-4.106,-4.106,-4.106,-4.106,-4.106,-4.106,-4.1145,-4.1294,-4.1462,-4.163,-4.1863,-4.2735,-4.2902,-4.3068,-4.3628,-4.3628,-4.3463,-4.3317,-4.3463,-4.3628,-4.3546,-4.3546,-4.3546,-4.3711,-4.3628,-4.3546,-4.3711,-4.3711,-4.3711,-4.3711,-4.3711,-4.3711,-4.3711,-4.3711,-4.3711,-4.3711,-4.3711,-4.3711,-4.3711,-4.3711,-4.3711,-4.3711,-4.3711,-4.3711,0.0,0.0,0.0,0.0,0.0,0.0,0.0,0.0,0.0,0.0,0.0,0.0,0.0,0.0,0.0,0.0,0.0,0.0,0.0,0.0,0.0,0.0,-3.5978,-3.568,-3.5082,-3.51,-3.4875,-3.4139,-3.4139,-3.4064,-3.3837,-3.4197,-3.4273,-3.3837,-3.4799,-3.5503,-3.5592,-3.5887,-3.6648,-3.792,-3.769,-3.7888,-3.856,-3.856,-3.856,-3.856,-3.856,-3.856,-3.856,-3.856,-3.856,-3.8695,-3.9502,-3.9932,-3.9987,-4.0814,-4.106,-4.106,0.0,0.0,0.0,0.0,-4.106,-4.106,-4.106,-4.106,-4.106,-4.106,-4.106,-4.106,-4.106,-4.106,-4.106,-4.106,-4.1229,-4.1378,-4.1462,-4.1714,-4.2132,-4.2652,-4.2818,-4.2902,-4.338,-4.3131,-4.2882,-4.2818,-4.2799,0.0,-4.3131,-4.3297,-4.3546,-4.3711,-4.3546,-4.3546,-4.3711,-4.3711,-4.3711,-4.3711,-4.3711,-4.3711,-4.3711,-4.3546,0.0,0.0,0.0,-4.3214,-4.3463,-4.3628,0.0,0.0,0.0,-4.3711,-4.3711,-4.3711,0.0,0.0,-4.3476,-4.3437,0.0,0.0,0.0,0.0,0.0,0.0,0.0,0.0,0.0,0.0,0.0,0.0,0.0,0.0,0.0,0.0,-3.6126,-3.5829,-3.5082,-3.4649,-3.4365,-3.4365,-3.3988,-3.3761,-3.3761,-3.3837,-3.3837,-3.3761,-3.4215,-3.4842,-3.5645,-3.49,0.0,0.0,0.0,-3.7072,-3.856,-3.856,-3.856,-3.856,-3.856,-3.856,-3.856,-3.856,-3.856,-3.8695,-3.9502,-3.9932,-3.9987,-4.0814,-4.106,-4.106,-4.106,-4.106,-4.106,-4.106,-4.106,-4.106,-4.106,0.0,0.0,-4.106,-4.106,-4.106,-4.106,-4.106,-4.106,-4.106,-4.1378,-4.1546,-4.1229,-4.1649,-4.2235,-4.2318,-4.2318,-4.2485,-4.2902,-4.2383,-4.1882,-4.2235,-4.2049,-4.1882,-4.2235,-4.2735,-4.3151,-4.3463,-4.3214,-4.3151,-4.3546,-4.3546,-4.3546,-4.3546,-4.3546,0.0,-4.3628,-4.3214,-4.3068,-4.3068,-4.2652,-4.2569,-4.2985,-4.338,-4.3628,-4.3628,-4.3711,-4.3711,-4.3711,-4.3711,-4.3711,-4.3711,-4.3711,-4.3711,0.0,0.0,0.0,0.0,0.0,0.0,0.0,0.0,0.0,0.0,0.0,0.0,0.0,0.0,0.0,-3.6201,-3.5903,-3.553,-3.5082,-3.4649,-3.429,-3.3912,-3.3837,-3.3761,-3.3761,-3.4064,-3.4139,-3.3837,-3.4499,-3.525,-3.6035,-3.6219,-3.6965,-3.8414,-3.8188,-3.8225,-3.856,-3.856,-3.856,-3.856,-3.856,0.0,-3.856,-3.856,-3.856,-3.8695,-3.9502,-3.9932,-3.9987,-4.0814,-4.106,-4.106,-4.106,-4.106,-4.106,-4.106,-4.106,-4.106,-4.106,-4.106,-4.106,-4.106,-4.106,-4.106,-4.106,-4.106,0.0,-4.106,-4.1145,-4.1229,-4.1145,-4.1229,-4.1397,-4.1798,-4.1882,-4.1965,-4.2402,-4.2402,-4.2132,-4.1882,-4.2049,-4.2132,-4.1882,-4.2216,-4.2569,-4.2652,-4.2569,-4.2569,-4.2652,-4.2652,-4.2652,-4.2652,-4.2652,-4.2818,-4.3151,-4.2818,-4.2735,-4.3068,-4.2652,-4.2402,-4.2569,-4.2985,-4.3234,-4.3234,-4.3546,-4.3711,-4.3711,-4.3711,-4.3711,-4.3711,-4.3711,-4.3711,0.0,0.0,0.0,0.0,0.0,0.0,0.0,0.0,0.0,0.0,0.0,-3.6201,-3.6201,0.0,-3.6201,-3.6201,-3.6052,-3.568,-3.5082,-3.4875,-3.4499,-3.3837,-3.3761,-3.3761,-3.3761,-3.3988,-3.4064,-3.4064,-3.4673,-3.5023,-3.5193,-3.5557,-3.6237,-3.7295,-3.7312,-3.7729,-3.856,-3.856,-3.856,-3.856,-3.856,-3.856,-3.856,-3.856,-3.867,-3.897,-3.9575,-4.0042,-4.0281,-4.0804,-4.106,-4.106,-4.106,-4.106,-4.106,-4.106,-4.106,-4.106,-4.106,-4.106,-4.106,-4.106,-4.106,-4.106,-4.106,-4.106,-4.106,-4.106,-4.106,-4.106,-4.106,-4.121,-4.1462,-4.1612,-4.1695,-4.1779,-4.1965,-4.19,-4.1649,-4.1462,-4.1565,-4.1649,-4.1462,-4.1565,-4.19,-4.2318,-4.2402,-4.2402,-4.2402,-4.2402,-4.2402,-4.2402,-4.2402,-4.2485,-4.2735,-4.2318,-4.2049,-4.2068,-4.2049,-4.2049,-4.2049,-4.2485,-4.2735,-4.2735,-4.3151,-4.338,-4.338,-4.3628,-4.3711,-4.3711,-4.3711,-4.3711,0.0,0.0,0.0,0.0,0.0,0.0,0.0,-4.1368,-3.9293,-3.9004,-3.7712,-3.6571,-3.6275,-3.6201,-3.6201,-3.6201,-3.6274,-3.603,-3.5206,-3.5259,-3.5011,-3.4135,-3.3922,-3.3761,-3.3761,-3.3761,-3.4022,-3.447,-3.4824,-3.4959,-3.4827,-3.5134,-3.5697,-3.6477,-3.6494,-3.7152,-3.856,-3.856,-3.856,-3.856,-3.856,-3.856,-3.856,-3.856,-3.886,-3.9263,-3.9758,-4.0281,-4.0602,-4.1016,-4.106,-4.106,-4.106,-4.106,-4.106,-4.106,-4.106,-4.106,-4.106,-4.106,-4.106,-4.106,-4.106,-4.106,-4.106,-4.106,-4.106,-4.106,-4.106,-4.106,-4.106,-4.1294,-4.163,-4.163,-4.163,-4.163,-4.163,-4.1294,-4.106,-4.106,-4.106,-4.106,-4.106,-4.106,-4.1313,-4.2068,-4.2151,-4.2151,-4.2151,-4.2151,-4.2151,-4.2151,-4.2151,-4.2151,-4.2151,-4.1882,-4.1546,-4.1145,-4.1378,-4.1612,-4.1695,-4.2132,-4.2402,-4.2569,-4.2902,-4.3151,-4.3234,-4.3463,-4.3628,-4.3711,-4.3711,-4.3711,-4.394,-4.4566,-4.5438,-4.5438,-4.5278,-4.5142,0.0,-4.3791,-4.2165,-4.08,-3.9293,-3.7786,-3.6423,-3.6201,-3.6201,-3.6201,-3.6531,-3.6467,-3.5615,-3.6147,-3.613,-3.5003,-3.4248,-3.3761,-3.3761,-3.3761,-3.4126,-3.4911,-3.4981,-3.5621,-3.6952,-3.712,-3.7492,-3.8304,-3.8304,-3.8402,-3.856,-3.856,-3.856,-3.856,-3.856,-3.856,-3.856,-3.856,-3.886,-3.9281,-4.007,-4.062,-4.1089,-4.1042,-4.106,-4.106,-4.106,-4.106,-4.106,-4.106,-4.106,-4.106,-4.106,-4.106,-4.106,-4.106,-4.106,-4.106,-4.106,-4.106,-4.106,-4.106,-4.106,-4.106,-4.106,-4.1145,-4.1145,-4.1145,-4.1145,-4.1145,-4.1145,-4.1145,-4.106,-4.106,-4.106,-4.106,-4.106,-4.106,-4.1145,-4.1229,-4.1229,-4.1229,-4.1229,-4.1229,-4.1229,-4.1229,-4.1229,-4.1229,-4.1229,-4.1546,-4.1546,-4.1145,-4.1145,-4.1294,-4.1695,-4.2132,-4.2569,-4.2985,-4.3068,-4.3317,-4.3628,-4.3297,-4.338,-4.3711,-4.3711,-4.3711,-4.461,-4.5025,-4.5438,-4.5438,-4.5438,-4.5438,-4.5438,-4.4228,-4.2678,-4.1084,-3.9582,-3.8082,-3.6812,-3.6567,-3.6659,-3.6879,-3.7062,-3.6867,-3.6101,-3.6474,-3.635,-3.5123,-3.4908,-3.4796,-3.4505,-3.4505,-3.471,-3.533,-3.482,-3.4902,-3.5842,-3.6306,-3.6737,-3.7072,-3.8066,-3.856,-3.856,-3.856,-3.856,-3.856,-3.856,-3.856,-3.8658,-3.8878,-3.9336,-3.9978,-4.0565,-4.0914,-4.106,-4.106,-4.106,-4.106,-4.106,-4.106,-4.106,-4.106,-4.106,-4.106,-4.106,-4.106,-4.106,-4.106,-4.106,-4.106,-4.106,-4.106,-4.106,-4.106,-4.106,-4.106,-4.106,-4.106,-4.106,-4.106,-4.106,-4.106,-4.106,-4.106,-4.106,-4.106,-4.106,-4.106,-4.106,-4.106,-4.106,-4.106,-4.106,-4.106,-4.106,-4.106,-4.106,-4.106,-4.106,-4.106,-4.106,-4.121,-4.1294,-4.1145,-4.106,-4.1145,-4.1294,-4.1798,-4.2049,-4.2299,-4.2818,-4.3151,-4.338,-4.3151,-4.3297,-4.3711,-4.3463,-4.3463,-4.5185,-4.5438,-4.5438,-4.5438,-4.5438,-4.5438,-4.5438,-4.4228,-4.2678,-4.1084,-3.9682,-3.8275,-3.6995,-3.6934,-3.7099,-3.7374,-3.7521,-3.7363,-3.6666,-3.6988,-3.6827,-3.559,-3.5809,-3.573,-3.4626,-3.4362,-3.4514,-3.5165,-3.4597,-3.4702,-3.5777,-3.6435,-3.6735,-3.6735,-3.7906,-3.856,-3.856,-3.856,-3.856,-3.856,-3.856,-3.856,-3.8579,-3.9171,-3.9795,-4.0492,-4.0895,-4.106,-4.106,-4.106,-4.106,-4.106,-4.106,-4.106,-4.106,-4.106,-4.106,-4.106,-4.106,-4.106,-4.106,-4.106,-4.106,-4.106,-4.106,-4.106,-4.106,-4.106,-4.106,-4.106,-4.106,-4.106,-4.106,-4.106,-4.106,-4.106,-4.106,-4.106,-4.106,-4.106,-4.106,-4.106,-4.106,-4.106,-4.106,-4.106,-4.106,-4.106,-4.106,-4.106,-4.106,-4.106,-4.106,-4.106,-4.106,-4.106,-4.106,-4.106,-4.106,-4.1145,-4.1294,-4.1546,-4.1779,-4.1882,-4.255,-4.2985,-4.3068,-4.2985,-4.3131,-4.3546,-4.3234,-4.3234,-4.5209,-4.5438,-4.5438,-4.5438,-4.5438,-4.5438,-4.5438,-4.4228,-4.2678,-4.1084,-3.9851,-3.8622,-3.7051,-3.7154,-3.7411,-3.7429,-3.7741,-3.7842,-3.7391,-3.8049,-3.8047,-3.6787,-3.709,-3.6333,-3.3724,-3.2777,-3.2889,-3.409,-3.4123,-3.5424,-3.8365,-3.8481,-3.856,-3.856,-3.856,-3.856,-3.856,-3.856,-3.856,-3.856,-3.856,-3.856,-3.8597,-3.9465,-4.0152,-4.0492,-4.0895,-4.106,-4.106,-4.106,-4.106,-4.106,-4.106,-4.106,-4.106,-4.106,-4.106,-4.106,-4.106,-4.106,-4.106,-4.106,-4.106,-4.106,-4.106,-4.106,-4.106,-4.106,-4.106,-4.106,-4.106,-4.106,-4.106,-4.106,-4.106,-4.106,-4.106,-4.106,-4.106,-4.106,-4.106,-4.106,-4.106,-4.106,-4.106,-4.106,-4.106,-4.106,-4.106,-4.106,-4.106,-4.106,-4.106,-4.106,-4.106,-4.106,-4.106,-4.106,-4.106,-4.1294,-4.1695,-4.1695,-4.1882,-4.2402,-4.2402,-4.2652,-4.3068,-4.2652,-4.2652,-4.3151,-4.3068,-4.3068,-4.5232,-4.5438,-4.5438,-4.5438,-4.5438,-4.5438,-4.5438,-4.4228,-4.2678,-4.1084,-3.9923,-3.8718,-3.7459,-3.7558,-3.7906,-3.8181,-3.8346,-3.828,-3.7885,-3.8231,-3.8163,-3.6822,-3.7125,-3.6368,-3.3674,-3.4293,-3.4581,-3.418,-3.3303,-3.3855,-3.6368,-3.5608,-3.5689,-3.6832,-3.7986,-3.856,-3.856,-3.856,-3.856,-3.856,-3.8915,-3.9171,-3.9447,-4.0015,-4.0473,-4.0877,-4.1005,-4.106,-4.106,-4.106,-4.106,-4.106,-4.106,-4.106,-4.106,-4.106,-4.106,-4.106,-4.106,-4.106,-4.106,-4.106,-4.106,-4.106,-4.106,-4.106,-4.106,-4.106,-4.106,-4.106,-4.106,-4.106,-4.106,-4.106,-4.106,-4.106,-4.106,-4.106,-4.106,-4.106,-4.106,-4.106,-4.106,-4.106,-4.106,-4.106,-4.106,-4.106,-4.106,-4.106,-4.106,-4.106,-4.106,-4.106,-4.106,-4.106,-4.106,-4.106,-4.106,-4.1145,-4.1294,-4.1546,-4.1779,-4.1965,-4.2235,-4.2485,-4.2652,-4.2132,-4.2299,-4.3068,-4.2818,-4.2985,-4.5346,-4.5438,-4.5438,-4.5438,-4.5438,-4.5438,-4.5438,-4.3791,-4.2067,-4.1221,-3.9651,-3.833,-3.7712,-3.7961,-3.8328,-3.8524,-3.856,-3.8481,-3.8243,-3.8402,-3.8163,-3.7045,-3.6626,-3.5383,-3.2757,-3.3674,-3.4164,-3.3397,-3.218,-3.2345,-3.4555,-3.3887,-3.3887,-3.5025,-3.6752,-3.7649,-3.7649,-3.8304,-3.856,-3.856,-3.9043,-3.9447,-3.9932,-4.0354,-4.0694,-4.106,-4.106,-4.106,-4.106,-4.106,-4.106,-4.106,-4.106,-4.106,-4.106,-4.106,-4.106,-4.106,-4.106,-4.106,-4.106,-4.106,-4.106,-4.106,-4.106,-4.106,-4.106,-4.106,-4.106,-4.106,-4.106,-4.106,-4.106,-4.106,-4.106,-4.106,-4.106,-4.106,-4.106,-4.106,-4.106,-4.106,-4.106,-4.106,-4.106,-4.106,-4.106,-4.106,-4.106,-4.106,-4.106,-4.106,-4.106,-4.106,-4.106,-4.106,-4.106,-4.106,-4.106,-4.106,-4.106,-4.1378,-4.1462,-4.1462,-4.1882,-4.2235,-4.2402,-4.1965,-4.2132,-4.2818,-4.2383,-4.2466,-4.5438,-4.5438,-4.5438,-4.5438,-4.5438,-4.5438,-4.5438,-4.3027,-4.0944,-4.1307,-3.9287,-3.7576,-3.7943,-3.8365,-3.856,-3.856,-3.856,-3.856,-3.856,-3.856,-3.8243,-3.7348,-3.577,-3.3708,-3.1091,-3.1091,-3.152,-3.1933,-3.0842,-3.1008,-3.3151,-3.3233,-3.3315,-3.3397,-3.5106,-3.6075,-3.6155,-3.7729,-3.8579,-3.8597,-3.908,-3.9483,-3.9968,-4.0308,-4.0712,-4.106,-4.106,-4.106,-4.106,-4.106,-4.106,-4.106,-4.106,-4.106,-4.106,-4.106,-4.106,-4.106,-4.106,-4.106,-4.106,-4.106,-4.106,-4.106,-4.106,-4.106,-4.106,-4.106,-4.106,-4.106,-4.106,-4.106,-4.106,-4.106,-4.106,-4.106,-4.106,-4.106,-4.106,-4.106,-4.106,-4.106,-4.106,-4.106,-4.106,-4.106,-4.106,-4.106,-4.106,-4.106,-4.106,-4.106,-4.106,-4.106,-4.106,-4.106,-4.106,-4.106,-4.106,-4.106,-4.106,-4.106,-4.106,-4.106,-4.1462,-4.1882,-4.2318,-4.1882,-4.1882,-4.2318,-4.1882,-4.1695,-4.5438,-4.5438,-4.5438,-4.5438,-4.5438,-4.5438,-4.5438,-4.3267,-4.1266,-4.1369,-3.9521,-3.7888,-3.7998,-3.8365,-3.856,-3.856,-3.856,-3.856,-3.856,-3.856,-3.7827,-3.5608,-3.5285,-3.4066,-3.1091,-3.0607,-3.0372,-3.0191,-3.0122,-3.0538,-3.1437,-3.1437,-3.2098,-3.3397,-3.5106,-3.6654,-3.7906,-3.8402,-3.8707,-3.908,-3.9502,-3.9905,-4.0327,-4.073,-4.0969,-4.106,-4.106,-4.106,-4.106,-4.106,-4.106,-4.106,-4.106,-4.106,-4.106,-4.106,-4.106,-4.106,-4.106,-4.106,-4.106,-4.106,-4.106,-4.106,-4.106,-4.106,-4.106,-4.106,-4.106,-4.106,-4.106,-4.106,-4.106,-4.106,-4.106,-4.106,-4.106,-4.106,-4.106,-4.106,-4.106,-4.106,-4.106,-4.106,-4.106,-4.106,-4.106,-4.106,-4.106,-4.106,-4.106,-4.106,-4.106,-4.106,-4.106,-4.106,-4.106,-4.106,-4.106,-4.106,-4.106,-4.106,-4.106,-4.106,-4.1229,-4.1313,-4.1397,-4.1313,-4.1462,-4.1882,-4.1779,-4.1882,-4.5438,-4.5438,-4.521,-4.4572,-4.4366,-4.4273,-4.3779,-4.1922,-4.0492,-4.0875,-3.9338,-3.8071,-3.8255,-3.8493,-3.856,-3.856,-3.856,-3.856,-3.856,-3.856,-3.7649,-3.5025,-3.4376,-3.2972,-2.9926,-2.9202,-2.8796,-2.8376,-2.888,-2.9384,-2.9635,-2.9635,-3.0122,-3.1105,-3.2823,-3.4944,-3.7392,-3.8406,-3.9006,-3.9245,-3.9832,-4.0235,-4.0492,-4.0877,-4.106,-4.106,-4.106,-4.106,-4.106,-4.106,-4.106,-4.106,-4.106,-4.106,-4.106,-4.106,-4.106,-4.106,-4.106,-4.106,-4.106,-4.106,-4.106,-4.106,-4.106,-4.106,-4.106,-4.106,-4.106,-4.106,-4.106,-4.106,-4.106,-4.106,-4.106,-4.106,-4.106,-4.106,-4.106,-4.106,-4.106,-4.106,-4.106,-4.106,-4.106,-4.106,-4.106,-4.106,-4.106,-4.106,-4.106,-4.106,-4.106,-4.106,-4.106,-4.106,-4.106,-4.106,-4.106,-4.106,-4.106,-4.106,-4.106,-4.106,-4.106,-4.1229,-4.1378,-4.1229,-4.1294,-4.1695,-4.1546,-4.163,-4.4869,-4.4778,-4.4503,-4.3097,-4.2818,-4.2575,-4.1575,-4.0285,-3.9378,-4.0178,-3.9122,-3.8199,-3.8585,-3.856,-3.856,-3.856,-3.856,-3.856,-3.856,-3.8402,-3.733,-3.4765,-3.3283,-3.1227,-2.8181,-2.7714,-2.7389,-2.6965,-2.7714,-2.8221,-2.8221,-2.8221,-2.8389,-2.888,-3.0622,-3.3069,-3.6333,-3.8284,-3.9263,-3.9318,-4.0107,-4.0492,-4.0565,-4.0895,-4.106,-4.106,-4.106,-4.106,-4.106,-4.106,-4.106,-4.106,-4.106,-4.106,-4.106,-4.106,-4.106,-4.106,-4.106,-4.106,-4.106,-4.106,-4.106,-4.106,-4.106,-4.106,-4.106,-4.106,-4.106,-4.106,-4.106,-4.106,-4.106,-4.106,-4.106,-4.106,-4.106,-4.106,-4.106,-4.106,-4.106,-4.106,-4.106,-4.106,-4.106,-4.106,-4.106,-4.106,-4.106,-4.106,-4.106,-4.106,-4.106,-4.106,-4.106,-4.106,-4.106,-4.106,-4.106,-4.106,-4.106,-4.106,-4.106,-4.106,-4.106,-4.1313,-4.1612,-4.1313,-4.1294,-4.1612,-4.1294,-4.1294,-4.1954,-4.158,-4.1509,-4.1297,-4.1226,-4.1209,-4.1358,-4.0452,-3.9749,-4.0179,-3.9349,-3.8548,-3.8621,-3.856,-3.856,-3.856,-3.856,-3.856,-3.856,-3.7392,-3.5591,-3.3283,-3.1902,-3.0024,-2.7292,-2.763,-2.7897,-2.7389,-2.7897,-2.8221,-2.8221,-2.8221,-2.9537,-3.2412,-3.4197,-3.6092,-3.8145,-3.8865,-3.941,-3.974,-4.0235,-4.0639,-4.095,-4.1024,-4.106,-4.106,-4.106,-4.106,-4.106,-4.106,-4.106,-4.106,-4.106,-4.106,-4.106,-4.106,-4.106,-4.106,-4.106,-4.106,-4.106,-4.106,-4.106,-4.106,-4.106,-4.106,-4.106,-4.106,-4.106,-4.106,-4.106,-4.106,-4.106,-4.106,-4.106,-4.106,-4.106,-4.106,-4.106,-4.106,-4.106,-4.106,-4.106,-4.106,-4.106,-4.106,-4.106,-4.106,-4.106,-4.106,-4.106,-4.106,-4.106,-4.106,-4.106,-4.106,-4.106,-4.106,-4.106,-4.106,-4.106,-4.106,-4.106,-4.106,-4.106,-4.1145,-4.1229,-4.1145,-4.1145,-4.1229,-4.1145,-4.1294,-4.1013,-4.08,-4.0586,-3.9798,-3.9582,-3.9545,-3.9336,-3.8916,-3.8651,-3.9273,-3.8966,-3.856,-3.856,-3.856,-3.856,-3.856,-3.856,-3.8304,-3.7392,-3.6494,-3.4847,-3.1722,-3.1022,-2.9788,-2.7037,-2.763,-2.7981,-2.7558,-2.7897,-2.8221,-2.8221,-2.8221,-2.9384,-3.2015,-3.2823,-3.4637,-3.7551,-3.7922,-3.8822,-4.0262,-4.0584,-4.0877,-4.106,-4.106,-4.106,-4.106,-4.106,-4.106,-4.106,-4.106,-4.106,-4.106,-4.106,-4.106,-4.106,-4.106,-4.106,-4.106,-4.106,-4.106,-4.106,-4.106,-4.106,-4.106,-4.106,-4.106,-4.106,-4.106,-4.106,-4.106,-4.106,-4.106,-4.106,-4.106,-4.106,-4.106,-4.106,-4.106,-4.106,-4.106,-4.106,-4.106,-4.106,-4.106,-4.106,-4.106,-4.106,-4.106,-4.106,-4.106,-4.106,-4.106,-4.106,-4.106,-4.106,-4.106,-4.106,-4.106,-4.106,-4.106,-4.106,-4.106,-4.106,-4.106,-4.106,-4.106,-4.106,-4.106,-4.106,-4.106,-4.106,-4.1294,-3.987,-3.9798,-3.951,-3.8297,-3.8082,-3.7983,-3.7475,-3.7484,-3.7759,-3.8414,-3.856,-3.856,-3.856,-3.856,-3.856,-3.856,-3.856,-3.7986,-3.6253,-3.5672,-3.4115,-3.0676,-3.0289,-2.9384,-2.7292,-2.7799,-2.8065,-2.7643,-2.7981,-2.8221,-2.8221,-2.8221,-2.8964,-3.0705,-3.1188,-3.3077,-3.6577,-3.7366,-3.8696,-4.0473,-4.0877,-4.106,-4.106,-4.106,-4.106,-4.106,-4.106,-4.106,-4.106,-4.106,-4.106,-4.106,-4.106,-4.106,-4.106,-4.062,-4.0536,-4.0536,-4.0536,-4.0536,-4.0536,-4.0976,-4.106,-4.106,-4.106,-4.106,-4.106,-4.106,-4.106,-4.106,-4.106,-4.106,-4.106,-4.106,-4.106,-4.106,-4.106,-4.106,-4.106,-4.106,-4.106,-4.106,-4.106,-4.106,-4.106,-4.106,-4.106,-4.106,-4.106,-4.106,-4.106,-4.106,-4.106,-4.106,-4.106,-4.106,-4.106,-4.106,-4.106,-4.106,-4.106,-4.106,-4.106,-4.106,-4.106,-4.106,-4.106,-4.106,-4.106,-4.106,-4.106,-4.1294,-3.6996,-3.6645,-3.6571,-3.6423,-3.6718,-3.703,-3.7319,-3.7704,-3.8089,-3.8548,-3.856,-3.856,-3.856,-3.856,-3.856,-3.856,-3.856,-3.7986,-3.6253,-3.462,-3.2905,-3.0954,-2.9384,-2.8305,-2.8065,-2.8136,-2.815,-2.815,-2.815,-2.8221,-2.8221,-2.8221,-2.8964,-3.0705,-3.233,-3.431,-3.6577,-3.8633,-3.997,-4.0473,-4.0877,-4.106,-4.106,-4.106,-4.106,-4.106,-4.106,-4.106,-4.106,-4.106,-4.106,-4.106,-4.106,-4.106,-4.0892,-3.916,-3.8546,-3.8546,-3.8546,-3.8546,-3.8802,-4.0536,-4.106,-4.106,-4.106,-4.106,-4.106,-4.106,-4.106,-4.106,-4.106,-4.106,-4.106,-4.106,-4.106,-4.106,-4.106,-4.106,-4.106,-4.106,-4.106,-4.106,-4.106,-4.106,-4.106,-4.106,-4.106,-4.106,-4.106,-4.106,-4.106,-4.106,-4.106,-4.106,-4.106,-4.106,-4.106,-4.106,-4.106,-4.106,-4.106,-4.106,-4.106,-4.106,-4.106,-4.106,-4.106,-4.106,-4.106,-4.106,-4.106,-4.1294,-3.6349,-3.6201,-3.6274,-3.6531,-3.6714,-3.7007,-3.7631,-3.7906,-3.8126,-3.8548,-3.856,-3.856,-3.856,-3.856,-3.8243,-3.7232,-3.7072,-3.6092,-3.3233,-3.2247,-3.1188,-2.9467,-2.8642,-2.8221,-2.8221,-2.8221,-2.8221,-2.8221,-2.8221,-2.8221,-2.8221,-2.8221,-2.8964,-3.0705,-3.1714,-3.3707,-3.6919,-3.8062,-3.9384,-4.0822,-4.0987,-4.106,-4.106,-4.106,-4.106,-4.106,-4.106,-4.106,-4.0976,-3.9841,-3.9416,-3.9331,-3.8186,-3.774,-3.7655,-3.688,-3.6621,-3.6621,-3.6621,-3.7327,-3.846,-3.916,-4.0198,-4.106,-4.106,-4.106,-4.106,-4.106,-4.106,-4.106,-4.106,-4.106,-4.106,-4.106,-4.106,-4.106,-4.106,-4.106,-4.106,-4.106,-4.106,-4.106,-4.106,-4.106,-4.106,-4.106,-4.106,-4.106,-4.106,-4.106,-4.106,-4.106,-4.106,-4.106,-4.106,-4.106,-4.106,-4.106,-4.106,-4.106,-4.106,-4.106,-4.106,-4.106,-4.106,-4.106,-4.106,-4.106,-4.106,-4.106,-4.106,-4.1229,-3.6201,-3.6292,-3.6457,-3.6769,-3.7007,-3.7338,-3.7888,-3.8108,-3.8291,-3.8505,-3.856,-3.856,-3.856,-3.856,-3.8066,-3.6236,-3.5994,-3.4782,-3.1271,-3.0788,-3.0122,-2.8389,-2.8221,-2.8221,-2.8221,-2.8221,-2.8221,-2.8221,-2.8221,-2.8221,-2.8221,-2.8221,-2.8726,-2.9955,-3.1416,-3.3578,-3.6375,-3.7871,-3.9449,-4.106,-4.106,-4.106,-4.106,-4.106,-4.106,-4.106,-4.0536,-4.062,-4.0892,-3.846,-3.7757,-3.8118,-3.6188,-3.5494,-3.5407,-3.4869,-3.4694,-3.4694,-3.4694,-3.5581,-3.6707,-3.7327,-3.8357,-3.9568,-4.0095,-4.062,-4.106,-4.106,-4.106,-4.106,-4.106,-4.106,-4.106,-4.106,-4.106,-4.106,-4.106,-4.106,-4.106,-4.106,-4.106,-4.106,-4.106,-4.106,-4.106,-4.106,-4.106,-4.106,-4.106,-4.106,-4.106,-4.106,-4.106,-4.106,-4.106,-4.106,-4.106,-4.106,-4.106,-4.106,-4.106,-4.106,-4.106,-4.106,-4.106,-4.106,-4.106,-4.106,-4.106,-4.106,-4.106,-4.106,-3.6201,-3.6512,-3.6749,-3.6842,-3.7429,-3.7998,-3.8016,-3.8346,-3.856,-3.856,-3.856,-3.856,-3.856,-3.856,-3.8066,-3.6236,-3.5994,-3.4782,-3.1271,-3.0788,-3.0122,-2.8389,-2.8221,-2.8221,-2.8221,-2.8221,-2.8221,-2.8221,-2.8221,-2.8221,-2.8221,-2.8221,-2.8234,-2.8221,-3.1986,-3.4163,-3.4614,-3.8474,-4.0675,-4.106,-4.106,-4.106,-4.106,-4.106,-4.106,-4.0976,-3.916,-3.9416,-4.0789,-3.7052,-3.6621,-3.8118,-3.6188,-3.5494,-3.532,-3.338,-3.269,-3.269,-3.269,-3.2778,-3.3043,-3.4972,-3.5581,-3.5928,-3.7757,-3.9671,-4.106,-4.106,-4.106,-4.106,-4.106,-4.106,-4.106,-4.106,-4.106,-4.106,-4.106,-4.106,-4.106,-4.106,-4.106,-4.106,-4.106,-4.106,-4.106,-4.106,-4.106,-4.106,-4.106,-4.106,-4.106,-4.106,-4.106,-4.106,-4.106,-4.106,-4.106,-4.106,-4.106,-4.106,-4.106,-4.106,-4.106,-4.106,-4.106,-4.106,-4.106,-4.106,-4.106,-4.106,-4.106,-4.106,-3.6201,-3.6512,-3.6897,-3.7173,-3.7631,-3.8089,-3.8383,-3.8548,-3.856,-3.856,-3.856,-3.856,-3.856,-3.856,-3.8066,-3.6236,-3.5025,-3.3397,-3.112,-2.9802,-2.881,-2.8305,-2.8221,-2.8221,-2.8221,-2.8221,-2.8221,-2.8221,-2.8221,-2.8221,-2.8221,-2.8221,-2.8221,-2.8221,-3.2212,-3.4502,-3.4614,-3.8803,-4.0932,-4.106,-4.106,-4.106,-4.106,-4.106,-4.106,-4.0976,-3.916,-3.8631,-3.8887,-3.513,-3.3907,-3.4257,-3.244,-3.1657,-3.1568,-3.1048,-3.0781,-3.0781,-3.0781,-3.1657,-3.2778,-3.338,-3.4432,-3.5842,-3.7757,-3.8716,-3.9416,-4.0705,-4.106,-4.106,-4.106,-4.106,-4.106,-4.106,-4.106,-4.106,-4.106,-4.106,-4.106,-4.106,-4.106,-4.106,-4.106,-4.106,-4.106,-4.106,-4.106,-4.106,-4.106,-4.106,-4.106,-4.106,-4.106,-4.106,-4.106,-4.106,-4.106,-4.106,-4.106,-4.106,-4.106,-4.106,-4.106,-4.106,-4.106,-4.106,-4.106,-4.106,-4.106,-4.106,-4.106,-4.106,-3.6494,-3.6751,-3.7154,-3.7558,-3.7961,-3.831,-3.8505,-3.856,-3.856,-3.856,-3.856,-3.856,-3.856,-3.856,-3.7827,-3.543,-3.4132,-3.2577,-3.0122,-2.8894,-2.8221,-2.8221,-2.8221,-2.8221,-2.8221,-2.8221,-2.8221,-2.8221,-2.8221,-2.8221,-2.8221,-2.881,-2.9216,-2.9216,-3.2739,-3.4803,-3.5342,-3.905,-4.0832,-4.0685,-4.0767,-4.084,-4.084,-4.0987,-4.106,-4.0976,-3.8357,-3.7671,0.0,-3.3483,-3.2086,-3.2514,-3.0616,-2.9913,-2.9913,-2.9913,-2.9913,-2.9913,-2.9913,-3.0691,-3.1642,-3.1642,-3.3395,-3.5755,-3.688,-3.8186,-3.9586,-4.0789,-4.106,-4.106,-4.106,-4.106,-4.106,-4.106,-4.106,-4.106,-4.106,-4.106,-4.106,-4.106,-4.106,-4.106,-4.106,-4.106,-4.106,-4.106,-4.106,-4.106,-4.106,-4.106,-4.106,-4.106,-4.106,-4.106,-4.106,-4.106,-4.106,-4.106,-4.106,-4.106,-4.106,-4.106,-4.106,-4.106,-4.106,-4.106,-4.106,-4.106,-4.106,-4.106,-4.106,-4.106,0.0,-3.7191,-3.7558,-3.7924,-3.8328,-3.856,-3.856,-3.856,0.0,-3.856,-3.856,-3.856,-3.856,-3.856,-3.749,-3.4132,-3.3479,-3.2247,-2.888,-2.8305,-2.8221,-2.8221,-2.8221,-2.8221,-2.8221,-2.8221,-2.8221,-2.8221,-2.8221,-2.8221,-2.8221,-2.9886,-3.0871,-3.0954,-3.3395,-3.5342,-3.6594,-3.9174,-4.0235,-3.9932,-4.0235,-4.0418,-4.0437,-4.0804,-4.0969,-4.08,-3.7089,-3.6415,-3.7638,-3.2174,-3.0959,-3.2337,-3.0616,-2.9913,-2.9913,-2.9913,-2.9913,-2.9913,-2.9913,-2.9913,-2.9913,-2.9913,-3.2351,-3.5304,-3.5494,-3.81,-4.106,-4.106,-4.106,-4.106,-4.106,-4.106,-4.106,-4.106,-4.106,-4.106,-4.106,-4.106,-4.106,-4.106,-4.106,-4.106,-4.106,-4.106,-4.106,-4.106,-4.106,-4.106,-4.106,-4.106,-4.106,-4.106,-4.106,-4.106,-4.106,-4.106,-4.106,-4.106,-4.106,-4.106,-4.106,-4.106,-4.106,-4.106,-4.106,-4.106,-4.106,-4.106,-4.106,-4.106,-4.106,-4.106,-3.7686,0.0,-3.7888,-3.7998,-3.8328,-3.856,0.0,-3.856,-3.856,-3.856,-3.856,-3.856,-3.856,-3.856,-3.7906,-3.5753,-3.4294,-3.2659,-3.0455,-2.9048,-2.8221,-2.8221,-2.8221,-2.8221,-2.8221,-2.8221,-2.8221,-2.8221,-2.8221,-2.8221,-2.8221,-2.9886,-3.1437,-3.2741,-3.4982,-3.6252,-3.6577,-3.8904,-4.0024,-3.9932,-4.0024,-4.0079,-4.0079,-4.0171,-4.0207,-3.9979,-3.6522,-3.5269,-3.5387,-3.1483,-3.0182,-3.0526,-3.0093,-2.9913,-2.9913,-2.9913,-2.9913,-2.9913,-2.9913,-2.9913,-2.9913,-2.9913,-3.1479,-3.3644,-3.5043,-3.81,-4.106,-4.106,-4.106,-4.106,-4.106,-4.106,-4.106,-4.106,-4.106,-4.106,-4.106,-4.106,-4.106,-4.106,-4.106,-4.106,-4.106,-4.106,-4.106,-4.106,-4.106,-4.106,-4.106,-4.106,-4.106,-4.106,-4.106,-4.106,-4.106,-4.106,-4.106,-4.106,-4.106,-4.106,-4.106,-4.106,-4.106,-4.106,-4.106,-4.106,-4.106,-4.106,-4.106,-4.106,-4.106,-4.106,-3.8236,-3.8163,-3.8053,-3.8255,-3.8475,-3.856,-3.856,-3.856,-3.856,-3.856,-3.856,-3.856,-3.856,-3.856,-3.8066,-3.6236,-3.4538,-3.2494,-2.9955,-2.881,-2.8221,-2.8221,-2.8221,-2.8221,-2.8221,-2.8221,-2.8221,-2.8221,-2.8978,-2.9384,-2.9384,-3.1753,-3.3642,-3.4522,-3.646,-3.7488,-3.7488,-3.887,-3.9465,-3.93,-3.9465,-3.9557,-3.9575,-3.984,-3.9932,-3.9768,-3.7113,-3.5411,-3.4507,-3.1916,-3.0411,-2.9726,-2.986,-2.9913,-2.9913,-2.9913,-2.9913,-2.9913,-2.9913,-2.9913,-2.9913,-2.9913,-3.1123,-3.3043,-3.4956,-3.75,-4.001,-4.0892,-4.106,-4.106,-4.106,-4.106,-4.106,-4.106,-4.106,-4.106,-4.106,-4.106,-4.106,-4.106,-4.106,-4.106,-4.106,-4.106,-4.106,-4.106,-4.106,-4.106,-4.106,-4.106,-4.106,-4.106,-4.106,-4.106,-4.106,-4.106,-4.106,-4.106,-4.106,-4.106,-4.106,-4.106,-4.106,-4.106,-4.106,-4.106,-4.106,-4.106,-4.106,-4.106,-4.106,-4.106,-3.856,-3.8383,-3.8199,-3.8469,-3.856,-3.856,-3.856,-3.856,-3.856,-3.856,-3.856,-3.856,-3.856,-3.856,-3.8066,-3.6236,-3.4294,-3.1835,-2.8642,-2.8221,-2.8221,-2.8221,-2.8221,-2.8221,-2.8221,-2.8221,-2.8305,-2.8558,-2.9969,-3.0954,-3.1188,-3.4294,-3.5994,-3.5994,-3.7729,-3.856,-3.856,-3.897,-3.897,-3.856,-3.8988,-3.9135,-3.9153,-3.9502,-3.973,-3.9585,-3.78,-3.5975,-3.4229,-3.2692,-3.1074,-2.9513,-2.9753,-2.9873,-2.9913,-2.9913,-2.9913,-2.9913,-2.9913,-2.9913,-2.9913,-2.9913,-3.0959,-3.269,-3.4869,-3.6621,-3.8289,-4.0451,-4.106,-4.106,-4.106,-4.106,-4.106,-4.106,-4.106,-4.106,-4.106,-4.106,-4.106,-4.106,-4.106,-4.106,-4.106,-4.106,-4.106,-4.106,-4.106,-4.106,-4.106,-4.106,-4.106,-4.106,-4.106,-4.106,-4.106,-4.106,-4.106,-4.106,-4.106,-4.106,-4.106,-4.106,-4.106,-4.106,-4.106,-4.106,-4.106,-4.106,-4.106,-4.106,-4.106,-4.106,-3.856,-3.8524,-3.8487,-3.8542,-3.856,-3.856,-3.856,-3.856,-3.856,-3.856,-3.856,-3.856,-3.856,-3.856,-3.8066,-3.6236,-3.3315,-3.0538,-2.8473,-2.8221,-2.8221,-2.8221,-2.8221,-2.8221,-2.8221,-2.8221,-2.881,-3.0289,-3.0622,-3.1437,-3.2905,-3.4944,-3.5994,-3.5994,-3.7729,-3.856,-3.856,-3.8615,-3.8615,-3.856,-3.8615,-3.8652,-3.8652,-3.8805,-3.8823,-3.8682,-3.7212,-3.5593,-3.3766,-3.2364,-3.0876,-2.9486,-2.9539,-2.97,-2.9913,-2.9913,-2.9913,-2.9913,-2.9913,-2.9913,-2.9913,-2.9913,-3.0093,-3.0959,-3.4447,-3.5668,-3.6621,-4.0095,-4.106,-4.106,-4.106,-4.106,-4.106,-4.106,-4.106,-4.106,-4.106,-4.106,-4.106,-4.106,-4.106,-4.106,-4.106,-4.106,-4.106,-4.106,-4.106,-4.106,-4.106,-4.106,-4.106,-4.106,-4.106,-4.106,-4.106,-4.106,-4.106,-4.106,-4.106,-4.106,-4.106,-4.106,-4.106,-4.106,-4.106,-4.106,-4.106,-4.106,-4.106,-4.106,-4.106,-4.106,-3.856,-3.856,-3.856,-3.856,-3.856,-3.856,-3.856,-3.856,-3.856,-3.856,-3.856,-3.856,-3.856,-3.856,-3.7729,-3.5025,-3.3233,-3.1271,-2.8558,-2.8221,-2.8221,-2.8221,-2.8221,-2.8221,-2.8221,-2.8221,-2.888,-3.0705,-3.1685,-3.2987,-3.4684,-3.6494,-3.741,-3.741,-3.8145,-3.856,-3.856,-3.856,-3.856,-3.856,-3.856,-3.8145,-3.7232,-3.7232,-3.6672,-3.577,-3.5127,-3.3816,-3.2176,-3.1598,-3.0481,-2.9045,-2.9366,-2.9566,-2.97,-2.986,-2.9913,-2.9913,-2.9913,-2.9913,-2.9913,-2.9913,-2.9913,-3.0616,-3.436,-3.5494,-3.6275,-4.001,-4.106,-4.106,-4.106,-4.106,-4.106,-4.106,-4.106,-4.106,-4.106,-4.106,-4.106,-4.106,-4.106,-4.106,-4.106,-4.106,-4.106,-4.106,-4.106,-4.106,-4.106,-4.106,-4.106,-4.106,-4.106,-4.106,-4.106,-4.106,-4.106,-4.106,-4.106,-4.106,-4.106,-4.106,-4.106,-4.106,-4.106,-4.106,-4.106,-4.106,-4.106,-4.106,-4.106,-4.106,-3.856,-3.856,-3.856,-3.856,-3.856,-3.856,-3.856,-3.856,-3.856,-3.856,-3.856,-3.856,-3.856,-3.8225,-3.6992,-3.3887,-3.3069,-3.1753,-2.8642,-2.8221,-2.8221,-2.8221,-2.8221,-2.8389,-2.881,-2.881,-2.9704,-3.185,-3.3233,-3.4782,-3.6494,-3.7906,-3.856,-3.856,-3.856,-3.856,-3.856,-3.856,-3.856,-3.856,-3.856,-3.7649,-3.5994,-3.5994,-3.5025,-3.3397,-3.3397,-3.2412,-3.0803,-3.1051,-3.0114,-2.8657,-2.9098,-2.9366,-2.9513,-2.9726,-2.986,-2.9913,-2.9913,-2.9913,-2.9913,-2.9913,-2.9913,-3.0526,-3.3834,-3.4869,-3.5565,-3.887,-3.9756,-4.001,-4.0873,-4.106,-4.106,-4.106,-4.106,-4.106,-4.106,-4.106,-4.106,-4.106,-4.106,-4.106,-4.106,-4.106,-4.106,-4.106,-4.106,-4.106,-4.106,-4.106,-4.106,-4.106,-4.106,-4.106,-4.106,-4.106,-4.106,-4.106,-4.106,-4.106,-4.106,-4.106,-4.106,-4.106,-4.106,-4.106,-4.106,-4.106,-4.1005,-4.0914,-4.0914,-4.0877,-3.856,-3.856,-3.856,-3.856,-3.856,-3.856,-3.856,-3.856,-3.856,-3.856,-3.856,-3.856,-3.856,-3.7312,-3.5591,-3.3724,-3.2015,-3.0289,-2.8473,-2.8221,-2.8221,-2.8221,-2.8221,-2.881,-3.0455,-3.0622,-3.2015,-3.5349,-3.5753,-3.6574,-3.8322,-3.856,-3.856,-3.856,-3.856,-3.856,-3.856,-3.856,-3.856,-3.856,-3.856,-3.7649,-3.5994,-3.5994,-3.5025,-3.3397,-3.3397,-3.2412,-3.0788,-3.0817,-2.993,-2.8604,-2.8657,-2.9005,-2.9486,-2.9513,-2.9686,-2.9913,-2.9913,-2.9913,-2.9913,-2.9913,-2.9913,-3.0258,-3.2263,-3.2867,-3.3292,-3.5304,-3.5928,-3.6707,-4.018,-4.106,-4.106,-4.106,-4.106,-4.106,-4.106,-4.106,-4.106,-4.106,-4.106,-4.106,-4.106,-4.106,-4.106,-4.106,-4.106,-4.106,-4.106,-4.106,-4.106,-4.106,-4.106,-4.106,-4.106,-4.106,-4.106,-4.106,-4.106,-4.106,-4.106,-4.106,-4.106,-4.106,-4.106,-4.106,-4.106,-4.106,-4.0877,-4.051,-4.051,-4.0308,-3.856,-3.856,-3.856,-3.856,-3.856,-3.856,-3.856,-3.856,-3.856,-3.856,-3.856,-3.856,-3.856,-3.8066,-3.6672,-3.3887,-3.2823,-3.1437,-2.8642,-2.8221,-2.8221,-2.8221,-2.9132,-2.9635,-2.9216,-3.1105,-3.2987,-3.4294,-3.543,-3.6735,-3.8481,-3.856,-3.856,-3.856,-3.856,-3.856,-3.856,-3.856,-3.856,-3.856,-3.856,-3.709,-3.4376,-3.4376,-3.2823,-3.0205,-3.0205,-2.9788,-2.9216,-2.9216,-2.8878,-2.8337,-2.8537,-2.8858,-2.9232,-2.9419,-2.9553,-2.9673,-2.986,-2.9913,-2.9913,-2.9913,-2.9913,-3.0258,-3.2174,-3.269,-3.3131,-3.4956,-3.5494,-3.6102,-3.8716,-3.9331,-3.9671,-4.0807,-4.106,-4.106,-4.106,-4.106,-4.106,-4.106,-4.106,-4.106,-4.106,-4.106,-4.106,-4.106,-4.106,-4.106,-4.106,-4.106,-4.106,-4.106,-4.106,-4.106,-4.106,-4.106,-4.106,-4.106,-4.106,-4.106,-4.106,-4.106,-4.106,-4.106,-4.0822,-4.0694,-4.0694,-4.052,-4.0318,-4.0152,-4.0152,-3.9485,-3.856,-3.856,-3.856,-3.856,-3.856,-3.856,-3.856,-3.856,-3.856,-3.856,-3.856,-3.856,-3.856,-3.7747,-3.6172,-3.3805,-3.2494,-3.1105,-2.93,-2.8558,-2.8389,-2.8978,-3.0038,-3.0538,-2.9871,-3.2494,-3.4457,-3.5025,-3.6172,-3.7312,-3.856,-3.856,-3.856,-3.856,-3.856,-3.856,-3.856,-3.856,-3.856,-3.856,-3.8066,-3.6253,-3.3397,-3.3397,-3.1505,-2.8221,-2.8221,-2.8221,-2.8221,-2.8221,-2.8221,-2.8248,-2.8377,-2.8644,-2.8925,-2.9138,-2.9325,-2.9513,-2.9713,-2.9847,-2.9913,-2.9913,-2.9913,-3.0182,-3.139,-3.182,-3.2086,-3.3395,-3.3746,-3.4185,-3.6015,-3.7414,-3.8802,-4.062,-4.106,-4.106,-4.106,-4.106,-4.106,-4.106,-4.106,-4.106,-4.106,-4.106,-4.106,-4.106,-4.106,-4.106,-4.106,-4.106,-4.106,-4.106,-4.095,-4.0877,-4.0877,-4.0749,-4.0759,-4.0759,-4.0156,-4.021,-4.0859,-4.0832,-4.0759,-4.0759,-4.0418,-4.0024,-3.949,-3.9732,-3.9268,-3.8042,-3.8633,-3.7825,-3.856,-3.856,-3.856,-3.856,-3.856,-3.856,-3.856,-3.856,-3.856,-3.856,-3.856,-3.856,-3.856,-3.577,-3.3479,-3.3397,-3.0524,-2.8894,-3.0538,-2.93,-2.8894,-3.0622,-3.0871,-3.152,-3.3233,-3.5025,-3.6735,-3.8481,-3.856,-3.856,-3.856,-3.856,-3.856,-3.856,-3.856,-3.856,-3.856,-3.856,-3.856,-3.856,-3.6815,-3.5106,-3.3397,-3.3397,-3.1505,-2.8221,-2.8221,-2.8221,-2.8221,-2.8221,-2.8221,-2.8221,-2.8221,-2.8337,-2.8604,-2.8604,-2.8978,-2.9472,-2.9486,-2.9673,-2.9913,-2.9913,-2.9913,-2.9913,-2.9913,-2.9913,-2.9913,-2.9913,-2.9913,-3.0348,-3.2263,-3.5494,-3.8716,-4.062,-4.106,-4.106,-4.106,-4.106,-4.106,-4.106,-4.106,-4.106,-4.106,-4.106,-4.106,-4.106,-4.1145,-4.106,-4.1042,-4.1042,-4.1042,-4.1042,-4.0694,-4.0455,-4.0455,-4.0088,-3.9832,-3.9832,-3.8135,-3.8145,-4.0354,-4.007,-3.9832,-3.9832,-3.9832,-3.8976,-3.7207,-3.8976,-3.7842,-3.4055,-3.574,-3.5375,-3.856,-3.856,-3.856,-3.856,-3.856,-3.856,-3.856,-3.856,-3.856,-3.856,-3.856,-3.856,-3.856,-3.7729,-3.627,-3.3805,-3.3544,-3.2972,-3.1037,-3.1437,-3.2083,-3.2577,-3.3724,-3.4213,-3.3479,-3.6092,-3.757,-3.6815,-3.7906,-3.856,-3.856,-3.856,-3.856,-3.856,-3.856,-3.856,-3.856,-3.856,-3.7986,-3.6735,-3.6253,-3.5106,-3.3397,-3.2098,-3.0372,-2.8221,-2.8221,-2.8221,-2.8221,-2.8221,-2.8221,-2.8221,-2.8221,-2.8288,-2.831,-2.8524,-2.8711,-2.8898,-2.9098,-2.9366,-2.9619,-2.9619,-2.9753,-2.9913,-2.9913,-2.9913,-2.9913,-2.9913,-2.9913,-3.0616,-3.3834,-3.5494,-3.6794,-3.8716,-4.0113,-4.106,-4.106,-4.106,-4.106,-4.106,-4.106,-4.106,-4.106,-4.106,-4.106,-4.106,-4.0822,-4.0547,-4.0318,-4.0281,-3.9767,-3.8487,-3.8215,-3.7646,-3.6476,-3.6275,-3.6125,-3.6125,-3.5376,-3.5892,-3.8062,-3.686,-3.6125,-3.6125,-3.5858,-3.5477,-3.498,-3.5229,-3.4719,-3.3622,-3.413,-3.3328,-3.856,-3.856,-3.856,-3.856,-3.856,-3.856,-3.856,-3.856,-3.856,-3.856,-3.856,-3.856,-3.856,-3.8066,-3.6912,-3.4782,-3.4684,-3.4457,-3.3069,-3.3151,-3.3642,-3.4376,-3.5349,-3.5591,-3.4538,-3.6992,-3.8145,-3.7072,-3.7986,-3.856,-3.856,-3.856,-3.856,-3.856,-3.856,-3.856,-3.856,-3.7906,-3.7072,-3.5994,-3.462,-3.3397,-3.233,-3.1271,-2.9886,-2.8221,-2.8221,-2.8221,-2.8221,-2.8221,-2.8221,-2.8221,-2.8221,-2.8221,-2.8248,-2.835,-2.8497,-2.8631,-2.8804,-2.9058,-2.9312,-2.9312,-2.9419,-2.9593,-2.9713,-2.974,-2.9766,-2.9887,-2.9913,-3.041,-3.2544,-3.416,-3.5924,-3.8767,-4.0282,-4.106,-4.106,-4.106,-4.1005,-4.0859,-4.0822,-4.0767,-4.0685,-4.0667,-4.0667,-4.0667,-4.0465,-4.0125,-3.995,-3.924,-3.84,-3.7308,-3.6407,-3.5476,-3.4474,-3.4195,-3.4116,-3.4116,-3.3245,-3.3312,-3.4599,-3.4282,-3.4116,-3.4116,-3.3893,-3.3451,-3.272,-3.3164,-3.2659,-3.1339,-3.2,-3.1437,-3.856,-3.856,-3.856,-3.856,-3.856,-3.856,-3.856,-3.856,-3.856,-3.856,-3.856,-3.856,-3.856,-3.7152,-3.5994,-3.5994,-3.4701,-3.4213,-3.5753,-3.4782,-3.4457,-3.6075,-3.6236,-3.6236,-3.6236,-3.7649,-3.856,-3.856,-3.856,-3.856,-3.856,-3.856,-3.856,-3.856,-3.856,-3.856,-3.856,-3.6895,-3.5914,-3.5753,-3.2412,-3.0705,-3.0538,-3.0538,-2.9718,-2.8221,-2.8221,-2.8221,-2.8221,-2.8221,-2.8221,-2.8221,-2.8221,-2.8221,-2.8221,-2.8221,-2.8323,-2.8564,-2.8564,-2.8751,-2.9005,-2.9005,-2.9018,-2.9085,-2.9366,-2.9446,-2.9499,-2.9766,-2.9833,-2.9869,-2.9941,-3.2366,-3.5873,-4.0,-4.095,-4.095,-4.095,-4.095,-4.084,-4.0492,-4.0418,-4.029,-3.9987,-3.9932,-3.9913,-3.9877,-3.9695,-3.9595,-3.9559,-3.7947,-3.6773,-3.6607,-3.488,-3.3609,-3.3525,-3.316,-3.2905,-3.2905,-3.1437,-3.0538,-3.0538,-3.2083,-3.2905,-3.2905,-3.2905,-3.2165,-3.0538,-3.2165,-3.1256,-2.8221,-2.9802,-2.9718,-3.856,-3.856,-3.856,-3.856,-3.856,-3.856,-3.856,-3.856,-3.856,-3.856,-3.856,-3.856,-3.856,-3.7152,-3.5994,-3.5994,-3.5672,-3.5591,-3.5914,-3.6832,-3.7649,-3.7986,-3.8066,-3.8066,-3.8066,-3.8402,-3.856,-3.856,-3.856,-3.856,-3.856,-3.856,-3.856,-3.856,-3.856,-3.856,-3.856,-3.6895,-3.5349,-3.3969,-3.185,-3.0038,-2.8726,-2.8726,-2.8558,-2.8221,-2.8221,-2.8221,-2.8221,-2.8221,-2.8221,-2.8221,-2.8221,-2.8221,-2.8221,-2.8221,-2.8274,-2.8328,-2.8328,-2.8444,-2.8698,-2.8698,-2.8858,-2.9045,-2.9112,-2.9138,-2.9152,-2.9205,-2.9232,-2.9817,-3.2629,-3.3894,-3.5434,-3.9228,-4.0189,-4.0189,-4.0189,-4.0189,-4.0152,-4.0079,-4.006,-4.0024,-3.9932,-3.9932,-3.9722,-3.941,-3.8202,-3.7165,-3.6852,-3.534,-3.3702,-3.2312,-3.1753,-3.0959,-2.9551,-2.9328,-2.93,-2.93,-2.8964,-2.8726,-2.8726,-2.9132,-2.93,-2.93,-2.93,-2.9132,-2.8726,-2.9132,-2.8964,-2.8234,-2.8558,-2.8558,-3.856,-3.856,-3.856,-3.856,-3.856,-3.856,-3.856,-3.856,-3.856,-3.856,-3.856,-3.856,-3.856,-3.7888,-3.7232,-3.7232,-3.7232,-3.7232,-3.7232,-3.8066,-3.856,-3.856,-3.856,-3.856,-3.856,-3.856,-3.856,-3.856,-3.856,-3.856,-3.856,-3.856,-3.856,-3.856,-3.856,-3.8225,-3.7392,-3.5591,-3.3887,-3.2083,-3.0372,-2.9048,-2.8221,-2.8221,-2.8221,-2.8221,-2.8221,-2.8221,-2.8221,-2.8221,-2.8221,-2.8221,-2.8221,-2.8221,-2.8221,-2.8221,-2.8221,-2.8221,-2.8221,-2.8243,-2.839,-2.839,-2.8484,-2.8644,-2.8791,-2.8831,-2.8858,-2.9005,-2.9045,-2.9425,-3.1137,-3.2861,-3.4561,-3.6382,-3.838,-3.9932,-3.9932,-3.9932,-3.9858,-3.9593,-3.9538,-3.9483,-3.93,-3.8599,-3.7925,-3.773,-3.6221,-3.4997,-3.4799,-3.3233,-3.185,-3.0871,-3.0053,-2.9216,-2.8305,-2.8221,-2.8221,-2.8221,-2.8221,-2.8221,-2.8221,-2.8221,-2.8221,-2.8221,-2.8221,-2.8221,-2.8221,-2.8221,-2.8221,-2.8221,-2.8221,-2.8221,-3.856,-3.856,-3.856,-3.856,-3.856,-3.856,-3.856,-3.856,-3.856,-3.856,-3.856,-3.856,-3.856,-3.8304,-3.8225,-3.856,-3.8322,-3.8243,-3.856,-3.856,-3.856,-3.856,-3.856,-3.856,-3.856,-3.856,-3.856,-3.856,-3.856,-3.856,-3.856,-3.856,-3.856,-3.856,-3.8304,-3.749,-3.5994,-3.3969,-3.2247,-3.0788,-2.9048,-2.8221,-2.8221,-2.8221,-2.8221,-2.8221,-2.8221,-2.8221,-2.8221,-2.8221,-2.8221,-2.8221,-2.8221,-2.8221,-2.8221,-2.8221,-2.8221,-2.8221,-2.8221,-2.8221,-2.8221,-2.8221,-2.8221,-2.8274,-2.8444,-2.8524,-2.8577,-2.8818,-2.8885,-2.8918,-2.892,-3.1337,-3.3746,-3.387,-3.6572,-3.9286,-3.963,-3.9711,-3.9538,-3.919,-3.8875,-3.8445,-3.7801,-3.6494,-3.5591,-3.5591,-3.405,-3.2987,-3.2987,-3.1437,-3.0372,-3.0372,-2.9048,-2.8221,-2.8221,-2.8221,-2.8221,-2.8221,-2.8221,-2.8221,-2.8221,-2.8221,-2.8221,-2.8221,-2.8221,-2.8221,-2.8221,-2.8221,-2.8221,-2.8221,-2.8221,-2.8221,-3.856,-3.856,-3.856,-3.856,-3.856,-3.856,-3.856,-3.856,-3.856,-3.856,-3.856,-3.856,-3.856,-3.7392,-3.6815,-3.8304,-3.7312,-3.6895,-3.8402,-3.856,-3.856,-3.856,-3.856,-3.856,-3.856,-3.856,-3.856,-3.856,-3.856,-3.856,-3.856,-3.856,-3.856,-3.856,-3.7152,-3.6236,-3.5994,-3.2741,-3.1037,-3.0788,-2.9048,-2.8221,-2.8221,-2.8221,-2.8221,-2.8221,-2.8221,-2.8221,-2.8221,-2.8221,-2.8221,-2.8221,-2.8221,-2.8221,-2.8221,-2.8221,-2.8221,-2.8221,-2.8221,-2.8221,-2.8221,-2.8221,-2.8221,-2.8234,-2.8274,-2.8288,-2.8301,-2.8341,-2.8341,-2.8666,-3.0124,-3.1994,-3.3854,-3.5268,-3.608,-3.6892,-3.8468,-3.8805,-3.8786,-3.8652,-3.7481,-3.5901,-3.4376,-3.3887,-3.3724,-3.3724,-3.2247,-3.112,-3.112,-2.9635,-2.8558,-2.8558,-2.8305,-2.8221,-2.8221,-2.8221,-2.8221,-2.8221,-2.8221,-2.8221,-2.8221,-2.8221,-2.8221,-2.8221,-2.8221,-2.8221,-2.8221,-2.8221,-2.8221,-2.8221,-2.8221,-2.8221,-3.856,-3.856,-3.856,-3.856,-3.856,-3.856,-3.856,-3.856,-3.856,-3.856,-3.856,-3.856,-3.856,-3.7986,-3.7729,-3.8481,-3.7986,-3.7729,-3.8481,-3.856,-3.856,-3.856,-3.856,-3.856,-3.856,-3.856,-3.856,-3.856,-3.856,-3.856,-3.856,-3.856,-3.8145,-3.7152,-3.6414,-3.5106,-3.3069,-3.1602,-3.0289,-2.93,-2.8558,-2.8221,-2.8221,-2.8221,-2.8221,-2.8221,-2.8221,-2.8221,-2.8221,-2.8221,-2.8221,-2.8221,-2.8221,-2.8221,-2.8221,-2.8221,-2.8221,-2.8221,-2.8221,-2.8221,-2.8221,-2.8221,-2.8221,-2.8221,-2.8221,-2.8221,-2.8221,-2.8221,-2.8221,-2.8389,-2.9132,-3.0622,-3.218,-3.2905,-3.3805,-3.4782,-3.5527,-3.5689,-3.5689,-3.5689,-3.5106,-3.4278,-3.356,-3.2577,-3.1933,-3.1933,-3.0455,-2.93,-2.93,-2.8642,-2.8221,-2.8221,-2.8221,-2.8221,-2.8221,-2.8221,-2.8221,-2.8221,-2.8221,-2.8221,-2.8221,-2.8221,-2.8221,-2.8221,-2.8221,-2.8221,-2.8221,-2.8221,-2.8221,-2.8221,-2.8221,-2.8221,-3.856,-3.856,-3.856,-3.856,-3.856,-3.856,-3.856,-3.856,-3.856,-3.856,-3.856,-3.856,-3.856,-3.856,-3.856,-3.856,-3.856,-3.856,-3.856,-3.856,-3.856,-3.856,-3.856,-3.856,-3.856,-3.856,-3.856,-3.856,-3.856,-3.856,-3.856,-3.856,-3.7809,-3.6075,-3.5591,-3.3887,-3.0788,-3.0372,-2.9467,-2.8221,-2.8221,-2.8221,-2.8221,-2.8221,-2.8221,-2.8221,-2.8221,-2.8274,-2.8257,-2.8257,-2.8257,-2.8257,-2.8257,-2.8301,-2.8221,-2.8221,-2.8221,-2.8221,-2.8221,-2.8221,-2.8221,-2.8221,-2.8221,-2.8221,-2.8221,-2.8221,-2.8221,-2.8221,-2.8221,-2.8221,-2.8221,-2.9467,-3.0788,-3.0788,-3.1768,-3.2823,-3.3315,-3.3397,-3.3233,-3.2823,-3.2741,-3.2577,-3.2165,-3.1022,-3.0122,-3.0122,-2.9048,-2.8221,-2.8221,-2.8221,-2.8221,-2.8221,-2.8221,-2.8221,-2.8221,-2.8221,-2.8221,-2.8221,-2.8221,-2.8221,-2.8221,-2.8221,-2.8221,-2.8221,-2.8221,-2.8221,-2.8221,-2.8221,-2.8221,-2.8221,-2.8221,-2.8221,-3.856,-3.856,-3.856,-3.856,-3.856,-3.856,-3.856,-3.856,-3.856,-3.856,-3.856,-3.856,-3.856,-3.856,-3.856,-3.856,-3.856,-3.856,-3.856,-3.856,-3.856,-3.856,-3.856,-3.856,-3.856,-3.856,-3.856,-3.856,-3.856,-3.856,-3.856,-3.856,-3.7809,-3.6075,-3.4376,-3.2659,-3.0788,-2.9132,-2.8305,-2.8221,-2.8221,-2.8221,-2.8221,-2.8221,-2.8221,-2.8221,-2.8221,-2.831,-2.8577,-2.8577,-2.8577,-2.8577,-2.8577,-2.8404,-2.8221,-2.8221,-2.8221,-2.8221,-2.8221,-2.8221,-2.8221,-2.8221,-2.8221,-2.8221,-2.8221,-2.8221,-2.8221,-2.8221,-2.8221,-2.8221,-2.8221,-2.9467,-3.0788,-3.0788,-3.0871,-3.1354,-3.3069,-3.3397,-3.2905,-3.1286,-3.0954,-3.0372,-2.8726,-2.8389,-2.8305,-2.8305,-2.8221,-2.8221,-2.8221,-2.8221,-2.8221,-2.8221,-2.8221,-2.8221,-2.8221,-2.8221,-2.8221,-2.8221,-2.8221,-2.8221,-2.8221,-2.8221,-2.8221,-2.8221,-2.8221,-2.8221,-2.8221,-2.8221,-2.8221,-2.8221,-2.8221,-2.8221,-3.856,-3.856,-3.856,-3.856,-3.856,-3.856,-3.856,-3.856,-3.856,-3.856,-3.856,-3.856,-3.856,-3.856,-3.856,-3.856,-3.856,-3.856,-3.856,-3.856,-3.856,-3.856,-3.856,-3.856,-3.856,-3.856,-3.856,-3.856,-3.856,-3.856,-3.856,-3.856,-3.733,-3.4457,-3.3724,-3.2,-2.9132,-2.8473,-2.8221,-2.8221,-2.8221,-2.8221,-2.8221,-2.8221,-2.8221,-2.8221,-2.8221,-2.8323,-2.8604,-2.8604,-2.8711,-2.8885,-2.8885,-2.8698,-2.8444,-2.8444,-2.831,-2.8221,-2.8221,-2.8221,-2.8221,-2.8221,-2.8221,-2.8221,-2.8221,-2.8221,-2.8221,-2.8221,-2.8221,-2.8221,-2.8221,-2.8642,-2.9132,-2.9132,-2.9132,-2.93,-2.9955,-3.0939,-3.1188,-2.9467,-2.9132,-2.8964,-2.8305,-2.8221,-2.8221,-2.8221,-2.8221,-2.8221,-2.8221,-2.8221,-2.8221,-2.8221,-2.8221,-2.8221,-2.8221,-2.8221,-2.8221,-2.8221,-2.8221,-2.8221,-2.8221,-2.8221,-2.8221,-2.8221,-2.8221,-2.8221,-2.8221,-2.8221,-2.8221,-2.8221,-2.8221,-2.8221,-3.856,-3.856,-3.856,-3.856,-3.856,-3.856,-3.856,-3.856,-3.856,-3.856,-3.856,-3.856,-3.856,-3.856,-3.856,-3.856,-3.856,-3.856,-3.856,-3.856,-3.856,-3.856,-3.856,-3.856,-3.856,-3.856,-3.856,-3.856,-3.856,-3.856,-3.856,-3.8066,-3.6092,-3.2659,-3.1918,-3.0524,-2.8221,-2.8221,-2.8221,-2.8221,-2.8221,-2.8221,-2.8221,-2.8221,-2.8221,-2.8234,-2.8341,-2.847,-2.8751,-2.8751,-2.8925,-2.9192,-2.9192,-2.9005,-2.8738,-2.8644,-2.847,-2.8283,-2.8261,-2.8221,-2.8221,-2.8221,-2.8221,-2.8221,-2.8221,-2.8221,-2.8221,-2.8221,-2.8221,-2.8221,-2.8221,-2.8221,-2.8221,-2.8221,-2.8221,-2.8221,-2.8221,-2.9132,-2.9551,-2.8389,-2.8221,-2.8221,-2.8221,-2.8221,-2.8221,-2.8221,-2.8221,-2.8221,-2.8221,-2.8221,-2.8221,-2.8221,-2.8221,-2.8221,-2.8221,-2.8221,-2.8221,-2.8221,-2.8221,-2.8221,-2.8221,-2.8221,-2.8221,-2.8221,-2.8221,-2.8221,-2.8221,-2.8221,-2.8221,-2.8221,-2.8221,-2.8221,0.0,0.0,0.0,-3.8542,-3.8542,-3.8542,-3.856,-3.856,-3.856,-3.856,-3.856,-3.8481,-3.8481,-3.8481,-3.8481,-3.8481,-3.856,-3.856,-3.856,-3.856,-3.856,-3.856,-3.856,-3.856,-3.856,-3.856,-3.856,-3.856,-3.856,-3.856,-3.856,-3.6832,-3.4294,-3.0871,-2.9132,-2.8221,-2.8221,-2.8221,-2.8221,-2.8221,-2.8221,-2.8221,-2.8221,-2.8221,-2.8221,-2.8248,-2.847,-2.8778,-2.9045,-2.9045,-2.9232,-2.9499,-2.9499,-2.9312,-2.9018,-2.8738,-2.8617,-2.8564,-2.8257,-2.8234,-2.8221,-2.8221,-2.8221,-2.8221,-2.8221,-2.8221,-2.8221,-2.8221,-2.8221,-2.8221,-2.8221,-2.8221,-2.8221,-2.8221,-2.8221,-2.8221,-2.8221,-2.8221,-2.8221,-2.8221,-2.8221,-2.8221,-2.8221,-2.8221,-2.8221,-2.8221,-2.8221,-2.8221,-2.8221,-2.8221,-2.8221,-2.8221,-2.8221,-2.8221,-2.8221,-2.8221,-2.8221,-2.8221,-2.8221,-2.8221,-2.8221,-2.8221,-2.8221,-2.8221,-2.8221,-2.8221,-2.8221,-2.8221,-2.8221,-2.8221,-2.8221,-2.8221,-3.6323,0.0,0.0,0.0,0.0,0.0,-3.6922,-3.7729,-3.8225,-3.6992,-3.6735,-3.6333,-3.5025,-3.4863,-3.5268,-3.6494,-3.7809,-3.856,-3.856,-3.856,-3.856,-3.856,-3.856,-3.856,-3.856,-3.856,-3.856,-3.856,-3.856,-3.8066,-3.6815,-3.3887,-3.1768,-3.0788,-2.9132,-2.8221,-2.8221,-2.8221,-2.8221,-2.8221,-2.8221,-2.8221,-2.8221,-2.8221,-2.8221,-2.8248,-2.847,-2.8778,-2.9058,-2.9272,-2.9526,-2.9793,-2.9793,-2.9619,-2.9352,-2.9272,-2.8978,-2.8591,-2.8511,-2.8337,-2.8221,-2.8221,-2.8221,-2.8221,-2.8221,-2.8221,-2.8221,-2.8221,-2.8221,-2.8221,-2.8221,-2.8221,-2.8221,-2.8221,-2.8221,-2.8221,-2.8221,-2.8221,-2.8221,-2.8221,-2.8221,-2.8221,-2.8221,-2.8221,-2.8221,-2.8221,-2.8221,-2.8221,-2.8221,-2.8221,-2.8221,-2.8221,-2.8221,-2.8221,-2.8221,-2.8221,-2.8221,-2.8221,-2.8221,-2.8221,-2.8221,-2.8221,-2.8221,-2.8221,-2.8221,-2.8221,-2.8221,-2.8221,-2.8221,-2.8221,-2.8221,-2.8221,-3.4462,-3.501,-3.5443,-3.4417,0.0,0.0,-3.4869,-3.5531,-3.6,-3.5073,-3.4944,-3.4603,-3.356,-3.3397,-3.3724,-3.4782,-3.6414,-3.7729,-3.8481,-3.856,-3.856,-3.856,-3.856,-3.856,-3.856,-3.856,-3.856,-3.856,-3.856,-3.749,-3.5025,-3.233,-3.0455,-2.9718,-2.8726,-2.8221,-2.8221,-2.8221,-2.8221,-2.8221,-2.8221,-2.8221,-2.8221,-2.8221,-2.8301,-2.835,-2.8657,-2.8951,-2.9245,-2.9539,-2.9766,-2.9913,-2.9913,-2.9806,-2.9646,-2.9526,-2.9272,-2.8938,-2.8698,-2.8484,-2.831,-2.8274,-2.8221,-2.8221,-2.8221,-2.8221,-2.8221,-2.8221,-2.8221,-2.8221,-2.8221,-2.8221,-2.8221,-2.8221,-2.8221,-2.8221,-2.8221,-2.8221,-2.8221,-2.8221,-2.8221,-2.8221,-2.8221,-2.8221,-2.8221,-2.8221,-2.8221,-2.8221,-2.8221,-2.8221,-2.8221,-2.8221,-2.8221,-2.8221,-2.8221,-2.8221,-2.8221,-2.8221,-2.8221,-2.8221,-2.8221,-2.8221,-2.8221,-2.8221,-2.8221,-2.8221,-2.8221,-2.8221,-2.8221,-2.8221,-2.8221,-2.8221,-3.2632,-3.2539,-3.238,-3.2221,-3.2301,0.0,-3.2585,-3.2825,-3.2985,-3.2978,-3.3041,-3.2959,-3.278,-3.2714,-3.2796,-3.3006,-3.4392,-3.604,-3.8066,-3.8481,-3.856,-3.856,-3.856,-3.856,-3.856,-3.856,-3.856,-3.856,-3.8243,-3.6592,-3.3315,-3.1437,-2.9802,-2.8221,-2.8221,-2.8221,-2.8221,-2.8221,-2.8221,-2.8221,-2.8221,-2.8221,-2.8221,-2.8221,-2.831,-2.8617,-2.8911,-2.9205,-2.9499,-2.9793,-2.9913,-2.9913,-2.9913,-2.9913,-2.9887,-2.9633,-2.9513,-2.9406,-2.8845,-2.8631,-2.8564,-2.8328,-2.8221,-2.8221,-2.8221,-2.8221,-2.8221,-2.8221,-2.8221,-2.8221,-2.8221,-2.8221,-2.8221,-2.8221,-2.8221,-2.8221,-2.8221,-2.8221,-2.8221,-2.8221,-2.8221,-2.8221,-2.8221,-2.8221,-2.8221,-2.8221,-2.8221,-2.8221,-2.8221,-2.8221,-2.8221,-2.8221,-2.8221,-2.8221,-2.8221,-2.8221,-2.8221,-2.8221,-2.8221,-2.8221,-2.8221,-2.8221,-2.8221,-2.8221,-2.8221,-2.8221,-2.8221,-2.8221,-2.8221,-2.8221,-2.8221,-2.8221,-3.0141,-3.0976,-3.17,-3.0284,-3.0993,0.0,-3.0721,-3.1582,-3.2236,-3.0871,-3.0564,-3.0174,-2.8725,-2.848,-2.9041,-3.0676,-3.1197,-3.2592,-3.604,-3.7729,-3.856,-3.856,-3.856,-3.856,-3.856,-3.856,-3.856,-3.856,-3.6011,-3.3479,-3.1437,-2.9635,-2.8558,-2.8234,-2.8221,-2.8221,-2.8221,-2.8221,-2.8221,-2.8221,-2.8221,-2.8221,-2.8221,-2.8221,-2.831,-2.8617,-2.8911,-2.9205,-2.9499,-2.9793,-2.9913,-2.9913,-2.9913,-2.9913,-2.9913,-2.9847,-2.9686,-2.9432,-2.9085,-2.8804,-2.8564,-2.8328,-2.8221,-2.8221,-2.8221,-2.8221,-2.8221,-2.8221,-2.8221,-2.8221,-2.8221,-2.8221,-2.8221,-2.8221,-2.8221,-2.8221,-2.8221,-2.8221,-2.8221,-2.8221,-2.8221,-2.8221,-2.8221,-2.8221,-2.8221,-2.8221,-2.8221,-2.8221,-2.8221,-2.8221,-2.8221,-2.8221,-2.8221,-2.8221,-2.8221,-2.8221,-2.8221,-2.8221,-2.8221,-2.8221,-2.8221,-2.8221,-2.8221,-2.8221,-2.8221,-2.8221,-2.8221,-2.8221,-2.8221,-2.8221,-2.8221,-2.8221,-2.8207,-2.859,-2.8948,-2.8081,-2.8475,0.0,0.0,-2.9028,-2.9457,-2.8758,-2.8624,-2.8314,-2.7431,-2.7268,-2.7635,-2.8672,-2.9631,-3.1003,-3.2867,-3.5553,-3.7312,-3.7312,-3.8066,-3.856,-3.856,-3.856,-3.8225,-3.7392,-3.4863,-3.2659,-3.0871,-2.9132,-2.8221,-2.8221,-2.8221,-2.8221,-2.8221,-2.8221,-2.8221,-2.8221,-2.8221,-2.8221,-2.8234,-2.831,-2.8537,-2.8845,-2.9138,-2.9432,-2.9713,-2.986,-2.9913,-2.9913,-2.9913,-2.9913,-2.9913,-2.9913,-2.982,-2.9633,-2.9192,-2.8951,-2.8751,-2.8283,-2.8221,-2.8221,-2.8221,-2.8221,-2.8221,-2.8221,-2.8221,-2.8221,-2.8221,-2.8221,-2.8221,-2.8221,-2.8221,-2.8221,-2.8221,-2.8221,-2.8221,-2.8221,-2.8221,-2.8221,-2.8221,-2.8221,-2.8221,-2.8221,-2.8221,-2.8221,-2.8221,-2.8221,-2.8221,-2.8221,-2.8221,-2.8221,-2.8221,-2.8221,-2.8221,-2.8221,-2.8221,-2.8221,-2.8221,-2.8221,-2.8221,-2.8221,-2.8221,-2.8221,-2.8221,-2.8221,-2.8221,-2.8221,-2.8221,-2.8221,-2.6907,-2.6613,-2.6386,-2.6386,-2.6386,-2.6453,0.0,0.0,0.0,-2.7041,-2.7094,-2.7094,-2.7094,-2.7094,-2.7134,-2.7241,-2.863,-2.9669,-2.9799,-3.2705,-3.5023,-3.5413,-3.6752,-3.7729,-3.8066,-3.8066,-3.725,-3.5187,-3.3724,-3.218,-3.0372,-2.8978,-2.8221,-2.8221,-2.8221,-2.8221,-2.8221,-2.8221,-2.8221,-2.8221,-2.8221,-2.8221,-2.8234,-2.847,-2.8764,-2.9058,-2.9352,-2.9646,-2.9913,-2.9913,-2.9913,-2.9913,-2.9913,-2.9913,-2.9913,-2.9913,-2.9887,-2.9753,-2.9219,-2.9005,-2.8871,-2.8323,-2.8221,-2.8221,-2.8221,-2.8221,-2.8221,-2.8221,-2.8221,-2.8221,-2.8221,-2.8221,-2.8221,-2.8221,-2.8221,-2.8221,-2.8221,-2.8221,-2.8221,-2.8221,-2.8221,-2.8221,-2.8221,-2.8221,-2.8221,-2.8221,-2.8221,-2.8221,-2.8221,-2.8221,-2.8221,-2.8221,-2.8221,-2.8221,-2.8221,-2.8221,-2.8221,-2.8221,-2.8221,-2.8221,-2.8221,-2.8221,-2.8221,-2.8221,-2.8221,-2.8221,-2.8221,-2.8221,-2.8221,-2.8221,-2.8221,-2.8221,-2.6907,-2.6613,-2.6386,-2.6386,-2.6386,-2.64,-2.6426,0.0,-2.6453,-2.648,0.0,-2.6493,-2.6493,0.0,0.0,-2.7188,-2.723,-2.7338,-2.7946,-2.9678,-3.1584,-3.3512,-3.3887,-3.462,-3.6155,-3.6333,-3.4944,-3.1602,-3.1203,-3.0289,-2.8558,-2.8305,-2.8221,-2.8221,-2.8221,-2.8221,-2.8221,-2.8221,-2.8221,-2.8221,-2.8221,-2.8221,-2.8234,-2.847,-2.8764,-2.9058,-2.9352,-2.9646,-2.9913,-2.9913,-2.9913,-2.9913,-2.9913,-2.9913,-2.9913,-2.9913,-2.9753,-2.9486,-2.9152,-2.8871,-2.8604,-2.8341,-2.8221,-2.8221,-2.8221,-2.8221,-2.8221,-2.8221,-2.8221,-2.8221,-2.8221,-2.8221,-2.8221,-2.8221,-2.8221,-2.8221,-2.8221,-2.8221,-2.8221,-2.8221,-2.8221,-2.8221,-2.8221,-2.8221,-2.8221,-2.8221,-2.8221,-2.8221,-2.8221,-2.8221,-2.8221,-2.8221,-2.8221,-2.8221,-2.8221,-2.8221,-2.8221,-2.8221,-2.8221,-2.8221,-2.8221,-2.8221,-2.8221,-2.8221,-2.8221,-2.8221,-2.8221,-2.8221,-2.8221,-2.8221,-2.8221,-2.8221,-2.6907,-2.6734,-2.66,-2.6426,-2.652,-2.66,-2.6426,-2.6386,-2.6386,-2.6386,0.0,0.0,0.0,0.0,0.0,0.0,-2.68,-2.6907,-2.7148,-2.7975,-2.9343,-3.1354,-3.2698,-3.3724,-3.4457,-3.4457,-3.3479,-3.0954,-3.0788,-3.0038,-2.8305,-2.8221,-2.8221,-2.8221,-2.8221,-2.8221,-2.8221,-2.8221,-2.8221,-2.8221,-2.8221,-2.8315,-2.8417,-2.8724,-2.9018,-2.9312,-2.9606,-2.9806,-2.9913,-2.9913,-2.9913,-2.9913,-2.9913,-2.9913,-2.9913,-2.9913,-2.9726,-2.9446,-2.9138,-2.8845,-2.8564,-2.8328,-2.8221,-2.8221,-2.8221,-2.8221,-2.8221,-2.8221,-2.8221,-2.8221,-2.8221,-2.8221,-2.8221,-2.8221,-2.8221,-2.8221,-2.8221,-2.8221,-2.8221,-2.8221,-2.8221,-2.8221,-2.8221,-2.8221,-2.8221,-2.8221,-2.8221,-2.8221,-2.8221,-2.8221,-2.8221,-2.8221,-2.8221,-2.8221,-2.8221,-2.8221,-2.8221,-2.8221,-2.8221,-2.8221,-2.8221,-2.8221,-2.8221,-2.8221,-2.8221,-2.8221,-2.8221,-2.8221,-2.8221,-2.8221,-2.8221,-2.8221,-2.7028,-2.6881,-2.6747,-2.6466,-2.6547,-2.6653,-2.644,-2.6386,-2.6386,-2.6386,-2.6386,0.0,0.0,0.0,-2.6413,-2.6493,0.0,-2.6734,-2.6814,-2.7001,-2.7758,-2.936,-3.1392,-3.2494,-3.2,-3.2412,-3.1918,-3.0205,-3.0122,-2.9551,-2.8305,-2.8221,-2.8221,-2.8221,-2.8221,-2.8221,-2.8221,-2.8221,-2.8221,-2.8221,-2.8221,-2.831,-2.8617,-2.8911,-2.9205,-2.9499,-2.9793,-2.9913,-2.9913,-2.9913,-2.9913,-2.9913,-2.9913,-2.9913,-2.9913,-2.9913,-2.9686,-2.9325,-2.9112,-2.8791,-2.8444,-2.8301,-2.8221,-2.8221,-2.8221,-2.8221,-2.8221,-2.8221,-2.8221,-2.8221,-2.8221,-2.8221,-2.8221,-2.8221,-2.8221,-2.8221,-2.8221,-2.8221,-2.8221,-2.8221,-2.8221,-2.8221,-2.8221,-2.8221,-2.8221,-2.8221,-2.8221,-2.8221,-2.8221,-2.8221,-2.8221,-2.8221,-2.8221,-2.8221,-2.8221,-2.8221,-2.8221,-2.8221,-2.8221,-2.8221,-2.8221,-2.8221,-2.8221,-2.8221,-2.8221,-2.8221,-2.8221,-2.8221,-2.8221,-2.8221,-2.8221,-2.8221,-2.7335,-2.7041,-2.6747,-2.6466,-2.64,-2.64,-2.6386,-2.6386,-2.6386,-2.6386,-2.6386,-2.6386,-2.6386,-2.6386,-2.648,-2.676,-2.6587,0.0,0.0,-2.6827,-2.7054,-2.7712,-2.9604,-3.0205,-2.8558,-2.9871,-3.0122,-2.8389,-2.8305,-2.8221,-2.8221,-2.8221,-2.8221,-2.8221,-2.8221,-2.8221,-2.8221,-2.8221,-2.8221,-2.8221,-2.8221,-2.831,-2.8617,-2.8911,-2.9205,-2.9499,-2.9793,-2.9913,-2.9913,-2.9913,-2.9913,-2.9913,-2.9913,-2.9913,-2.9913,-2.9913,-2.9553,-2.9045,-2.9045,-2.8657,-2.8248,-2.8234,-2.8221,-2.8221,-2.8221,-2.8221,-2.8221,-2.8221,-2.8221,-2.8221,-2.8221,-2.8221,-2.8221,-2.8221,-2.8221,-2.8221,-2.8221,-2.8221,-2.8221,-2.8221,-2.8221,-2.8221,-2.8221,-2.8221,-2.8221,-2.8221,-2.8221,-2.8221,-2.8221,-2.8221,-2.8221,-2.8221,-2.8221,-2.8221,-2.8221,-2.8221,-2.8221,-2.8221,-2.8221,-2.8221,-2.8221,-2.8221,-2.8221,-2.8221,-2.8221,-2.8221,-2.8221,-2.8221,-2.8221,-2.8221,-2.8221,-2.8221,-2.7575,-2.7482,-2.7281,-2.68,-2.6827,-2.6867,-2.648,-2.6386,-2.6386,-2.6386,-2.6386,-2.6386,-2.6386,-2.6386,-2.6426,-2.652,-2.6453,-2.6426,0.0,-2.6694,-2.6974,-2.7362,-2.8248,-2.8577,-2.8207,-2.8726,-2.881,-2.8221,-2.8221,-2.8221,-2.8221,-2.8221,-2.8221,-2.8221,-2.8221,-2.8221,-2.8221,-2.8221,-2.8221,-2.8234,-2.835,-2.8604,-2.8898,-2.9205,-2.9486,-2.978,-2.9873,-2.9913,-2.9913,-2.9913,-2.9913,-2.9913,-2.9913,-2.9913,-2.99,-2.97,-2.9379,-2.8978,-2.8577,-2.831,-2.8221,-2.8221,-2.8221,-2.8221,-2.8221,-2.8221,-2.8221,-2.8221,-2.8221,-2.8221,-2.8221,-2.8221,-2.8221,-2.8221,-2.8221,-2.8221,-2.8221,-2.8221,-2.8221,-2.8221,-2.8221,-2.8221,-2.8221,-2.8221,-2.8221,-2.8221,-2.8221,-2.8221,-2.8221,-2.8221,-2.8221,-2.8221,-2.8221,-2.8221,-2.8221,-2.8221,-2.8221,-2.8221,-2.8221,-2.8221,-2.8221,-2.8221,-2.8221,-2.8221,-2.8221,-2.8221,-2.8221,-2.8221,-2.8221,-2.8221,-2.8221,-2.8221,-2.7722,-2.7696,-2.7575,-2.7094,-2.7121,-2.7134,-2.6653,-2.6547,-2.652,-2.6413,-2.6386,-2.6386,-2.6386,-2.6386,-2.6386,-2.6386,-2.6386,-2.6386,0.0,-2.6547,-2.6774,-2.7068,-2.7455,-2.7816,-2.8194,-2.8221,-2.8221,-2.8221,-2.8221,-2.8221,-2.8221,-2.8221,-2.8221,-2.8221,-2.8221,-2.8221,-2.8221,-2.8221,-2.8221,-2.8234,-2.8457,-2.8764,-2.9045,-2.9352,-2.9646,-2.9913,-2.9913,-2.9913,-2.9913,-2.9913,-2.9913,-2.9913,-2.9913,-2.986,-2.974,-2.9553,-2.9232,-2.8818,-2.831,-2.8221,-2.8221,-2.8221,-2.8221,-2.8221,-2.8221,-2.8221,-2.8248,-2.8283,-2.823,-2.8248,-2.8283,-2.8315,-2.8221,-2.8221,-2.8221,-2.8221,-2.8221,-2.8221,-2.8221,-2.8221,-2.8221,-2.8221,-2.8221,-2.8221,-2.8221,-2.8221,-2.8221,-2.8221,-2.8221,-2.8221,-2.8221,-2.8221,-2.8221,-2.8221,-2.8221,-2.8221,-2.8221,-2.8221,-2.8221,-2.8221,-2.8221,-2.8221,-2.8221,-2.8221,-2.8221,-2.8221,-2.8221,-2.8221,-2.8221,-2.8221,-2.8221,-2.8221]}]]